[[{"header":{"parameterUnit":"m.s-1","parameterCategory":1,"la1":30.6,"la2":28.766,"lo1":-90.7593,"lo2":-88.6598,"dy":0.0162,"dx":0.0183,"nx":116,"ny":114,"refTime":"2024-03-20T00:00:00:Z","depth":0,"parameterNumber":2,"parameterNumberName":"U-component_of_WINDS"},"data":[0.0,0.0,0.0,0.0,0.0,0.0,0.0,0.0,0.0,0.0,0.0,0.0,0.0,0.0,0.0,0.0,0.0,0.0,0.0,0.0,0.0,0.0,0.0,0.0,0.0,0.0,0.0,0.0,0.0,0.0,0.0,0.0,0.0,0.0,0.0,0.0,0.0,0.0,0.0,0.0,0.0,0.0,0.0,0.0,0.0,0.0,0.0,0.0,0.0,0.0,0.0,0.0,0.0,0.0,0.0,0.0,0.0,0.0,0.0,0.0,0.0,0.0,0.0,0.0,0.0,0.0,0.0,0.0,0.0,0.0,0.0,0.0,0.0,0.0,0.0,0.0,0.0,0.0,0.0,0.0,0.0,0.0,0.0,0.0,0.0,0.0,0.0,0.0,0.0,0.0,0.0,0.0,0.0,0.0,0.0,0.0,0.0,0.0,0.0,0.0,0.0,0.0,0.0,0.0,0.0,0.0,0.0,0.0,0.0,0.0,0.0,0.0,0.0,0.0,0.0,0.0,0.0,0.0,0.0,0.0,0.0,0.0,0.0,0.0,0.0,0.0,0.0,0.0,0.0,0.0,0.0,0.0,0.0,0.0,0.0,0.0,0.0,0.0,0.0,0.0,0.0,0.0,0.0,0.0,0.0,0.0,0.0,0.0,0.0,0.0,0.0,0.0,0.0,0.0,0.0,0.0,0.0,0.0,0.0,0.0,0.0,0.0,0.0,0.0,0.0,0.0,0.0,0.0,0.0,0.0,0.0,0.0,0.0,0.0,0.0,0.0,0.0,0.0,0.0,0.0,0.0,0.0,0.0,0.0,0.0,0.0,0.0,0.0,0.0,0.0,0.0,0.0,0.0,0.0,0.0,0.0,0.0,0.0,0.0,0.0,0.0,0.0,0.0,0.0,0.0,0.0,0.0,0.0,0.0,0.0,0.0,0.0,0.0,0.0,0.0,0.0,0.0,0.0,0.0,0.0,0.0,0.0,0.0,0.0,0.0,0.0,0.0,0.0,0.0,0.0,0.0,0.0,0.0,0.0,0.0,0.0,0.0,0.0,0.0,0.0,0.0,0.0,0.0,0.0,0.0,0.0,0.0,0.0,0.0,0.0,0.0,0.0,0.0,0.0,0.0,0.0,0.0,0.0,0.0,0.0,0.0,0.0,0.0,0.0,0.0,0.0,0.0,0.0,0.0,0.0,0.0,0.0,0.0,0.0,0.0,0.0,0.0,0.0,0.0,0.0,0.0,0.0,0.0,0.0,0.0,0.0,0.0,0.0,0.0,0.0,0.0,0.0,0.0,0.0,0.0,0.0,0.0,0.0,0.0,0.0,0.0,0.0,0.0,0.0,0.0,0.0,0.0,0.0,0.0,0.0,0.0,0.0,0.0,0.0,0.0,0.0,0.0,0.0,0.0,0.0,0.0,0.0,0.0,0.0,0.0,0.0,0.0,0.0,0.0,0.0,0.0,0.0,0.0,0.0,0.0,0.0,0.0,0.0,0.0,0.0,0.0,0.0,0.0,0.0,0.0,0.0,0.0,0.0,0.0,0.0,0.0,0.0,0.0,0.0,0.0,0.0,0.0,0.0,0.0,0.0,0.0,0.0,0.0,0.0,0.0,0.0,0.0,0.0,0.0,0.0,0.0,0.0,0.0,0.0,0.0,0.0,0.0,0.0,0.0,0.0,0.0,0.0,0.0,0.0,0.0,0.0,0.0,0.0,0.0,0.0,0.0,0.0,0.0,0.0,0.0,0.0,0.0,0.0,0.0,0.0,0.0,0.0,0.0,0.0,0.0,0.0,0.0,0.0,0.0,0.0,0.0,0.0,0.0,0.0,0.0,0.0,0.0,0.0,0.0,0.0,0.0,0.0,0.0,0.0,0.0,0.0,0.0,0.0,0.0,0.0,0.0,0.0,0.0,0.0,0.0,0.0,0.0,0.0,0.0,0.0,0.0,0.0,0.0,0.0,0.0,0.0,0.0,0.0,0.0,0.0,0.0,0.0,0.0,0.0,0.0,0.0,0.0,0.0,0.0,0.0,0.0,0.0,0.0,0.0,0.0,0.0,0.0,0.0,0.0,0.0,0.0,0.0,0.0,0.0,0.0,0.0,0.0,0.0,0.0,0.0,0.0,0.0,0.0,0.0,0.0,0.0,0.0,0.0,0.0,0.0,0.0,0.0,0.0,0.0,0.0,0.0,0.0,0.0,0.0,0.0,0.0,0.0,0.0,0.0,0.0,0.0,0.0,0.0,0.0,0.0,0.0,0.0,0.0,0.0,0.0,0.0,0.0,0.0,0.0,0.0,0.0,0.0,0.0,0.0,0.0,0.0,0.0,0.0,0.0,0.0,0.0,0.0,0.0,0.0,0.0,0.0,0.0,0.0,0.0,0.0,0.0,0.0,0.0,0.0,0.0,0.0,0.0,0.0,0.0,0.0,0.0,0.0,0.0,0.0,0.0,0.0,0.0,0.0,0.0,0.0,0.0,0.0,0.0,0.0,0.0,0.0,0.0,0.0,0.0,0.0,0.0,0.0,0.0,0.0,0.0,0.0,0.0,0.0,0.0,0.0,0.0,0.0,0.0,0.0,0.0,0.0,0.0,0.0,0.0,0.0,0.0,0.0,0.0,0.0,0.0,0.0,0.0,0.0,0.0,0.0,0.0,0.0,0.0,0.0,0.0,0.0,0.0,0.0,0.0,0.0,0.0,0.0,0.0,0.0,0.0,0.0,0.0,0.0,0.0,0.0,0.0,0.0,0.0,0.0,0.0,0.0,0.0,0.0,0.0,0.0,0.0,0.0,0.0,0.0,0.0,0.0,0.0,0.0,0.0,0.0,0.0,0.0,0.0,0.0,0.0,0.0,0.0,0.0,0.0,0.0,0.0,0.0,0.0,0.0,0.0,0.0,0.0,0.0,0.0,0.0,0.0,0.0,0.0,0.0,0.0,0.0,0.0,0.0,0.0,0.0,0.0,0.0,0.0,0.0,0.0,0.0,0.0,0.0,0.0,0.0,0.0,0.0,0.0,0.0,0.0,0.0,0.0,0.0,0.0,0.0,0.0,0.0,0.0,0.0,0.0,0.0,0.0,0.0,0.0,0.0,0.0,0.0,0.0,0.0,0.0,0.0,0.0,0.0,0.0,0.0,0.0,0.0,0.0,0.0,0.0,0.0,0.0,0.0,0.0,0.0,0.0,0.0,0.0,0.0,0.0,0.0,0.0,0.0,0.0,0.0,0.0,0.0,0.0,0.0,0.0,0.0,0.0,0.0,0.0,0.0,0.0,0.0,0.0,0.0,0.0,0.0,0.0,0.0,0.0,0.0,0.0,0.0,0.0,0.0,0.0,0.0,0.0,0.0,0.0,0.0,0.0,0.0,0.0,0.0,0.0,0.0,0.0,0.0,0.0,0.0,0.0,0.0,0.0,0.0,0.0,0.0,0.0,0.0,0.0,0.0,0.0,0.0,0.0,0.0,0.0,0.0,0.0,0.0,0.0,0.0,0.0,0.0,0.0,0.0,0.0,0.0,0.0,0.0,0.0,0.0,0.0,0.0,0.0,0.0,0.0,0.0,0.0,0.0,0.0,0.0,0.0,0.0,0.0,0.0,0.0,0.0,0.0,0.0,0.0,0.0,0.0,0.0,0.0,0.0,0.0,0.0,0.0,0.0,0.0,0.0,0.0,0.0,0.0,0.0,0.0,0.0,0.0,0.0,0.0,0.0,0.0,0.0,0.0,0.0,0.0,0.0,0.0,0.0,0.0,0.0,0.0,0.0,0.0,0.0,0.0,0.0,0.0,0.0,0.0,0.0,0.0,0.0,0.0,0.0,0.0,0.0,0.0,0.0,0.0,0.0,0.0,0.0,0.0,0.0,0.0,0.0,0.0,0.0,0.0,0.0,0.0,0.0,0.0,0.0,0.0,0.0,0.0,0.0,0.0,0.0,0.0,0.0,0.0,0.0,0.0,0.0,0.0,0.0,0.0,0.0,0.0,0.0,0.0,0.0,0.0,0.0,0.0,0.0,0.0,0.0,0.0,0.0,0.0,0.0,0.0,0.0,0.0,0.0,0.0,0.0,0.0,0.0,0.0,0.0,0.0,0.0,0.0,0.0,0.0,0.0,0.0,0.0,0.0,0.0,0.0,0.0,0.0,0.0,0.0,0.0,0.0,0.0,0.0,0.0,0.0,0.0,0.0,0.0,0.0,0.0,0.0,0.0,0.0,0.0,0.0,0.0,0.0,0.0,0.0,0.0,0.0,0.0,0.0,0.0,0.0,0.0,0.0,0.0,0.0,0.0,0.0,0.0,0.0,0.0,0.0,0.0,0.0,0.0,0.0,0.0,0.0,0.0,0.0,0.0,0.0,0.0,0.0,0.0,0.0,0.0,0.0,0.0,0.0,0.0,0.0,0.0,0.0,0.0,0.0,0.0,0.0,0.0,0.0,0.0,0.0,0.0,0.0,0.0,0.0,0.0,0.0,0.0,0.0,0.0,0.0,0.0,0.0,0.0,0.0,0.0,0.0,0.0,0.0,0.0,0.0,0.0,0.0,0.0,0.0,0.0,0.0,0.0,0.0,0.0,0.0,0.0,0.0,0.0,0.0,0.0,0.0,0.0,0.0,0.0,0.0,0.0,0.0,0.0,0.0,0.0,0.0,0.0,0.0,0.0,0.0,0.0,0.0,0.0,0.0,0.0,0.0,0.0,0.0,0.0,0.0,0.0,0.0,0.0,0.0,0.0,0.0,0.0,0.0,0.0,0.0,0.0,0.0,0.0,0.0,0.0,0.0,0.0,0.0,0.0,0.0,0.0,0.0,0.0,0.0,0.0,0.0,0.0,0.0,0.0,0.0,0.0,0.0,0.0,0.0,0.0,0.0,0.0,0.0,0.0,0.0,0.0,0.0,0.0,0.0,0.0,0.0,0.0,0.0,0.0,0.0,0.0,0.0,0.0,0.0,0.0,0.0,0.0,0.0,0.0,0.0,0.0,0.0,0.0,0.0,0.0,0.0,0.0,0.0,0.0,0.0,0.0,0.0,0.0,0.0,0.0,0.0,0.0,0.0,0.0,0.0,0.0,0.0,0.0,0.0,0.0,0.0,0.0,0.0,0.0,0.0,0.0,0.0,0.0,0.0,0.0,0.0,0.0,0.0,0.0,0.0,0.0,0.0,0.0,0.0,0.0,0.0,0.0,0.0,0.0,0.0,0.0,0.0,0.0,0.0,0.0,0.0,0.0,0.0,0.0,0.0,0.0,0.0,0.0,0.0,0.0,0.0,0.0,0.0,0.0,0.0,0.0,0.0,0.0,0.0,0.0,0.0,0.0,0.0,0.0,0.0,0.0,0.0,0.0,0.0,0.0,0.0,0.0,0.0,0.0,0.0,0.0,0.0,0.0,0.0,0.0,0.0,0.0,0.0,0.0,0.0,0.0,0.0,0.0,0.0,0.0,0.0,0.0,0.0,0.0,0.0,0.0,0.0,0.0,0.0,0.0,0.0,0.0,0.0,0.0,0.0,0.0,0.0,0.0,0.0,0.0,0.0,0.0,0.0,0.0,0.0,0.0,0.0,0.0,0.0,0.0,0.0,0.0,0.0,0.0,0.0,0.0,0.0,0.0,0.0,0.0,0.0,0.0,0.0,0.0,0.0,0.0,0.0,0.0,0.0,0.0,0.0,0.0,0.0,0.0,0.0,0.0,0.0,0.0,0.0,0.0,0.0,0.0,0.0,0.0,0.0,0.0,0.0,0.0,0.0,0.0,0.0,0.0,0.0,0.0,0.0,0.0,0.0,0.0,0.0,0.0,0.0,0.0,0.0,0.0,0.0,0.0,0.0,0.0,0.0,0.0,0.0,0.0,0.0,0.0,0.0,0.0,0.0,0.0,0.0,0.0,0.0,0.0,0.0,0.0,0.0,0.0,0.0,0.0,0.0,0.0,0.0,0.0,0.0,0.0,0.0,0.0,0.0,0.0,0.0,0.0,0.0,0.0,0.0,0.0,0.0,0.0,0.0,0.0,0.0,0.0,0.0,0.0,0.0,0.0,0.0,0.0,0.0,0.0,0.0,0.0,0.0,0.0,0.0,0.0,0.0,0.0,0.0,0.0,0.0,0.0,1.3999,0.0,0.0,0.0,0.0,0.0,0.0,0.0,0.0,0.0,0.0,0.0,0.0,0.0,0.0,0.0,0.0,0.0,0.0,0.0,0.0,0.0,0.0,0.0,0.0,0.0,0.0,0.0,0.0,0.0,0.0,0.0,0.0,0.0,0.0,0.0,0.0,0.0,-0.2722,-0.0942,-0.0311,0.0,0.0,0.0,0.0,0.0,0.0,0.0,0.0,0.0,0.0,0.0,0.0,0.0,0.0,0.0,0.0,0.0,0.0,0.0,0.0,0.0,0.0,0.0,0.0,0.0,0.0,0.0,0.0,0.0,0.0,0.0,0.0,0.0,0.0,0.0,0.0,0.0,0.0,0.0,0.0,0.0,0.0,0.0,0.0,0.0,0.0,0.0,0.0,0.0,0.0,0.0,0.0,0.0,0.0,0.0,0.0,0.0,0.0,0.0,0.0,0.0,0.0,0.0,0.0,0.0,0.0,0.0,0.0,0.0,0.0,0.0,0.0,0.0,0.0,0.0,0.0,1.4201,0.0,0.0,0.0,0.0,0.0,0.0,0.0,0.0,0.0,0.0,0.0,0.0,0.0,0.0,0.0,0.0,0.0,0.0,0.0,0.0,0.0,0.0,0.0,-0.7095,-0.7095,-0.7095,-0.7095,-0.7085,0.0,0.0,0.0,0.0,0.0,-0.6046,-0.3906,-0.3662,-0.2493,-0.0313,-0.011,0.0,0.0,0.0,0.0,0.0,0.0,0.0,0.0,0.0,0.0,0.0,0.0,0.0,0.0,0.0,0.0,0.0,0.0,0.0,0.0,0.0,0.0,0.0,0.0,0.0,0.0,0.0,0.0,0.0,0.0,0.0,0.0,0.0,0.0,0.0,0.0,0.0,0.0,0.0,0.0,0.0,0.0,0.0,0.0,0.0,0.0,0.0,0.0,0.0,0.0,0.0,0.0,0.0,0.0,0.0,0.0,0.0,0.0,0.0,0.0,0.0,0.0,0.0,0.0,0.0,0.0,0.0,0.0,0.0,1.4609,1.4727,1.4734,1.5003,1.514,1.512,1.4803,1.495,1.5357,1.4854,0.0,0.0,0.0,0.0,0.0,0.0,0.0,0.0,0.0,0.0,0.0,0.0,0.0,0.0,0.0,0.0,0.0,0.0,0.0,0.0,0.0,-0.7095,-0.7095,-0.7095,-0.7095,-0.7045,-0.6941,0.0,-0.6877,-0.6763,-0.6759,-0.6164,-0.4935,-0.3927,-0.282,-0.1567,-0.051,0.0,0.0,0.0,0.0,0.0,0.0,0.0,0.0,0.0,0.0,0.0,0.0,0.0,0.0,0.0,0.0,0.0,0.0,0.0,0.0,0.0,0.0,0.0,0.0,0.0,0.0,0.0,0.0,0.0,0.0,0.0,0.0,0.0,0.0,0.0,0.0,0.0,0.0,0.0,0.0,0.0,0.0,0.0,0.0,0.0,0.0,0.0,0.0,0.0,0.6566,0.6658,0.0,0.0,0.0,0.0,0.0,0.0,0.0,0.0,0.0,0.0,0.0,0.0,0.0,1.4381,1.4381,1.495,1.5224,1.5231,1.5495,1.5635,1.5635,1.5675,1.5688,1.5675,1.5404,0.0,1.5391,1.5311,0.0,0.0,0.0,0.0,0.0,0.0,0.0,0.0,0.0,0.0,0.0,0.0,0.0,0.0,0.0,0.0,0.0,0.0,0.0,0.0,0.0,-0.7048,-0.7095,-0.7095,-0.7095,-0.7038,-0.6918,-0.6908,-0.684,-0.6709,-0.6132,-0.5272,-0.4122,-0.3045,-0.1949,-0.0782,-0.0267,0.0,0.0,0.0,0.0,0.0,0.0,0.0,0.0,0.0,0.0,0.0,0.0,0.0,0.0,0.0,0.0,0.0,0.0,0.0,0.0,0.0,0.0,0.0,0.0,0.0,0.0,0.0,0.0,0.0,0.0,0.0,0.0,0.0,0.0,0.0,0.0,0.0,0.0,0.0,0.0,0.0,0.0,0.0,0.0,0.0,0.0,0.0,0.0,0.6675,0.6783,0.6911,0.7875,0.8726,0.0,0.0,0.0,0.0,0.0,0.0,0.0,0.0,0.0,1.4591,1.4863,1.501,1.501,1.5431,1.5615,1.5621,1.5741,1.5808,1.5808,1.5808,1.5808,1.5795,1.5675,1.5615,1.5601,1.5464,1.5398,1.5371,0.0,0.0,0.0,0.0,1.535,1.6227,0.0,0.0,0.0,0.0,0.0,0.0,0.0,0.0,0.0,0.0,0.0,0.0,-0.6955,-0.7034,-0.7095,-0.7095,-0.7095,-0.7038,-0.6918,-0.687,-0.6674,-0.6256,-0.5445,-0.4337,-0.2904,-0.1856,-0.0894,0.0,0.0,0.0,0.0,0.0,0.0,0.0,0.0,0.0,0.0,0.0,0.0,0.0,0.0,0.0,0.0,0.0,0.0,0.0,0.0,0.0,0.0,0.0,0.0,0.0,0.0,0.0,0.0,0.0,0.0,0.0,0.0,0.0,0.0,0.0,0.0,0.0,0.0,0.0,0.0,0.0,0.0,0.0,0.0,0.0,0.0,0.0,0.0,0.0,0.0,0.7162,0.7509,0.7642,0.8329,0.9061,0.0,0.0,0.0,0.0,0.0,0.0,1.473,1.4721,1.4877,1.52,1.5391,1.5504,1.5504,1.5695,1.5808,1.5808,1.5808,1.5808,1.5808,1.5808,1.5808,1.5808,1.5808,1.5808,1.5788,1.5568,1.5504,1.5504,1.5424,1.5287,1.5086,1.5035,1.555,1.618,0.0,0.0,0.0,0.0,0.0,0.0,0.0,0.0,0.0,0.0,0.0,-0.6958,-0.7071,-0.7092,-0.7095,-0.7095,-0.7095,-0.7038,-0.6918,-0.6772,-0.6188,-0.5033,-0.4821,-0.3765,-0.173,-0.0638,-0.0065,0.0,0.0,0.0,0.0,0.0,0.0,0.0,0.0,0.0,0.0,0.0,0.0,0.0,0.0,0.0,0.0,0.0,0.0,0.0,0.0,0.0,0.0,0.0,0.0,0.0,0.0,0.0,0.0,0.0,0.0,0.0,0.0,0.0,0.0,0.0,0.0,0.0,0.0,0.0,0.0,0.0,0.0,0.0,0.0,0.0,0.0,0.0,0.0,0.0,0.0,0.0,0.0,0.9172,1.1653,0.0,0.0,0.0,0.0,1.4872,1.491,1.5066,1.5337,1.5351,1.5484,1.5748,1.5775,1.5781,1.5781,1.5795,1.5808,1.5808,1.5808,1.5808,1.5808,1.5808,1.5808,1.5808,1.5808,1.5808,1.5808,1.5788,1.5781,1.5755,1.5504,1.5391,1.5344,1.5086,1.5205,1.544,0.0,0.0,0.0,0.0,0.0,0.0,0.0,0.0,-0.6634,-0.6634,-0.6722,-0.6779,-0.683,-0.7006,-0.7095,-0.7095,-0.7095,-0.7038,-0.6918,-0.6762,-0.6466,-0.5953,-0.4474,-0.2698,-0.0608,-0.0195,0.0,0.0,0.0,0.0,0.0,0.0,0.0,0.0,0.0,0.0,0.0,0.0,0.0,0.0,0.0,0.0,0.0,0.0,0.0,0.0,0.0,0.0,0.0,0.0,0.0,0.0,0.0,0.0,0.0,0.0,0.0,0.0,0.0,0.0,0.0,0.0,0.0,0.0,0.0,0.0,0.0,0.0,0.0,0.0,0.0,0.0,0.0,0.0,0.0,0.0,0.0,0.0,0.0,0.9668,1.1276,0.0,1.3275,1.392,1.4577,1.5205,1.5418,1.5565,1.5648,1.5648,1.5695,1.5801,1.6012,1.6112,1.6112,1.6299,1.6393,1.6393,1.6393,1.6393,1.6393,1.6393,1.6393,1.6393,1.6393,1.6393,1.6393,1.6393,1.6142,1.5795,1.5688,1.5792,1.5969,1.5869,1.6016,1.6239,0.0,0.0,0.0,0.0,0.0,0.0,0.0,0.0,-0.6627,-0.6627,-0.6715,-0.6797,-0.6823,-0.6999,-0.7095,-0.7095,-0.7095,-0.7055,-0.6964,-0.684,-0.6396,-0.555,-0.3292,-0.1399,-0.0022,0.0,0.0,0.0,0.0,0.0,0.0,0.0,0.0,0.0,0.0,0.0,0.0,0.0,0.0,0.0,0.0,0.0,0.0,0.0,0.0,0.0,0.0,0.0,0.0,0.0,0.0,0.0,0.0,0.0,0.0,0.0,0.0,0.0,0.0,0.0,0.0,0.0,0.0,0.0,0.0,0.0,0.0,0.0,0.0,0.0,0.0,0.0,0.0,0.0,0.0,0.0,0.0,0.0,1.1043,1.0512,1.2004,1.3384,1.4143,1.4326,1.4731,1.5468,1.5788,1.5979,1.5979,1.6048,1.6102,1.6102,1.6319,1.6444,1.6444,1.6607,1.6707,1.6707,1.6707,1.6707,1.6707,1.6707,1.6653,1.6567,1.666,1.6653,1.6567,1.6667,1.6448,1.6102,1.6102,1.6246,1.6444,1.6444,1.654,1.6707,0.0,0.0,0.0,0.0,0.0,0.0,0.0,-0.6904,-0.6901,-0.6908,-0.6911,-0.6968,-0.7088,-0.7105,-0.7109,-0.7109,-0.7109,-0.7109,-0.7102,-0.697,-0.5914,-0.3685,-0.1325,-0.0044,0.0,0.0,0.0,0.0,0.0,0.0,0.0,0.0,0.0,0.0,0.0,0.0,0.0,0.0,0.0,0.0,0.0,0.0,0.0,0.0,0.0,0.0,0.0,0.0,0.0,0.0,0.0,0.0,0.0,0.0,0.0,0.0,0.0,0.0,0.0,0.0,0.0,0.0,0.0,0.0,0.0,0.0,0.0,0.0,0.0,0.0,0.0,0.0,0.0,0.0,0.0,0.0,0.7635,0.9952,1.1753,1.1758,1.4141,1.5808,1.5821,1.5821,1.5821,1.5828,1.6126,1.631,1.631,1.6547,1.6693,1.6693,1.67,1.6707,1.6707,1.6727,1.6734,1.6734,1.6734,1.6734,1.6734,1.6734,1.658,1.6357,1.6613,1.6573,1.6357,1.6613,1.6734,1.6734,1.6714,1.6714,1.672,1.672,1.6727,1.6734,0.0,0.0,0.0,0.0,0.0,0.0,-0.7051,-0.688,-0.6782,-0.6894,-0.6974,-0.7117,-0.7292,-0.7407,-0.7475,-0.7475,-0.7475,-0.7428,-0.7316,-0.7144,-0.5975,-0.3568,-0.1974,-0.0793,-0.0024,0.0,0.0,0.0,0.0,0.0,0.0,0.0,0.0,0.0,0.0,0.0,0.0,0.0,0.0,0.0,0.0,0.0,0.0,0.0,0.0,0.0,0.0,0.0,0.0,0.0,0.0,0.0,0.0,0.0,0.0,0.0,0.0,0.0,0.0,0.0,0.0,0.0,0.0,0.0,0.0,0.0,0.0,0.0,0.0,0.0,0.0,0.0,0.0,0.0,0.8633,0.9492,0.919,1.1338,1.3015,1.3267,1.4786,1.5888,1.6126,1.6152,1.6239,1.6453,1.654,1.6587,1.6587,1.6491,1.6417,1.6417,1.66,1.6707,1.6707,1.7128,1.7341,1.7341,1.7341,1.7341,1.7341,1.7341,1.7295,1.7254,1.7334,1.7321,1.7254,1.7308,1.7341,1.7295,1.6874,1.684,1.7053,1.7053,1.7187,1.7315,0.0,0.0,0.0,0.0,0.0,0.0,-0.7225,-0.7016,-0.6918,-0.7095,-0.7187,-0.7295,-0.7474,-0.7546,-0.76,-0.76,-0.76,-0.7536,-0.7406,-0.628,-0.4761,-0.281,-0.1582,-0.0641,-0.0025,0.0,0.0,0.0,0.0,0.0,0.0,0.0,0.0,0.0,0.0,0.0,0.0,0.0,0.0,0.0,0.0,0.0,0.0,0.0,0.0,0.0,0.0,0.0,0.0,0.0,0.0,0.0,0.0,0.0,0.0,0.0,0.0,0.0,0.0,0.0,0.0,0.0,0.0,0.0,0.0,0.0,0.0,0.0,0.0,0.0,0.0,0.0,0.0,0.0,0.8313,0.9413,1.0701,1.2451,1.3529,1.3303,1.4879,1.6132,1.6451,1.6478,1.6526,1.6693,1.682,1.6919,1.6919,1.6872,1.6792,1.6672,1.6946,1.7014,1.6919,1.7374,1.7608,1.7608,1.7608,1.7608,1.7608,1.7608,1.7541,1.7434,1.7555,1.7541,1.7434,1.7555,1.7608,0.0,0.0,0.0,0.0,0.0,1.7468,1.7582,0.0,0.0,0.0,0.0,0.0,0.0,-0.7416,-0.7255,-0.7198,-0.7399,-0.7433,-0.7502,-0.7634,-0.7648,-0.7648,-0.7648,-0.7634,-0.751,-0.7217,-0.4816,-0.2909,-0.1859,-0.0639,0.0,0.0,0.0,0.0,0.0,0.0,0.0,0.0,0.0,0.0,0.0,0.0,0.0,0.0,0.0,0.0,0.0,0.0,0.0,0.0,0.0,0.0,0.0,0.0,0.0,0.0,0.0,0.0,0.0,0.0,0.0,0.0,0.0,0.0,0.0,0.0,0.0,0.0,0.0,0.0,0.0,0.0,0.0,0.0,0.0,0.0,0.0,0.0,0.0,0.0,0.0,0.7876,0.9022,1.18,1.321,1.3708,1.2968,1.4943,1.6458,1.6727,1.676,1.6767,1.68,1.7073,1.7253,1.7253,0.0,0.0,0.0,0.0,1.7434,1.7206,1.7468,1.7608,1.7608,1.7608,1.7608,1.7608,1.7608,1.7468,1.7266,1.7495,1.7461,1.7266,1.7501,1.7608,1.7608,1.7608,1.7608,1.7608,1.7575,1.7582,1.7608,0.0,0.0,0.0,0.0,0.0,0.0,-0.7416,-0.7369,-0.7403,-0.7536,-0.7655,-0.7784,-0.7912,-0.7929,-0.7929,-0.7929,-0.7817,-0.7246,-0.6016,-0.3555,-0.2045,-0.181,-0.0647,0.0,0.0,0.0,0.0,0.0,0.0,0.0,0.0,0.0,0.0,0.0,0.0,0.0,0.0,0.0,0.0,0.0,0.0,0.0,0.0,0.0,0.0,0.0,0.0,0.0,0.0,0.0,0.0,0.0193,0.1276,0.2456,0.0,0.0,0.0,0.0,0.0,0.0,0.0,0.0,0.0,0.0,0.0,0.0,0.0,0.0,0.0,0.0,0.0,0.0,0.0,0.7767,0.8871,0.9983,1.0688,1.2919,1.48,1.577,1.6314,1.6765,1.706,1.7086,1.7187,1.7421,1.7495,1.7528,1.7528,1.738,1.7259,1.7199,1.7253,1.7259,1.7199,1.7468,1.7608,1.7608,0.0,0.0,1.7608,1.7608,1.7582,1.7528,1.7582,1.7575,1.7528,1.7588,1.7608,1.7608,1.7608,1.7608,1.7582,1.7373,1.7408,1.7575,0.0,0.0,0.0,0.0,0.0,0.0,-0.7508,-0.7356,-0.7309,-0.7488,-0.7546,-0.7675,-0.7875,-0.7837,-0.7824,-0.7895,-0.7175,-0.6133,-0.4788,-0.289,-0.1519,-0.0919,-0.0329,0.0,0.0,0.0,0.0,0.0,0.0,0.0,0.0,0.0,0.0,0.0,0.0,0.0,0.0,0.0,0.0,0.0,0.0,0.0,0.0,0.0,0.0,0.0,0.0,0.0,0.0,0.0,0.0,0.0124,0.0796,0.1874,0.3116,0.0,0.0,0.0,0.0,0.0,0.0,0.0,0.0,0.0,0.0,0.0,0.0,0.0,0.0,0.76,0.76,0.0,0.7753,0.7875,0.92,1.0297,1.0608,1.3086,1.5167,1.5864,1.654,1.7073,1.7361,1.7394,1.7454,1.7595,1.7608,1.7608,1.7608,1.7468,1.7353,1.7206,1.734,1.7347,1.7199,1.7468,1.7608,1.7608,1.7608,1.7608,1.7608,1.7608,1.7608,1.7608,1.7608,1.7608,1.7608,1.7608,1.7608,1.7608,1.7608,1.7608,1.7588,1.7448,1.7481,1.7588,0.0,0.0,0.0,0.0,0.0,0.0,0.0,-0.7347,-0.7242,-0.7382,-0.742,-0.7529,-0.7743,-0.7668,-0.7634,-0.7719,-0.6205,-0.4821,-0.3834,-0.232,-0.1014,-0.005,0.0,0.0,0.0,0.0,0.0,0.0,0.0,0.0,0.0,0.0,0.0,0.0,0.0,0.0,0.0,0.0,0.0,0.0,0.0,0.0,0.0,0.0,0.0,0.0,0.0,0.0,0.0,0.0,0.0,0.0051,0.0303,0.131,0.2598,0.3713,0.5065,0.0,0.0,0.0,0.0,0.0,0.0,0.0,0.0,0.0,0.7678,0.7648,0.7665,0.7685,0.7685,0.7709,0.7807,0.802,0.9093,1.0234,1.1177,1.3346,1.5045,1.56,1.6626,1.7354,1.7588,1.7608,1.7608,1.7608,1.7608,1.7608,1.7608,1.7642,1.7588,1.7354,1.7628,1.7668,1.7441,1.7668,1.7762,1.7782,1.7702,1.7669,1.7669,1.7609,1.7608,1.7608,1.7608,1.7608,1.7608,1.7608,1.7608,1.7608,1.7608,1.7608,1.7608,1.7608,1.7608,1.7608,0.0,0.0,0.0,0.0,0.0,0.0,0.0,0.0,-0.7506,-0.741,-0.7512,-0.7587,-0.7617,-0.7607,-0.755,-0.7454,-0.5335,-0.3896,-0.3642,-0.1479,-0.0148,0.0,0.0,0.0,0.0,0.0,0.0,0.0,0.0,0.0,0.0,0.0,0.0,0.0,0.0,0.0,0.0,0.0,0.0,0.0,0.0,0.0,0.0,0.0,0.0,0.0,0.0,0.0,0.0,0.0,0.0,0.0202,0.141,0.269,0.4,0.5214,0.6505,0.7551,0.7428,0.7285,0.7202,0.7386,0.7522,0.76,0.0,0.0,0.7925,0.7793,0.7871,0.7966,0.7966,0.8102,0.8233,0.8264,0.8593,0.9781,1.2389,1.3204,1.4463,1.7022,1.745,1.7575,1.7608,1.7608,1.7608,1.7608,1.7608,1.7608,1.7608,1.7816,1.7942,1.7923,1.8223,1.8377,1.8343,1.8377,1.839,1.8411,1.8096,1.7969,1.7962,1.7709,1.7608,1.7608,1.7608,1.7608,1.7608,1.7608,1.7608,1.7608,1.7608,1.7608,1.7608,1.7608,1.7608,1.7608,0.0,0.0,0.0,0.0,0.0,0.0,0.0,0.0,0.0,-0.7258,-0.7269,-0.7344,-0.7481,-0.7488,-0.7404,-0.7251,-0.5053,-0.3654,-0.3607,-0.1347,0.0,0.0,0.0,0.0,0.0,0.0,0.0,0.0,0.0,0.0,0.0,0.0,0.0,0.0,0.0,0.0,0.0,0.0,0.0,0.0,0.0,0.0,0.0,0.0,0.0,0.0,0.0,0.0,0.0,0.0,0.0,0.01,0.0653,0.17,0.2965,0.426,0.5521,0.667,0.7323,0.7516,0.7523,0.7611,0.7743,0.7831,0.7831,0.7925,0.8023,0.8072,0.813,0.8201,0.8282,0.8308,0.8352,0.0,0.929,1.0353,1.1702,1.3419,1.4963,1.6174,1.6951,1.738,1.738,1.7508,1.7541,1.7367,1.7655,1.7829,1.7829,1.8116,1.8303,1.829,1.8424,1.849,1.849,1.849,1.849,1.849,1.8364,1.8276,1.8303,1.817,1.8016,1.7816,1.7662,1.7608,1.7608,1.7608,1.7608,1.7608,1.7608,1.7608,1.7608,1.7608,1.7608,1.7608,0.0,0.0,0.0,0.0,0.0,0.0,0.0,0.0,0.0,0.0,-0.7154,-0.7208,-0.7299,-0.7309,-0.7261,-0.7105,-0.5304,-0.3984,-0.363,-0.1677,-0.0379,-0.0025,0.0,0.0,0.0,0.0,0.0,0.0,0.0,0.0,0.0,0.0,0.0,0.0,0.0,0.0,0.0,0.0,0.0,0.0,0.0,0.0,0.0,0.0,0.0,0.0,0.0,0.0,0.0,0.0,0.0,0.0,0.0,0.1086,0.2542,0.3521,0.4897,0.631,0.7325,0.7645,0.7709,0.779,0.7868,0.7976,0.806,0.8077,0.8147,0.8325,0.8355,0.8386,0.8488,0.8457,0.8462,0.8676,0.9553,1.0566,1.1579,1.3156,1.4641,1.5753,1.6321,1.669,1.6921,1.7274,1.7468,1.7428,1.7776,1.8029,1.8136,1.845,1.8611,1.8611,1.8691,1.8759,1.8759,1.8759,1.8759,1.8759,1.8651,1.8611,1.8604,1.8524,1.833,1.7975,1.7782,1.7662,1.7608,1.7608,1.7608,1.7608,1.7608,1.7608,1.7608,1.7608,1.7608,1.7608,0.0,0.0,0.0,0.0,0.0,0.0,0.0,0.0,0.0,0.0,0.0,0.0,0.0,-0.7102,-0.7102,-0.7095,-0.6135,-0.4978,-0.3678,-0.2561,-0.136,-0.005,0.0,0.0,0.0,0.0,0.0,0.0,0.0,0.0,0.0,0.0,0.0,0.0,0.0,0.0,0.0,0.0,0.0,0.0,0.0,0.0,0.0,0.0,0.0,0.0,0.0,0.0,0.0,0.0,0.0,0.0,0.0,0.1713,0.3751,0.3798,0.5477,0.7388,0.756,0.7519,0.7478,0.774,0.7814,0.7896,0.8223,0.8287,0.8328,0.8471,0.8502,0.8502,0.8509,0.8601,0.8699,0.871,0.8832,0.9959,1.2832,1.2077,1.2705,1.6665,1.5916,1.5386,0.0,1.6852,1.7428,1.7949,1.7982,1.8143,1.8464,1.8751,1.8883,1.8883,1.9192,1.9368,1.9368,1.9368,1.9368,1.9368,1.9052,1.8883,1.8876,1.8617,1.833,1.7995,1.7982,1.7836,1.7608,1.7608,1.7608,1.7608,1.7608,1.7608,1.7608,1.7608,1.7608,1.7608,0.0,0.0,0.0,0.0,0.0,0.0,0.0,0.0,0.0,0.0,0.0,0.0,0.0,0.0,0.0,0.0,-0.6088,-0.4934,-0.3674,-0.2508,-0.1319,-0.005,0.0,0.0,0.0,0.0,0.0,0.0,0.0,0.0,0.0,0.0,0.0,0.0,0.0,0.0,0.0,0.0,0.0,0.0,0.0,0.0,0.0,0.0,0.0,0.0,0.0,0.0,0.0,0.0,0.0,0.0142,0.0951,0.2342,0.3978,0.5522,0.6729,0.7512,0.7485,0.7553,0.7709,0.7888,0.8041,0.8192,0.8393,0.8437,0.8481,0.8604,0.8554,0.8539,0.8615,0.8594,0.8591,0.8696,0.8669,0.9394,1.153,1.126,1.2111,1.5581,1.5325,0.0,0.0,0.0,0.0,1.7474,1.8183,1.8643,1.8771,1.9058,1.9219,1.9219,1.9348,1.9395,1.9395,1.9395,1.9395,1.9395,1.9294,1.9219,1.9205,1.8911,1.8696,1.8576,1.8162,1.7962,1.7849,1.7669,1.7608,1.7608,1.7608,1.7608,1.7608,1.7608,1.7608,1.7733,0.0,0.0,0.0,0.0,0.0,0.0,0.0,0.0,0.0,0.0,0.0,0.0,0.0,0.0,0.0,0.0,0.0,-0.4993,-0.3683,-0.2515,-0.1318,-0.0049,0.0,0.0,0.0,0.0,0.0,0.0,0.0,0.0,0.0,0.0,0.0,0.0,0.0,0.0,0.0,0.0,0.0,0.0,0.0,0.0,0.0,0.0,0.0,0.0,0.0,0.0,0.0,0.0,0.0,0.0208,0.1418,0.2927,0.4645,0.6682,0.7404,0.7542,0.7549,0.7706,0.7905,0.806,0.8235,0.841,0.853,0.8564,0.8608,0.8733,0.8713,0.8659,0.8703,0.8628,0.8598,0.8696,0.8628,0.9149,1.0849,1.0952,1.1936,1.4903,1.504,1.5542,0.0,0.0,0.0,1.7508,1.8277,1.879,1.889,1.9105,1.9287,1.9395,1.9395,1.9395,1.9395,1.9395,1.9395,1.9395,1.9395,1.9395,1.9388,1.9165,1.8971,1.8751,1.8449,1.8216,1.7975,1.7802,1.7749,1.7736,1.7648,1.7608,1.7608,1.7608,1.7608,1.7707,0.0,0.0,0.0,0.0,0.0,0.0,0.0,0.0,0.0,0.0,0.0,0.0,0.0,0.0,0.0,0.0,0.0,0.0,-0.3715,-0.2657,-0.1476,-0.0071,0.0,0.0,0.0,0.0,0.0,0.0,0.0,0.0,0.0,0.0,0.0,0.0,0.0,0.0,0.0,0.0,0.0,0.0,0.0,0.0,0.0,0.0,0.0,0.0,0.0,0.0,0.0,0.0,0.0091,0.0415,0.1626,0.3607,0.5779,0.7177,0.7519,0.7478,0.7736,0.7905,0.8067,0.8277,0.842,0.8533,0.8686,0.8723,0.8733,0.8872,0.8892,0.8841,0.0,0.0,0.8679,0.8696,0.8693,0.9223,1.0767,1.103,1.2035,0.0,0.0,0.0,0.0,0.0,0.0,1.8042,0.0,1.8657,1.8903,1.8916,1.9078,1.9388,1.9395,1.9395,1.9395,1.9395,1.9395,1.9395,1.9395,1.9395,1.9395,1.9395,1.9093,1.8551,1.8811,1.8576,1.8035,1.8022,1.8009,1.7962,1.7722,1.7622,1.7608,1.7608,1.7635,1.7707,0.0,0.0,0.0,0.0,0.0,0.0,0.0,0.0,0.0,0.0,0.0,0.0,0.0,0.0,0.0,0.0,0.0,0.0,-0.3886,-0.3504,-0.2353,-0.0095,0.0,0.0,0.0,0.0,0.0,0.0,0.0,0.0,0.0,0.0,0.0,0.0,0.0,0.0,0.0,0.0,0.0,0.0,0.0,0.0,0.0,0.0,0.0,0.0,0.0,0.0,0.0,0.0,0.1272,0.3069,0.4376,0.5818,0.7102,0.7369,0.7556,0.7716,0.779,0.8007,0.8272,0.8533,0.8625,0.8693,0.8818,0.8852,0.8831,0.8757,0.8676,0.8554,0.0,0.0,0.0,0.8506,0.8478,0.0,0.9239,1.0169,0.0,1.3278,0.0,1.6056,1.7636,1.8323,0.0,0.0,1.8879,1.9207,1.9281,1.9281,1.9321,1.9395,1.9395,1.9395,1.9395,1.9395,1.9395,1.9395,1.9395,1.9395,1.9395,1.9395,1.9314,1.9167,1.8985,1.881,1.8656,1.8436,1.8223,1.7982,1.7936,1.7789,1.7608,1.7608,1.8225,1.9091,0.0,0.0,0.0,0.0,0.0,0.0,0.0,0.0,0.0,0.0,0.0,0.0,0.0,0.0,0.0,0.0,0.0,0.0,0.0,-0.3302,-0.2108,-0.0094,0.0,0.0,0.0,0.0,0.0,0.0,0.0,0.0,0.0,0.0,0.0,0.0,0.0,0.0,0.0,0.0,0.0,0.0,0.0,0.0,0.0,0.0,0.0,0.0,0.0,0.0337,0.0878,0.1526,0.3014,0.4744,0.5618,0.6664,0.7607,0.7651,0.778,0.7902,0.7994,0.8231,0.8503,0.8669,0.8733,0.8787,0.8808,0.8811,0.8767,0.8642,0.854,0.8464,0.8321,0.8201,0.8214,0.0,0.0,0.0,0.9472,1.076,1.219,0.0,1.5423,0.0,1.8115,1.8623,1.8911,1.8906,1.9058,1.9172,1.9172,1.9172,1.9261,1.9395,1.9395,1.9395,1.9395,1.9395,1.9395,1.9395,1.9395,1.9395,1.9395,1.9395,1.9328,1.9172,1.9132,1.9045,1.8883,1.8744,1.8556,1.8389,1.8263,1.8136,1.8043,1.8528,1.9177,1.9978,0.0,0.0,0.0,0.0,0.0,0.0,0.0,0.0,0.0,0.0,0.0,0.0,0.0,0.0,0.0,0.0,0.0,0.0,0.0,0.0,-0.1397,-0.007,0.0,0.0,0.0,0.0,0.0,0.0,0.0,0.0,0.0,0.0,0.0,0.0,0.0,0.0,0.0,0.0,0.0,0.0,0.0,0.0,0.0,0.0,0.0,0.0,0.0,0.0899,0.2265,0.3564,0.4737,0.5706,0.6128,0.6909,0.7709,0.7939,0.803,0.8077,0.8281,0.8499,0.8716,0.8733,0.8814,0.8875,0.8743,0.8723,0.8665,0.8539,0.8495,0.8444,0.8318,0.8298,0.8342,0.8485,0.0,0.9197,1.0451,1.2058,1.3551,1.4833,1.6558,1.7869,1.8437,1.8751,1.9045,1.9374,1.9125,1.8985,1.8985,1.8985,1.9098,1.9388,1.9395,1.9395,1.9395,1.9395,1.9395,1.9395,1.9395,1.9395,1.9395,1.9395,1.9225,1.897,1.9259,1.9247,1.8985,1.8985,1.893,1.887,1.8644,1.8524,1.8644,1.9772,2.0294,2.077,0.0,0.0,0.0,0.0,0.0,0.0,0.0,0.0,0.0,0.0,-0.7935,0.0,0.0,0.0,0.0,0.0,0.0,0.0,0.0,0.0,0.0,-0.0047,0.0,0.0,0.0,0.0,0.0,0.0,0.0,0.0,0.0,0.0,0.0,0.0,0.0,0.0,0.0,0.0,0.0,0.0,0.0,0.0,0.0,0.0,0.0,0.0,0.0,0.1495,0.352,0.3878,0.4793,0.5986,0.7263,0.7783,0.7949,0.7975,0.813,0.8287,0.8434,0.8574,0.874,0.8838,0.8892,0.8902,0.8879,0.8774,0.0,0.8539,0.8413,0.8325,0.8301,0.8298,0.8342,0.8485,0.9388,1.0117,1.0276,1.2802,1.4668,0.0,1.6674,1.8076,1.8457,1.8751,0.0,0.0,1.9348,1.9321,1.9321,1.9321,1.9348,1.9395,1.9395,1.9395,1.9395,1.9395,1.9395,1.9395,1.9395,1.9395,1.9395,1.9395,1.9368,1.9321,1.9374,0.0,1.9321,1.9321,1.9145,1.889,1.8843,1.8704,1.8671,2.0073,2.1298,2.2482,0.0,0.0,0.0,0.0,0.0,0.0,0.0,0.0,0.0,-0.7723,-0.7743,-0.7814,0.0,0.0,0.0,0.0,0.0,0.0,0.0,0.0,0.0,0.0,0.0,0.0,0.0,0.0,0.0,0.0,0.0,0.0,0.0,0.0,0.0,0.0,0.0,0.0,0.0,0.0,0.0,0.0,0.0,0.0,0.0,0.0,0.0,0.0,0.0,0.2136,0.3711,0.3852,0.5171,0.6881,0.7722,0.7988,0.7988,0.7988,0.8201,0.842,0.8492,0.8652,0.8821,0.8892,0.8912,0.8869,0.8737,0.0,0.0,0.8299,0.8197,0.815,0.815,0.815,0.8225,0.8471,0.9667,1.0802,1.1453,1.3548,1.5253,1.596,1.7199,1.8063,1.8216,1.8636,1.8985,1.9125,1.9138,1.9234,1.9388,1.9395,1.9395,1.9395,1.9395,1.9395,1.9395,1.9395,1.9395,1.9395,1.9395,1.9395,1.9395,1.9395,1.9395,1.9395,1.9395,1.9308,1.9152,1.9334,1.9192,1.891,1.9092,1.9565,2.0257,2.1525,2.2886,2.4279,0.0,0.0,0.0,0.0,0.0,0.0,0.0,-0.7811,-0.7746,-0.7573,-0.758,-0.7641,-0.7753,-0.7875,-0.7979,0.0,0.0,0.0,0.0,0.0,0.0,0.0,0.0,0.0,0.0,0.0,0.0,0.0,0.0,0.0,0.0,0.0,0.0,0.0,0.0,0.0,0.0,0.0,0.0,0.0,0.0,0.0,0.0,0.0,0.0,0.0,0.0,0.2817,0.3704,0.4059,0.5698,0.7641,0.7847,0.7942,0.7986,0.8081,0.8279,0.8485,0.8554,0.873,0.8912,0.8912,0.8912,0.8838,0.8594,0.8532,0.0,0.8118,0.8037,0.8027,0.8057,0.8064,0.8152,0.8464,0.9688,1.1087,1.2542,1.404,1.5526,1.7013,1.7662,0.0,1.8109,1.8589,0.0,1.9011,1.9018,1.9118,1.9388,1.9395,1.9395,1.9395,1.9395,1.9395,1.9395,1.9395,1.9395,1.9395,1.9395,1.9395,1.9395,1.9395,1.9395,1.9395,1.9395,1.9199,1.8916,1.9274,1.9192,1.8923,1.9281,2.0119,2.1307,2.2791,2.4056,2.5264,0.0,0.0,0.0,0.0,0.0,0.0,0.0,-0.7811,-0.7709,-0.7454,-0.7512,-0.7604,-0.7617,-0.7746,-0.7864,0.0,0.0,0.0,0.0,0.0,0.0,0.0,0.0,0.0,0.0,0.0,0.0,0.0,0.0,0.0,0.0,0.0,0.0,0.0,0.0,0.0,0.0,0.0,0.0,0.0,0.0,0.0,0.0,0.0,0.0,0.0,0.0,0.3576,0.3952,0.5053,0.6409,0.7604,0.7631,0.7729,0.7913,0.8319,0.0,0.0,0.8757,0.8889,0.8912,0.8912,0.8912,0.8869,0.8726,0.0,0.8464,0.8308,0.8136,0.8057,0.8247,0.8274,0.8325,0.8485,0.9484,1.0806,1.2387,1.3882,1.5414,1.7012,0.0,0.0,1.8424,1.871,1.9038,1.9334,1.9354,1.9368,1.9395,1.9395,1.9395,1.9395,1.9395,1.9395,1.9395,1.9395,1.9395,1.9395,1.9395,1.9395,1.9395,1.9395,1.9395,1.9395,1.9395,1.9199,0.0,1.9274,1.9192,1.8923,1.9281,1.9482,1.9953,2.2734,2.3828,2.4355,0.0,0.0,0.0,0.0,0.0,0.0,0.0,-0.7811,-0.7706,-0.7433,-0.7447,-0.7485,-0.7485,-0.7594,-0.7756,0.0,0.0,0.0,0.0,0.0,0.0,0.0,0.0,0.0,0.0,0.0,0.0,0.0,0.0,0.0,0.0,0.0,0.0,0.0,0.0,0.0,0.0,0.0,0.0,0.0,0.0,0.0,0.0,0.0,0.0,0.0,0.0,0.0,0.3863,0.5063,0.6372,0.7485,0.7485,0.7525,0.7634,0.8085,0.8241,0.8372,0.8706,0.8841,0.8912,0.8912,0.8912,0.8845,0.8628,0.0,0.844,0.818,0.8057,0.8033,0.8094,0.8108,0.818,0.8355,0.9462,1.0599,1.1451,1.282,1.4316,1.5931,1.6636,1.7289,0.0,0.0,1.8971,1.9092,1.9098,1.9178,1.9388,1.9395,1.9395,1.9395,1.9395,1.9395,1.9395,1.9395,1.9395,1.9395,1.9395,1.9395,1.9395,1.9395,1.9395,1.9395,1.9395,1.9127,0.0,1.9201,1.912,1.8711,1.9214,1.9953,2.0981,2.3047,2.4378,2.5489,0.0,0.0,0.0,0.0,0.0,0.0,-0.781,-0.7811,-0.7723,-0.7495,-0.7461,-0.7461,-0.7461,-0.7573,-0.7746,-0.7929,0.0,0.0,0.0,0.0,0.0,0.0,0.0,0.0,0.0,0.0,0.0,0.0,0.0,0.0,0.0,0.0,0.0,0.0,0.0,0.0,0.0,0.0,0.0,0.0,0.0,0.0,0.0,0.0,0.0,0.0,0.0,0.0,0.0,0.0,0.0,0.7302,0.7302,0.7302,0.7411,0.7925,0.8153,0.8286,0.8645,0.8828,0.8912,0.8912,0.8879,0.8777,0.0,0.0,0.8347,0.8067,0.7988,0.7988,0.7988,0.7988,0.8067,0.827,0.9122,1.0028,1.0748,1.1703,1.2906,1.4497,1.5621,1.6572,1.7426,1.8445,1.9052,1.9052,1.9052,1.9145,1.9388,1.9395,1.9395,1.9395,1.9395,1.9395,1.9395,1.9395,1.9395,1.9395,1.9395,1.9354,1.9267,1.9354,1.9348,1.9267,1.9361,1.9114,0.0,1.9187,1.91,1.8671,1.9201,2.0033,2.1116,2.2625,2.4128,2.5626,0.0,0.0,0.0,0.0,0.0,0.0,0.0,-0.7811,-0.776,-0.7614,-0.7597,-0.7597,-0.7597,-0.7726,-0.7811,-0.7814,0.0,0.0,0.0,0.0,0.0,0.0,0.0,0.0,0.0,0.0,0.0,0.0,0.0,0.0,0.0,0.0,0.0,0.0,0.0,0.0,0.0,0.0,0.0,0.0,0.0,0.0,0.0,0.0,0.0,0.0,0.0,0.0,0.0,0.0,0.0,0.0,0.0,0.7098,0.7269,0.807,0.816,0.8123,0.8747,0.8909,0.8912,0.8912,0.8798,0.8672,0.0,0.84,0.8253,0.8047,0.7988,0.7988,0.7988,0.7988,0.8067,0.827,0.8323,0.8878,1.0466,1.0724,1.131,1.2843,1.4849,1.617,1.6303,1.8186,1.9395,1.9395,1.9395,1.9395,1.9395,1.9395,1.9395,1.9395,1.9395,1.9395,1.9395,1.9395,1.9395,1.9395,1.9395,1.9241,1.891,1.9261,1.9205,1.8916,1.9267,1.9199,0.0,1.9267,1.9192,1.8923,1.9281,1.9395,1.9591,2.1088,2.2561,2.4044,0.0,0.0,0.0,0.0,0.0,0.0,0.0,-0.7942,-0.7888,-0.7763,-0.7743,-0.7706,-0.7611,-0.7726,-0.7811,-0.7811,0.0,0.0,0.0,0.0,0.0,0.0,0.0,0.0,0.0,0.0,0.0,0.0,0.0,0.0,0.0,0.0,0.0,0.0,0.0,0.0,0.0,0.0,0.0,0.0,0.0,0.0,0.0,0.0,0.0,0.0,0.0,0.0,0.0,0.0,0.0,0.0,0.0,0.0,0.0,0.7828,0.7923,0.7969,0.8492,0.8625,0.8625,0.8625,0.8591,0.8516,0.8396,0.8328,0.825,0.8047,0.7988,0.7988,0.7988,0.7988,0.8067,0.827,0.8298,0.8534,0.9231,1.0212,1.1433,1.3021,1.5878,1.7912,1.8355,1.8808,1.9152,1.9381,1.9178,1.9152,1.9388,1.9395,1.9395,1.9395,1.9395,1.9395,1.9395,1.9395,1.9395,1.9395,1.9395,1.9212,1.8903,1.9261,1.9234,1.891,1.9239,1.9199,1.8916,1.9274,1.9192,1.8923,1.9281,1.9395,1.9591,2.1059,2.254,2.4017,0.0,0.0,0.0,0.0,0.0,0.0,0.0,-0.7988,-0.7983,-0.7885,-0.7871,-0.7817,-0.7695,-0.7787,-0.7851,-0.7793,0.0,0.0,0.0,0.0,0.0,0.0,0.0,0.0,0.0,0.0,0.0,0.0,0.0,0.0,0.0,0.0,0.0,0.0,0.0,0.0,0.0,0.0,0.0,0.0,0.0,0.0,0.257,0.0,0.0,0.0,0.0,0.0,0.0,0.0,0.0,0.0,0.0,0.0,0.0,0.0,0.777,0.7909,0.8386,0.8509,0.8509,0.8509,0.8468,0.8406,0.8315,0.825,0.8157,0.8033,0.806,0.8084,0.8027,0.8064,0.814,0.8177,0.8304,0.8602,0.9249,1.013,1.1579,1.3879,1.625,1.8136,1.9283,1.9199,1.9165,1.9381,1.9199,1.9172,1.9388,1.9395,1.9395,1.9395,1.9395,1.9395,1.9395,1.9395,1.9395,1.9395,1.9395,1.9212,1.8903,1.9261,1.9234,1.891,1.9239,1.9294,0.0,1.9321,1.9287,1.9112,1.9321,1.9395,1.9504,2.0422,2.2068,2.3933,0.0,0.0,0.0,0.0,0.0,0.0,0.0,0.0,0.0,0.0,-0.7988,-0.7959,-0.7817,-0.7932,-0.7956,0.0,0.0,0.0,0.0,0.0,0.0,0.0,0.0,0.0,0.0,0.0,0.0,0.0,0.0,0.0,0.0,0.0,0.0,0.0,0.0,0.0,0.0,0.0,0.0,0.0,0.0,0.1456,0.0,0.0,0.0,0.0,0.0,0.0,0.0,0.0,0.0,0.0,0.0,0.0,0.0,0.0,0.0,0.0,0.0,0.8475,0.8475,0.8475,0.8376,0.8281,0.8281,0.8143,0.0,0.803,0.817,0.825,0.8057,0.818,0.826,0.8054,0.8296,0.8923,1.009,1.0458,1.1885,1.5317,1.6173,1.7243,1.9192,1.9388,1.9395,1.9395,1.9395,1.9395,1.9395,1.9395,1.9395,1.9395,1.9395,1.9395,1.9395,1.9395,1.9388,1.9368,1.9388,1.9199,1.8876,1.9254,1.9234,0.0,1.9239,1.9395,1.9395,1.9395,1.9395,1.9395,1.9395,1.9395,1.9395,1.9395,2.1266,2.3794,0.0,0.0,0.0,0.0,0.0,0.0,0.0,0.0,0.0,0.0,-0.7988,-0.7975,-0.7966,-0.7993,-0.7975,0.0,0.0,0.0,0.0,0.0,0.0,0.0,0.0,0.0,0.0,0.0,0.0,0.0,0.0,0.0,0.0,0.0,0.0,0.0,0.0,0.0,0.0,0.0,0.0,0.0,0.0,0.1456,0.0,0.0,0.0,0.0,0.5267,0.4843,0.0,0.0,0.0,0.0,0.0,0.0,0.0,0.0,0.776,0.7986,0.8088,0.0,0.8118,0.8118,0.8094,0.8071,0.0,0.804,0.8047,0.8194,0.827,0.8284,0.8247,0.8359,0.841,0.8267,0.8393,0.86,0.8897,1.1151,1.3859,1.6784,1.783,1.849,1.8983,1.9261,1.9395,1.9395,1.9395,1.9395,1.9395,1.9395,1.9395,1.9395,1.9395,1.9395,1.9395,1.9395,1.9281,1.9032,1.9287,1.9127,1.8611,1.916,1.9234,1.891,1.9239,1.9395,1.9395,1.9395,1.9395,1.9395,1.9395,1.9395,1.9395,1.9395,2.1266,2.3794,0.0,0.0,0.0,0.0,0.0,0.0,0.0,0.0,0.0,0.0,0.0,0.0,0.0,0.0,0.0,0.0,0.0,0.0,0.0,0.0,0.0,0.0,0.0,0.0,0.0,0.0,0.0,0.0,0.0,0.0,0.0,0.0,0.0,0.0,0.0,0.0,0.0,0.0,0.0,0.0,0.0,0.0,0.0,0.0,0.0,0.0,0.5556,0.5063,0.0,0.6312,0.7095,0.7095,0.0,0.0,0.0,0.0,0.7783,0.7988,0.7988,0.7988,0.8033,0.8104,0.8067,0.8033,0.8104,0.8067,0.8057,0.8264,0.8298,0.8298,0.8298,0.8359,0.8386,0.8308,0.8362,0.8638,0.9272,1.1709,1.4202,1.6333,1.7264,1.8012,1.882,1.9192,1.9395,1.9395,1.9395,1.9395,1.9395,1.9395,1.9395,1.9395,1.9395,1.9395,1.9395,1.9395,1.9219,1.8896,1.9225,1.916,1.8704,1.9187,1.9308,1.9125,1.9152,1.9267,1.9388,1.9219,1.9274,1.9395,1.9395,1.9395,1.9395,1.9395,2.1266,2.3794,0.0,0.0,0.0,0.0,0.0,0.0,0.0,0.0,0.0,0.0,0.0,0.0,0.0,0.0,0.0,0.0,0.0,0.0,0.0,0.0,0.0,0.0,0.0,0.0,0.0,0.0,0.0,0.0,0.0,0.0,0.0,0.0,0.0,0.0,0.0,0.0,0.0,0.0,0.0,0.0,0.0,0.0,0.0,0.0,0.0,0.0,0.0,0.0,0.0,0.6312,0.7095,0.7095,0.7095,0.0,0.0,0.0,0.0,0.0,0.7988,0.7988,0.805,0.8257,0.8153,0.8054,0.826,0.815,0.8064,0.8291,0.8328,0.8328,0.8328,0.8366,0.8376,0.8308,0.8315,0.8914,1.056,1.2292,1.3991,1.561,1.6361,1.7331,1.8756,1.9192,1.9395,1.9395,1.9395,1.9395,1.9395,1.9395,1.9395,1.9395,1.9395,1.9395,1.9395,1.9395,1.9219,1.8896,1.9225,1.9212,1.8903,1.9261,1.9395,1.9381,1.9098,0.0,1.9381,1.9092,1.9138,1.9395,1.9395,1.9395,1.9395,1.9395,2.1266,2.3877,0.0,0.0,0.0,0.0,0.0,0.0,0.0,0.0,0.0,0.0,0.0,0.0,0.0,0.0,0.0,0.0,0.0,0.0,0.0,0.0,0.0,0.0,0.0,0.0,0.0,0.0,0.0,0.0,0.0,0.0,0.0,0.0,0.0,0.0,0.0,0.0,0.0,0.0,0.0,0.0,0.0,0.0,0.0,0.0,0.0,0.0,0.0,0.0,0.0,0.6312,0.7095,0.7095,0.7095,0.0,0.0,0.0,0.0,0.0,0.7988,0.7988,0.805,0.8257,0.8153,0.8054,0.826,0.815,0.8091,0.8394,0.8478,0.8478,0.8478,0.8662,0.8686,0.8359,0.8396,0.9433,1.2211,1.3291,1.4762,1.7289,1.8389,1.8909,1.8888,1.9192,1.9395,1.9395,1.9395,1.9395,1.9395,1.9395,1.9395,1.9395,1.9395,1.9395,1.9395,1.9395,1.9219,1.8896,1.9225,1.9212,1.8903,1.9261,1.9395,1.9395,0.0,1.9354,1.9395,1.9348,1.9354,1.9395,1.9395,1.9395,1.9395,1.9395,2.1266,2.4156,0.0,0.0,0.0,0.0,0.0,0.0,0.0,0.0,0.0,0.0,0.0,0.0,0.0,0.0,0.0,0.0,0.0,0.0,0.0,0.0,0.0,0.0,-0.0345,0.0,0.0,0.0,0.0,0.0,0.0,0.0,0.0,0.0,0.0,0.0,0.0,0.0,0.0,0.0,0.0,0.0,0.0,0.0,0.0,0.0,0.0,0.0,0.0,0.0,0.0,0.0,0.7095,0.7095,0.7095,0.0,0.0,0.0,0.0,0.0,0.7988,0.7988,0.8071,0.8352,0.8211,0.8098,0.8438,0.824,0.8121,0.8526,0.8411,0.8292,0.8478,0.8533,0.8537,0.8434,0.8577,0.9496,1.1755,1.238,1.3727,1.6722,1.7604,1.818,1.8846,1.9192,1.9395,1.9395,1.9395,1.9395,1.9395,1.9395,1.9395,1.9395,1.9395,1.9395,1.9395,1.9395,1.9219,1.8896,1.9225,1.9212,1.8903,1.9261,1.9395,1.9388,0.0,1.9219,1.9388,1.9192,1.9254,1.9395,1.9395,1.9395,1.9591,2.1188,2.2633,2.4239,0.0,0.0,0.0,0.0,0.0,0.0,0.0,0.0,0.0,0.0,0.0,0.0,0.0,0.0,0.0,0.0,0.0,0.0,0.0,0.0,-0.3225,-0.1456,-0.0499,0.0,0.0,0.0,0.0,0.0,0.0,0.0,0.0,0.0,0.0,0.0,0.0,0.0,0.0,0.0,0.0,0.0022,0.0,0.0,0.0,0.0,0.0,0.0,0.0,0.0,0.0,0.0,0.0,0.0,0.0,0.0,0.0,0.76,0.7783,0.7988,0.7988,0.7988,0.8077,0.8367,0.8235,0.8131,0.8581,0.8338,0.8142,0.8591,0.8382,0.8199,0.8486,0.8444,0.8393,0.8539,0.873,0.957,1.1675,1.2043,1.3326,1.6621,1.7214,1.7779,1.8911,1.9261,1.9395,1.9395,1.9395,1.9395,1.9395,1.9395,1.9395,1.9395,1.9395,1.9395,1.9395,1.9395,1.9281,1.9032,1.9287,1.9281,1.9038,1.9294,1.9395,1.9388,1.9125,1.9158,1.9381,1.9125,1.9158,1.9395,1.9395,1.9395,1.9764,2.271,2.3794,2.4239,0.0,0.0,0.0,0.0,0.0,0.0,0.0,0.0,0.0,0.0,0.0,0.0,0.0,0.0,0.0,0.0,0.0,0.0,0.0,0.0,-0.2849,-0.0231,-0.0045,0.0,0.0,0.0,0.0,0.0,0.0,0.0,0.0,0.0,0.0,0.0,0.0,0.0,0.0,0.0,0.0,0.009,0.121,0.0,0.0,0.0,0.0,0.0,0.0,0.0,0.0,0.0,0.0,0.0,0.0,0.0,0.76,0.76,0.7783,0.7988,0.7988,0.7988,0.8054,0.827,0.8163,0.8131,0.8581,0.8338,0.8142,0.8591,0.857,0.8499,0.8665,0.857,0.8516,0.8669,0.8713,0.9922,1.342,1.3914,1.5233,1.8757,1.9196,1.9245,1.9339,1.9388,1.9395,1.9395,1.9395,1.9395,1.9395,1.9395,1.9395,1.9395,1.9395,1.9395,1.9395,1.9395,1.9388,1.9361,1.9388,1.9388,1.9368,1.9388,1.9395,1.9395,1.9374,1.9381,1.9395,1.9374,1.9381,1.9395,1.9395,1.9395,1.9764,2.271,2.3794,2.4239,0.0,0.0,0.0,0.0,0.0,0.0,0.0,0.0,0.0,0.0,0.0,0.0,0.0,0.0,0.0,0.0,0.0,0.0,0.0,0.0,-0.3049,-0.1202,-0.0406,0.0,0.0,0.0,0.0,0.0,0.0,0.0,0.0,0.0,0.0,0.0,0.0,0.0,0.0,0.0,0.0,0.0045,0.0494,0.1121,0.0,0.0,0.0,0.0,0.0,0.0,0.0,0.0,0.7095,0.7112,0.7255,0.7428,0.7617,0.7706,0.7854,0.7988,0.7988,0.7988,0.8074,0.834,0.8218,0.8131,0.8581,0.8438,0.8309,0.8733,0.8584,0.8393,0.8451,0.854,0.8645,0.8703,0.8764,1.0063,1.3592,1.4092,1.5409,1.8967,1.9395,1.9395,1.9395,1.9395,1.9395,1.9395,1.9395,1.9395,1.9395,1.9395,1.9395,1.9395,1.9395,1.9395,1.9395,1.9395,1.9395,1.9395,1.9395,1.9395,1.9395,1.9395,1.9395,1.9395,1.9395,1.9395,1.9395,1.9395,1.9395,1.9395,1.9395,1.9953,2.1009,2.3047,2.4405,2.5517,0.0,0.0,0.0,0.0,0.0,0.0,0.0,0.0,0.0,0.0,0.0,0.0,0.0,0.0,0.0,0.0,0.0,0.0,0.0,-0.4451,-0.3196,-0.1859,-0.0651,0.0,0.0,0.0,0.0,0.0,0.0,0.0,0.0,0.0,0.0,0.0,0.0,0.0,0.0,0.0,0.0,0.0022,0.0404,0.083,0.0,0.0,0.0,0.0,0.0,0.0,0.0,0.0,0.7095,0.7144,0.7345,0.7502,0.7628,0.777,0.7895,0.7988,0.7988,0.7988,0.8074,0.8353,0.8225,0.8131,0.8581,0.8482,0.841,0.8757,0.8662,0.8469,0.8444,0.8574,0.871,0.871,0.8811,1.0112,1.3607,1.4153,1.5497,1.898,1.9395,1.9395,1.9395,1.9395,1.9395,1.9395,1.9395,1.9395,1.9395,1.9395,1.9395,1.9395,1.9395,1.9395,1.9395,1.9395,1.9395,1.9395,1.9395,1.9395,1.9395,1.9395,1.9395,1.9395,1.9395,1.9395,1.9395,1.9395,1.9395,1.9395,1.9395,2.0314,2.1777,2.3263,2.4793,2.6318,0.0,0.0,0.0,0.0,0.0,0.0,0.0,0.0,0.0,0.0,0.0,0.0,0.0,0.0,0.0,0.0,0.0,0.0,0.0,-0.4392,-0.3194,-0.1859,-0.0651,0.0,0.0,0.0,0.0,0.0,0.0,0.0,0.0,0.0,0.0,0.0,0.0,0.0,0.0,0.0,0.0,0.0112,0.1299,0.1076,0.0135,0.0,0.0,0.0,0.0,0.0,0.0,0.0,0.7098,0.7148,0.7348,0.7502,0.7631,0.7773,0.7898,0.7988,0.7992,0.7992,0.805,0.8257,0.8153,0.8131,0.8578,0.8482,0.8379,0.8652,0.8804,0.8862,0.871,0.871,0.8713,0.871,0.8814,1.0115,1.3607,1.4262,1.5632,1.9,1.9395,1.9395,1.9395,1.9395,1.9395,1.9395,1.9395,1.9395,1.9395,1.9395,1.9395,1.9395,1.9395,1.9395,1.9395,1.9395,1.9395,1.9395,1.9395,1.9395,1.9395,1.9395,1.9395,1.9395,1.9395,1.9395,1.9395,1.9395,1.9395,1.9395,1.9395,2.0314,2.1805,2.3263,2.4793,2.6327,0.0,0.0,0.0,0.0,0.0,0.0,0.0,0.0,0.0,0.0,0.0,0.0,0.0,0.0,0.0,0.0,0.0,0.0,0.0,-0.431,-0.3102,-0.1858,-0.0651,0.0,0.0,0.0,0.0,0.0,0.0,0.0,0.0,0.0,0.0,0.0,0.0,0.0,0.0,0.0,0.0,0.0022,0.0387,0.0321,0.0046,0.0,0.0,0.0,0.0,0.0,0.0,0.0,0.0,0.0,0.7485,0.7631,0.7797,0.8083,0.8089,0.8037,0.8174,0.8098,0.805,0.8257,0.8264,0.8238,0.8396,0.8437,0.8502,0.8669,0.872,0.873,0.8577,0.8726,0.8808,0.8726,0.8923,1.0269,1.3627,1.4262,1.5632,1.9,1.9395,1.9395,1.9395,1.9395,1.9395,1.9395,1.9395,1.9395,1.9395,1.9395,1.9395,1.9395,1.9395,1.9395,1.9395,1.9395,1.9395,1.9395,1.9395,1.9395,1.9395,1.9395,1.9395,1.9395,1.9395,1.9395,1.9395,1.9395,1.9395,1.9395,1.9395,2.0931,2.3207,2.3627,2.5434,2.7699,0.0,0.0,0.0,0.0,0.0,0.0,0.0,0.0,0.0,0.0,-0.7831,-0.7726,0.0,0.0,0.0,0.0,0.0,0.0,-0.6124,-0.4976,-0.3996,-0.3263,-0.1612,-0.0494,0.0,0.0,0.0,0.0,0.0,0.0,0.0,0.0,0.0,0.0,0.0,0.0,0.0,0.0,0.0,0.0,0.0,0.0,0.0046,0.0,0.0,0.0,0.0,0.0,0.0,0.0,0.0,0.0,0.7553,0.774,0.7912,0.8126,0.8157,0.815,0.827,0.8204,0.818,0.8394,0.8383,0.8311,0.8366,0.8447,0.8543,0.873,0.8774,0.8747,0.8679,0.8787,0.8882,0.8787,0.9049,1.0402,1.3647,1.431,1.5713,1.9013,1.9395,1.9395,1.9395,1.9395,1.9395,1.9395,1.9395,1.9395,1.9395,1.9395,1.9395,1.9395,1.9395,1.9395,1.9395,1.9395,1.9395,1.9395,1.9395,1.9395,1.9395,1.9395,1.9395,1.9395,1.9395,1.9395,1.9395,1.9395,1.9395,1.9395,1.9395,2.1209,2.3794,2.3794,2.5717,2.8291,0.0,0.0,-0.7988,-0.7988,0.0,0.0,0.0,0.0,0.0,0.0,-0.778,-0.7641,0.0,0.0,0.0,-0.7166,-0.7312,-0.7319,-0.7105,-0.6027,-0.5403,-0.5403,-0.3084,-0.1232,-0.0022,0.0,0.0,0.0,0.0,0.0,0.0,0.0,0.0,0.0,0.0,0.0,0.0,0.0,0.0,0.0,0.0,0.0,0.0135,0.1348,0.0,0.0,0.0,0.0,0.0,0.0,0.0,0.0,0.757,0.779,0.7992,0.8033,0.816,0.8301,0.8311,0.8308,0.8362,0.8604,0.8469,0.8342,0.8512,0.8539,0.8584,0.8852,0.8899,0.8896,0.8909,0.8912,0.8912,0.8912,0.9188,1.0492,1.3666,1.4403,1.579,1.901,1.9395,1.9395,1.9395,1.9395,1.9395,1.9395,1.9395,1.9395,1.9395,1.9395,1.9395,1.9395,1.9395,1.9395,1.9395,1.9395,1.9395,1.9395,1.9395,1.9395,1.9395,1.9395,1.9395,1.9395,1.9395,1.9395,1.9395,1.9395,1.9395,1.9395,1.9395,2.1209,2.3794,2.3794,2.5717,2.8291,0.0,0.0,-0.7988,-0.7988,0.0,0.0,0.0,0.0,0.0,0.0,0.0,0.0,0.0,0.0,0.0,-0.7526,-0.7529,-0.7434,-0.7112,-0.6027,-0.5403,-0.5403,-0.3084,-0.1232,-0.0022,0.0,0.0,0.0,0.0,0.0,0.0,0.0,0.0,0.0,0.0,0.0,0.0,0.0,0.0,0.0,0.0,0.0,0.0138,0.1331,0.2542,0.0,0.0,0.0,0.0,0.0,0.0,0.0,0.7719,0.7868,0.8037,0.8184,0.827,0.8321,0.8434,0.8383,0.8311,0.8376,0.8345,0.8396,0.8727,0.872,0.8713,0.8872,0.8818,0.877,0.8889,0.8912,0.8912,0.8912,0.9188,1.0492,1.3666,1.4403,1.579,1.901,1.9395,1.9395,1.9395,1.9395,1.9395,1.9395,1.9395,1.9395,1.9395,1.9395,1.9395,1.9395,1.9395,1.9395,1.9395,1.9395,1.9395,1.9395,1.9395,1.9395,1.9395,1.9395,1.9395,1.9395,1.9395,1.9395,1.9395,1.9395,1.9395,1.9395,1.9395,2.1209,2.3794,2.3794,2.5717,2.8291,0.0,0.0,0.0,0.0,0.0,0.0,0.0,0.0,0.0,0.0,0.0,0.0,0.0,-0.7864,0.0,0.0,-0.7533,-0.7421,-0.7261,-0.6599,-0.5714,-0.4596,-0.2771,-0.1232,-0.0022,0.0,0.0,0.0,0.0,0.0,0.0,0.0,0.0,0.0,0.0,0.0,0.0,0.0,0.0,0.0,0.0,0.0,0.0139,0.1347,0.2543,0.376,0.4975,0.0,0.0,0.0,0.0,0.0,0.0,0.0,0.815,0.816,0.8236,0.8311,0.8386,0.8403,0.8413,0.8462,0.8537,0.8632,0.8767,0.8798,0.8814,0.8896,0.8848,0.8818,0.8896,0.8912,0.8912,0.8912,0.9188,1.0235,1.2656,1.3908,1.5523,1.7958,1.8917,1.9395,1.9395,1.9395,1.9395,1.9395,1.9395,1.9395,1.9395,1.9395,1.9395,1.9395,1.9395,1.9395,1.9395,1.9395,1.9395,1.9395,1.9395,1.9395,1.9395,1.9395,1.9395,1.9395,1.9395,1.9395,1.9395,1.9395,1.9395,1.9395,1.9395,2.1209,2.3794,2.3794,2.5717,2.8291,0.0,0.0,0.0,0.0,0.0,0.0,0.0,0.0,0.0,0.0,0.0,0.0,0.0,-0.7756,-0.777,0.0,0.0,0.0,-0.7433,-0.7062,-0.5866,-0.3705,-0.2436,-0.1232,0.0,0.0,0.0,0.0,0.0,0.0,0.0,0.0,0.0,0.0,0.0,0.0,0.0,0.0,0.0,0.0,0.0,0.0,0.0161,0.1577,0.0,0.3814,0.5228,0.646,0.7437,0.7461,0.0,0.0,0.0,0.0,0.8204,0.805,0.815,0.8298,0.8298,0.84,0.8546,0.8672,0.8757,0.8814,0.874,0.8801,0.8879,0.8906,0.8912,0.8912,0.8912,0.8912,0.8912,0.8912,0.9188,0.9954,1.1585,1.342,1.5198,1.6821,1.8431,1.9395,1.9395,1.9395,1.9395,1.9395,1.9395,1.9395,1.9395,1.9395,1.9395,1.9395,1.9395,1.9395,1.9395,1.9395,1.9395,1.9395,1.9395,1.9395,1.9395,1.9395,1.9395,1.9395,1.9395,1.9395,1.9395,1.9395,1.9395,1.9395,1.9395,2.1209,2.3794,2.3794,2.5717,2.8291,0.0,0.0,0.0,0.0,0.0,0.0,0.0,0.0,0.0,0.0,-0.7888,-0.7854,-0.7946,-0.7973,-0.7922,-0.7797,-0.7651,-0.757,-0.757,0.0,0.0,-0.3662,-0.2436,-0.1232,0.0,0.0,0.0,0.0,0.0,0.0,0.0,0.0,0.0,0.0,0.0,0.0,0.0,0.0,0.0,0.0,0.0,0.0,0.0248,0.0,0.0,0.0,0.6327,0.7323,0.7587,0.7709,0.7777,0.0,0.0,0.0,0.804,0.802,0.815,0.8298,0.8298,0.84,0.8546,0.8672,0.8625,0.8608,0.8825,0.8794,0.875,0.8882,0.8912,0.8912,0.8912,0.8912,0.8912,0.8912,0.9188,0.9954,1.1585,1.342,1.5198,1.6821,1.8431,1.9395,1.9395,1.9395,1.9395,1.9395,1.9395,1.9395,1.9395,1.9395,1.9395,1.9395,1.9395,1.9395,1.9395,1.9395,1.9395,1.9395,1.9395,1.9395,1.9395,1.9395,1.9395,1.9395,1.9395,1.9395,1.9395,1.9395,1.9395,1.9395,1.9395,2.1209,2.3794,2.3794,2.5717,2.8291,0.0,0.0,0.0,0.0,0.0,0.0,0.0,0.0,0.0,0.0,0.0,-0.7908,-0.7888,-0.7962,-0.7952,-0.78,-0.7753,-0.7648,-0.7505,-0.623,-0.4914,-0.366,-0.2436,-0.1232,-0.0022,0.0,0.0,0.0,0.0,0.0,0.0,0.0,0.0,0.0,0.0,0.0,0.0,0.0,0.0,0.0,0.0,0.0,0.0,0.0,0.0,0.0,0.0,0.0,0.7729,0.779,0.7844,0.7925,0.7993,0.0,0.0,0.0,0.8064,0.8177,0.8369,0.8403,0.8464,0.8733,0.8659,0.8564,0.8841,0.8794,0.8727,0.8879,0.8912,0.8912,0.8912,0.8912,0.8912,0.8912,0.9188,0.9639,1.0355,1.2863,1.4866,1.5577,1.787,1.9395,1.9395,1.9395,1.9395,1.9395,1.9395,1.9395,1.9395,1.9395,1.9395,1.9395,1.9395,1.9395,1.9395,1.9395,1.9395,1.9395,1.9395,1.9395,1.9395,1.9395,1.9395,1.9395,1.9395,1.9395,1.9395,1.9395,1.9395,1.9395,1.9395,2.1209,2.3794,2.3794,2.5717,2.8291,0.0,0.0,0.0,0.0,0.0,0.0,0.0,0.0,0.0,0.0,0.0,-0.7929,-0.7854,0.0,0.0,0.0,-0.7801,-0.7631,-0.7333,-0.586,-0.4578,-0.3638,-0.2147,-0.0919,-0.0022,0.0,0.0,0.0,0.0,0.0,0.0,0.0,0.0,0.0,0.0,0.0,0.0,0.0,0.0,0.0,0.0,0.0,0.0,0.0,0.0,0.0,0.0,0.0,0.0,0.0,0.7918,0.7988,0.7988,0.7988,0.0,0.0,0.0,0.8071,0.8357,0.8376,0.8386,0.8703,0.8625,0.8499,0.8737,0.8706,0.8696,0.8821,0.8885,0.8912,0.8912,0.8912,0.8912,0.8912,0.9154,0.9366,0.9403,1.2378,1.4568,1.4594,1.7425,1.9395,1.9395,1.9395,1.9395,1.9395,1.9395,1.9395,1.9395,1.9395,1.9395,1.9395,1.9395,1.9395,1.9395,1.9395,1.9395,1.9395,1.9395,1.9395,1.9395,1.9395,1.9395,1.9395,1.9395,1.9395,1.9395,1.9395,1.9395,1.9395,1.9395,2.1209,2.3794,2.3794,2.5717,2.8291,0.0,0.0,0.0,0.0,0.0,0.0,0.0,0.0,0.0,0.0,0.0,-0.7851,-0.7989,-0.7985,-0.7985,-0.7978,-0.7749,-0.7478,-0.7129,-0.5094,-0.3805,-0.3618,-0.1344,0.0,0.0,0.0,0.0,0.0,0.0,0.0,0.0,0.0,0.0,0.0,0.0,0.0,0.0,0.0,0.0,0.0,0.0,0.0,0.0,0.0,0.0,0.0,0.0,0.0,0.0,0.0,0.0,0.0,0.0,0.7988,0.7988,0.0,0.0,0.0,0.8264,0.8301,0.8335,0.8492,0.8417,0.8349,0.8498,0.8526,0.8537,0.8693,0.8811,0.8912,0.8912,0.8912,0.8912,0.8912,0.9066,0.9243,0.939,1.2293,1.4449,1.4579,1.7425,1.9395,1.9395,1.9395,1.9395,1.9395,1.9395,1.9395,1.9395,1.9395,1.9395,1.9395,1.9395,1.9395,1.9395,1.9395,1.9395,1.9395,1.9395,1.9395,1.9395,1.9395,1.9395,1.9395,1.9395,1.9395,1.9395,1.9395,1.9395,1.9395,1.9395,2.1209,2.3794,2.3794,2.5717,2.8291,0.0,0.0,0.0,0.0,0.0,0.0,0.0,0.0,0.0,0.0,0.0,0.0,0.0,-0.7732,-0.7719,-0.7621,-0.6751,-0.5839,-0.5031,-0.4164,-0.3307,-0.2482,-0.1612,0.0,0.0,0.0,0.0,0.0,0.0,0.0,0.0,0.0,0.0,0.0,0.0,0.0,0.0,0.0,0.0,0.0,0.0,0.0,0.0146,0.0,0.0,0.0,0.0,0.0,0.0,0.0,0.0,0.0,0.0,0.0,0.0,0.7988,0.7988,0.8047,0.8253,0.8197,0.818,0.8421,0.8299,0.8184,0.8428,0.8509,0.8526,0.8554,0.8737,0.8882,0.8784,0.8845,0.8912,0.8912,0.9059,0.9536,1.0487,1.2633,1.4508,1.5667,1.7755,1.9158,1.9381,1.9395,1.9395,1.9395,1.9192,1.9165,1.9388,1.9185,1.9172,1.9388,1.9395,1.9395,1.9395,1.9395,1.9395,1.9395,1.9395,1.9395,1.9395,1.9395,1.9395,1.9395,1.9395,1.9395,1.9395,1.9395,1.9395,1.9395,1.9395,2.1209,2.3794,2.3794,2.5717,2.8291,0.0,0.0,0.0,0.0,0.0,-0.7956,0.0,0.0,0.0,0.0,0.0,0.0,0.0,0.0,-0.6829,-0.6253,-0.5388,-0.4547,-0.3781,-0.3262,-0.2637,-0.1835,-0.141,0.0,0.0,0.0,0.0,0.0,0.0,0.0,0.0,0.0,0.0,0.0,0.0,0.0,0.0,0.0,0.0,0.0,0.0,0.0,0.0101,0.0,0.0,0.0,0.0,0.0,0.0,0.0,0.0,0.0,0.0,0.0,0.0,0.0,0.0,0.8037,0.8167,0.8091,0.806,0.8282,0.8159,0.8067,0.8289,0.8411,0.8509,0.8509,0.8726,0.8879,0.8777,0.8841,0.8912,0.8912,0.9018,0.9623,1.1083,1.2768,1.4466,1.616,1.7786,1.8858,1.908,1.91,1.9147,1.9241,1.9038,1.9052,1.9381,1.9178,1.9165,1.9388,1.9395,1.9395,1.9395,1.9395,1.9395,1.9395,1.9395,1.9395,1.9395,1.9395,1.9395,1.9395,1.9395,1.9395,1.9395,1.9395,1.9395,1.9395,1.9395,2.1209,2.3794,2.3794,2.5717,2.8291,0.0,-0.7988,-0.7988,-0.7988,-0.7888,-0.7837,-0.7986,0.0,0.0,0.0,0.0,0.0,0.0,0.0,0.0,-0.3882,-0.3733,-0.3679,-0.3515,-0.2396,-0.1749,-0.1749,-0.0629,0.0,0.0,0.0,0.0,0.0,0.0,0.0,0.0,0.0,0.0,0.0,0.0,0.0,0.0,0.0,0.0,0.0,0.0,0.0,0.0,0.0,0.0,0.0,0.4162,0.5979,0.0,0.8461,0.0,0.0,0.0,0.0,0.0,0.0,0.0,0.0,0.0,0.0,0.0,0.7988,0.7988,0.7988,0.7988,0.8265,0.8502,0.8502,0.872,0.8902,0.8902,0.8906,0.8912,0.8912,0.8937,0.9532,1.1142,1.2747,1.4363,1.5955,1.7529,1.8477,1.849,1.849,1.8604,1.8863,1.8876,1.9025,1.9354,1.9381,1.9388,1.9395,1.9395,1.9395,1.9395,1.9395,1.9395,1.9395,1.9395,1.9395,1.9395,1.9395,1.9395,1.9395,1.9395,1.9395,1.9395,1.9395,1.9395,1.9395,1.9395,2.1181,2.3738,2.3766,2.569,2.8237,-0.7988,-0.7988,-0.7988,-0.7988,-0.7888,-0.7824,0.0,0.0,0.0,0.0,0.0,0.0,0.0,0.0,0.0,-0.2539,-0.2362,-0.1976,-0.1054,-0.0679,-0.0492,-0.0492,-0.0188,0.0,0.0,0.0,0.0,0.0,0.0,0.0,0.0,0.0,0.0,0.0,0.0,0.0,0.0,0.0,0.0,0.0,0.0,0.0,0.0,0.0,0.0,0.0,0.0,0.6022,0.8454,0.0,0.8413,0.8277,0.0,0.0,0.0,0.0,0.0,0.0,0.7988,0.0,0.0,0.0,0.0,0.0,0.7988,0.8191,0.8355,0.8355,0.8567,0.8747,0.8747,0.8835,0.8912,0.8912,0.9809,1.1013,1.2529,1.4001,1.5569,1.7259,1.7863,1.8229,1.847,1.849,1.8524,1.8604,1.8383,1.8396,1.8718,1.8931,1.9145,1.9388,1.9395,1.9395,1.9395,1.9395,1.9395,1.9395,1.9395,1.9395,1.9395,1.9395,1.9395,1.9395,1.9395,1.9395,1.9395,1.9395,1.9395,1.9395,1.9395,2.0537,2.2335,2.3403,2.5022,2.6852,-0.8098,-0.8057,-0.7988,-0.7988,-0.7888,-0.7807,0.0,0.0,0.0,0.0,0.0,0.0,0.0,0.0,0.0,-0.201,-0.1371,-0.0762,-0.0048,0.0,0.0,0.0,0.0,0.0,0.0,0.0,0.0,0.0,0.0,0.0,0.0,0.0,0.0,0.0,0.0,0.0,0.0,0.0,0.0,0.0,0.0,0.0,0.0,0.0,0.1752,0.0,0.0,0.0,0.8587,0.8652,0.8533,0.0,0.0,0.0,0.0,0.0,0.0,0.0,0.0,0.0,0.0,0.0,0.0,0.0,0.7988,0.8204,0.8386,0.8386,0.8598,0.8757,0.8723,0.8757,0.903,0.9623,1.096,1.2219,1.3173,1.4502,1.6016,1.7642,1.7829,1.7923,1.8123,1.811,1.8163,1.8269,1.8116,1.8149,1.8477,1.8651,1.8878,1.9172,1.9185,1.9267,1.9395,1.9395,1.9395,1.9395,1.9395,1.9395,1.9395,1.9395,1.9395,1.9395,1.9395,1.9395,1.9395,1.9395,1.9395,1.9395,1.9395,2.068,2.2617,2.3487,2.516,2.7141,0.0,-0.817,-0.8044,-0.806,-0.7908,-0.7837,0.0,0.0,0.0,0.0,0.0,0.0,0.0,0.0,0.0,0.0,-0.0694,0.0,0.0,0.0,0.0,0.0,0.0,0.0,0.0,0.0,0.0,0.0,0.0,0.0,0.0,0.0,0.0,0.0,0.0,0.0,0.0,0.0,0.0,0.0,0.0,0.0,0.0,0.0,0.1748,0.4219,0.4439,0.6296,0.873,0.8838,0.8706,0.0,0.0,0.0,0.0,0.0,0.8147,0.0,0.0,0.0,0.0,0.0,0.7988,0.0,0.7988,0.8241,0.8464,0.8481,0.8676,0.8801,0.8706,0.879,0.9265,1.0451,1.2049,1.323,1.3467,1.4726,1.6109,1.7404,1.7588,1.7608,1.7608,1.7608,1.7695,1.7949,1.7969,1.8096,1.8424,1.8444,1.8577,1.8836,1.8876,1.9052,1.9348,1.9381,1.9395,1.9395,1.9395,1.9395,1.9395,1.9395,1.9395,1.9395,1.9395,1.9395,1.9395,1.9395,1.9395,1.9395,1.9395,2.1102,2.3571,2.3738,2.5608,2.8067,-0.8461,-0.8352,-0.8287,-0.8377,-0.8072,0.0,0.0,0.0,0.0,0.0,0.0,0.0,0.0,0.0,0.0,0.0,0.0,0.0,0.0,0.0,0.0,0.0,0.0,0.0,0.0,0.0,0.0,0.0,0.0,0.0,0.0,0.0,0.0,0.0,0.0,0.0,0.0,0.0,0.0,0.0,0.0,0.0,0.0,0.0,0.1752,0.4229,0.4422,0.6296,0.8716,0.872,0.8716,0.8625,0.0,0.0,0.0,0.8088,0.0,0.0,0.0,0.0,0.0,0.0,0.0,0.0,0.7988,0.8057,0.8135,0.8311,0.8386,0.8454,0.8513,0.9384,0.9822,0.9099,1.1914,1.4319,1.4627,1.6118,1.72,1.7261,1.7468,1.7608,1.7608,1.7608,1.7609,1.7669,1.7669,1.7809,1.8089,1.8103,1.8243,1.8564,1.8804,1.8923,1.9011,1.9281,1.9395,1.9395,1.9395,1.9395,1.9395,1.9395,1.9395,1.9395,1.9395,1.9395,1.9395,1.9395,1.9395,1.9395,1.9395,2.0479,2.2173,2.3347,2.4958,2.6689,-0.8509,-0.8393,-0.8294,-0.8262,0.0,0.0,0.0,0.0,0.0,0.0,0.0,0.0,0.0,0.0,0.0,0.0,0.0,0.0,0.0,0.0,0.0,0.0,0.0,0.0,0.0,0.0,0.0,0.0,0.0,0.0,0.0,0.0,0.0,0.0,0.0,0.0,0.0,0.0,0.0,0.0,0.0,0.0,0.0,0.0,0.1799,0.4366,0.4471,0.636,0.8784,0.871,0.871,0.0,0.8537,0.8413,0.8281,0.0,0.8074,0.7988,0.0,0.0,0.0,0.7988,0.0,0.0,0.0,0.8074,0.8177,0.8281,0.8352,0.8403,0.8403,0.9444,1.0327,1.0433,1.2658,1.4701,1.5532,1.6664,1.7394,1.7394,1.7521,1.7608,1.7608,1.7608,1.7608,1.7608,1.7608,1.7649,1.7782,1.7789,1.7929,1.8236,1.8383,1.8603,1.889,1.9072,1.9219,1.9395,1.9395,1.9395,1.9395,1.9395,1.9395,1.9395,1.9395,1.9395,1.9395,1.9395,1.9395,1.9395,1.9395,2.0766,2.2786,2.3543,2.5242,2.7303,-0.8509,-0.8393,-0.8267,-0.8118,0.0,0.0,0.0,0.0,0.0,0.0,0.0,0.0,0.0,0.0,0.0,0.0,0.0,0.0,0.0,0.0,0.0,0.0,0.0,0.0,0.0,0.0,0.0,0.0,0.0,0.0,0.0,0.0,0.0,0.0,0.0,0.0,0.0,0.0,0.0,0.0,0.0,0.0,0.0,0.0,0.1676,0.4146,0.4715,0.645,0.8496,0.8652,0.871,0.8706,0.8676,0.8482,0.0,0.0,0.0,0.0,0.0,0.0,0.0,0.0,0.0,0.7988,0.0,0.0,0.0,0.825,0.8316,0.836,0.8274,0.9495,1.0836,1.179,1.3421,1.49,1.5783,1.6548,1.7119,1.7327,1.7408,1.7441,1.7441,1.7495,1.7548,1.7608,1.7608,1.7608,1.7608,1.7608,1.7695,1.7922,1.7962,1.8249,1.8831,1.8863,1.9072,1.9395,1.9395,1.9395,1.9395,1.9395,1.9395,1.9395,1.9395,1.9395,1.9395,1.9395,1.9395,1.9395,1.9395,2.1209,2.3794,2.3794,2.5717,2.8291,-0.8509,-0.8393,-0.8328,-0.844,0.0,0.0,0.0,0.0,0.0,0.0,0.0,0.0,0.0,0.0,0.0,0.0,0.0,0.0,-0.1764,0.0,0.0,0.0,0.0,0.0,0.0,0.0,0.0,0.0,0.0,0.0,0.0,0.0,0.0,0.0,0.0,0.0,0.0,0.0,0.0,0.0,0.0,0.0,0.0,0.0,0.1027,0.2823,0.5501,0.6672,0.713,0.0,0.871,0.8686,0.0,0.8423,0.8298,0.8298,0.0,0.0,0.0,0.0,0.0,0.0,0.7988,0.0,0.7988,0.0,0.804,0.804,0.0,0.806,0.8044,0.0,0.0,1.0422,1.3292,1.5377,1.4624,1.562,1.6411,1.6444,1.6647,1.6807,1.6807,1.7073,1.7327,1.7588,1.7608,1.7608,1.7608,1.7608,1.7602,1.7629,1.7876,1.8176,1.8537,1.8791,1.9072,1.9395,1.9395,1.9395,1.9395,1.9395,1.9395,1.9395,1.9395,1.9395,1.9395,1.9395,1.9395,1.9395,1.9395,2.1209,2.3794,2.3794,2.5717,2.8291,-0.8366,-0.8338,-0.8287,-0.8231,0.0,0.0,0.0,0.0,0.0,0.0,0.0,0.0,0.0,0.0,0.0,0.0,0.0,-0.1206,0.0,0.0,0.0,0.0,0.0,0.0,0.0,0.0,0.0,0.0,0.0,0.0,0.0,0.0,0.0,0.0,0.0,0.0,0.0,0.0,0.0,0.0,0.0,0.0,0.0,0.0,0.092,0.2572,0.5535,0.6644,0.6895,0.0,0.8696,0.0,0.0,0.0,0.0,0.0,0.0,0.0,0.0,0.0,0.0,0.0,0.0,0.0,0.8174,0.0,0.7988,0.0,0.0,0.0,0.0,0.0,0.0,0.0,1.374,1.5651,1.5228,1.5639,1.6139,1.6486,1.6627,1.6774,1.6973,1.6946,1.704,1.7334,1.738,1.738,1.738,1.7521,1.7608,1.7608,1.7709,1.7896,1.8203,1.8496,1.8818,1.9112,1.9314,1.9395,1.9395,1.9395,1.9395,1.9395,1.9395,1.9395,1.9395,1.9395,1.9395,1.9395,1.9395,2.1209,2.3794,2.3794,2.5717,2.8291,-0.8184,0.0,-0.817,-0.8033,0.0,0.0,0.0,0.0,0.0,0.0,0.0,0.0,-0.4361,-0.4735,0.0,0.0,-0.149,-0.1384,0.0,0.0,0.0,0.0,0.0,0.0,0.0,0.0,0.0,0.0,0.0,0.0,0.0,0.0,0.0,0.0,0.0,0.0,0.0,0.0,0.0,0.0,0.0,0.0,0.0,0.0,0.067,0.1982,0.49,0.6024,0.6337,0.801,0.8693,0.0,0.8615,0.8543,0.8515,0.0,0.0,0.0,0.8325,0.0,0.0,0.0,0.0,0.0,0.0,0.0,0.0,0.0,0.0,0.0,0.0,0.0,0.0,0.0,0.0,1.5408,1.5754,1.5808,1.5961,1.6388,1.654,1.6698,1.6938,1.6812,1.6794,1.704,1.7159,1.7199,1.7199,1.7448,1.7608,1.7608,1.7608,1.7736,1.7989,1.8236,1.8529,1.8896,1.9145,1.9321,1.9395,1.9395,1.9395,1.9395,1.9395,1.9395,1.9395,1.9395,1.9395,1.9395,1.9395,2.1209,2.3794,2.3794,2.5717,2.8291,-0.7995,-0.802,0.0,0.0,0.0,0.0,0.0,0.0,0.0,0.0,0.0,0.0,0.0,0.0,0.0,0.0,0.0,-0.3344,-0.2099,0.0,0.0,0.0,0.0,0.0,0.0,0.0,0.0,0.0,0.0,0.0,0.0,0.0,0.0,0.0,0.0,0.0,0.0,0.0,0.0,0.0,0.0,0.0,0.0,0.0,0.0028,0.0476,0.3491,0.0,0.0,0.7768,0.871,0.0,0.0,0.0,0.0,0.0,0.0,0.0,0.0,0.0,0.0,0.8328,0.0,0.0,0.0,0.0,0.7988,0.0,0.0,0.0,0.0,0.0,0.0,0.0,0.0,0.0,0.0,1.5808,1.5815,1.5828,1.6112,1.6317,1.6324,1.6547,1.6707,1.672,1.7013,1.7199,1.7199,1.7448,1.7608,1.7608,1.7608,1.7736,1.7989,1.8002,1.8323,1.8896,1.8903,1.9092,1.9395,1.9395,1.9395,1.9395,1.9395,1.9395,1.9395,1.9395,1.9395,1.9395,1.9395,2.1209,2.3794,2.3794,2.5717,2.8291,-0.8033,0.0,0.0,0.0,-0.7988,-0.7988,-0.7988,-0.8057,-0.7772,-0.6887,-0.6827,-0.5808,0.0,-0.3573,-0.3597,0.0,0.0,-0.1588,-0.2112,-0.0786,0.0,0.0,0.0,0.0,0.0,0.0,0.0,0.0,0.0,0.0,0.0,0.0,0.0,0.0,0.0,0.0,0.0,0.0,0.0,0.0,0.0,0.0,0.0,0.0,0.0,0.0392,0.341,0.4498,0.0,0.7744,0.875,0.8818,0.8716,0.8676,0.8662,0.8787,0.8679,0.8532,0.0,0.0,0.8621,0.8574,0.0,0.0,0.0,0.0,0.0,0.0,0.0,0.0,0.0,0.0,0.0,0.0,0.0,0.0,0.0,0.0,1.5808,1.5808,1.5895,1.6059,1.6277,1.6179,1.6206,1.6431,1.6538,1.6591,1.6591,1.7085,1.7347,1.7347,1.7508,1.7629,1.7736,1.7916,1.8216,1.8637,1.8831,1.9078,1.9395,1.9395,1.9395,1.9395,1.9395,1.9395,1.9395,1.9395,1.9395,1.9395,1.9395,2.1209,2.3794,2.3794,2.5717,2.8291,-0.8044,-0.7988,-0.7988,-0.7988,-0.7988,-0.7831,-0.735,-0.7764,-0.7449,-0.5613,-0.5784,-0.5087,-0.2366,0.0,-0.2357,0.0,-0.0988,-0.0908,-0.1378,-0.0515,0.0,0.0,0.0,0.0,0.0,0.0,0.0,0.0,0.0,0.0,0.0,0.0,0.0,0.0,0.0,0.0,0.0,0.0,0.0,0.0,0.0,0.0,0.0,0.0,0.0335,0.112,0.0,0.4832,0.5633,0.7996,0.8831,0.8892,0.8794,0.8764,0.8784,0.8882,0.877,0.8665,0.8737,0.8764,0.0,0.8723,0.8635,0.0,0.8522,0.0,0.8172,0.0,0.0,0.0,0.0,0.0,0.0,0.0,0.0,0.0,0.0,1.5808,1.5808,1.5808,1.5901,1.6019,1.6106,1.6039,1.6019,1.6112,1.6237,1.6297,1.6297,1.6884,1.7199,1.7199,1.7454,1.7608,1.7608,1.7782,1.8063,1.8497,1.8684,1.8978,1.9395,1.9395,1.9395,1.9395,1.9395,1.9395,1.9395,1.9395,1.9395,1.9395,1.9395,2.1209,2.3794,2.3794,2.5717,2.8291,-0.8044,-0.7988,-0.7988,-0.7988,-0.7995,-0.7591,-0.631,-0.7369,-0.733,-0.4548,-0.536,-0.5155,-0.2396,-0.3117,-0.2785,-0.0218,-0.1157,-0.135,-0.0084,0.0,0.0,0.0,0.0,0.0,0.0,0.0,0.0,0.0,0.0,0.0,0.0,0.0,0.0,0.0,0.0,0.0,0.0,0.0,0.0,0.0,0.0,0.0,0.0,0.0083,0.1022,0.2515,0.3967,0.5447,0.6924,0.8408,0.8912,0.8912,0.8912,0.8912,0.8912,0.8912,0.8912,0.8912,0.8912,0.8912,0.8875,0.873,0.8716,0.0,0.0,0.0,0.8509,0.0,0.0,0.0,0.0,0.0,0.0,0.0,0.0,0.0,0.0,0.0,1.5808,1.5808,1.6079,1.6139,0.0,0.0,1.6132,1.5828,1.6092,1.6284,1.6297,1.6826,1.7172,1.7199,1.7428,1.7582,1.7608,1.7595,1.7889,1.847,1.8484,1.8819,1.9374,1.9388,1.9395,1.9395,1.9395,1.9395,1.9395,1.9395,1.9395,1.9395,1.9395,2.1209,2.3822,2.3961,2.5827,2.8291,-0.8044,-0.7988,-0.7988,-0.7988,-0.8136,-0.8094,-0.7769,-0.8124,-0.7421,-0.4585,-0.4518,-0.3685,-0.0875,-0.0853,-0.074,-0.0054,-0.0325,0.0,0.0,0.0,0.0,0.0,0.0,0.0,0.0,0.0,0.0,0.0,0.0,0.0,0.0,0.0,0.0,0.0,0.0,0.0,0.0,0.0,0.0,0.0,0.0,0.0,0.011,0.0,0.2591,0.3967,0.4359,0.5447,0.6924,0.8408,0.8912,0.8912,0.8912,0.8912,0.8912,0.8912,0.8912,0.8912,0.8912,0.8912,0.8902,0.8862,0.8767,0.8699,0.0,0.0,0.0,0.0,0.0,0.0,0.0,0.0,0.0,0.0,0.0,0.0,0.0,0.0,0.0,1.5808,0.0,0.0,0.0,0.0,1.5888,1.5815,1.5875,1.6039,1.6284,1.6438,1.675,1.7186,1.7033,1.7141,1.7608,1.7394,1.7582,1.8136,1.8377,1.8684,1.9045,1.9294,1.9395,1.9395,1.9395,1.9395,1.9395,1.9395,1.9395,1.9395,1.9395,2.1209,2.4072,2.6327,2.7645,2.8291,-0.8044,-0.7988,-0.7988,-0.7988,-0.8218,-0.8179,-0.7522,-0.7479,-0.6526,-0.3682,-0.3264,-0.2406,-0.0249,0.0,0.0,0.0,0.0,0.0,0.0,0.0,0.0,0.0,0.0,0.0,0.0,0.0,0.0,0.0,0.0,0.0,0.0,0.0,0.0,0.0,0.0,0.0,0.0,0.0,0.0,0.0,0.0,0.0,0.0,0.1643,0.317,0.4582,0.5222,0.6422,0.7789,0.8633,0.8912,0.8912,0.8912,0.8912,0.8912,0.8912,0.8912,0.8912,0.8912,0.8912,0.8912,0.8912,0.8845,0.8784,0.8784,0.8716,0.8682,0.0,0.8682,0.8662,0.0,0.0,0.0,0.0,0.0,0.0,0.0,0.0,0.0,0.0,1.5921,1.5948,1.5815,1.5808,1.5808,1.5808,1.5808,1.5881,1.6072,1.6319,1.6578,1.6811,1.6879,1.702,1.7201,1.706,1.7315,1.8002,1.8183,1.8584,1.9125,1.9321,1.9395,1.9395,1.9395,1.9395,1.9395,1.9395,1.9395,1.954,2.0823,2.2351,2.4156,2.7195,2.8291,2.8291,-0.8044,-0.7988,-0.7995,-0.804,-0.8282,-0.8043,-0.6801,-0.6632,-0.5712,-0.3134,-0.2509,-0.1816,-0.0446,-0.0112,0.0,0.0,0.0,0.0,0.0,0.0,0.0,0.0,0.0,0.0,0.0,0.0,0.0,0.0,0.0,0.0,0.0,0.0,0.0,0.0,0.0,0.0,0.0,0.0,0.0,0.0,0.0,0.0,0.0195,0.1871,0.334,0.4721,0.6394,0.782,0.8912,0.8912,0.8912,0.8912,0.8912,0.8912,0.8912,0.8912,0.8912,0.8912,0.8912,0.8912,0.8912,0.8912,0.8912,0.8912,0.8912,0.8912,0.8912,0.8912,0.8912,0.8872,0.8737,0.0,0.0,0.0,0.0,0.0,0.0,0.0,0.0,0.0,0.0,0.0,1.5835,1.5808,1.5808,1.5808,1.5808,1.5821,1.5861,1.6308,1.6506,1.6357,1.6837,1.6973,1.6767,1.6727,1.7135,1.7995,1.7995,1.8463,1.9341,1.9381,1.9395,1.9395,1.9395,1.9395,1.9395,1.9395,1.9395,1.9678,2.2661,2.3794,2.4156,2.7195,2.8291,2.8291,-0.8044,-0.7988,-0.8054,-0.8208,-0.8301,-0.8335,-0.8281,-0.8367,-0.7834,-0.6129,-0.4832,-0.3492,-0.1976,-0.0722,0.0,0.0,0.0,0.0,0.0,0.0,0.0,0.0,0.0,0.0,0.0,0.0,0.0,0.0,0.0,0.0,0.0,0.0,0.0,0.0,0.0,0.0,0.0,0.0,0.0,0.0,0.0,0.0,0.0303,0.3051,0.4265,0.4862,0.754,0.8688,0.8912,0.8912,0.8912,0.8912,0.8912,0.8912,0.8912,0.8912,0.8912,0.8912,0.8912,0.8912,0.8912,0.8912,0.8912,0.8912,0.8912,0.8912,0.8912,0.8912,0.8912,0.8902,0.8875,0.0,0.0,0.0,0.0,0.0,0.0,0.0,0.0,0.0,0.0,1.6177,0.0,1.5808,1.5808,1.5808,1.5808,1.5915,1.6203,1.6059,1.6155,1.6613,1.6524,1.6658,1.7119,1.6827,1.7135,1.7995,1.7995,1.8356,1.9011,1.9259,1.9395,1.9395,1.9395,1.9395,1.9395,1.9395,1.9395,1.9678,2.2661,2.3794,2.4156,2.7195,2.8291,2.8291,-0.8174,-0.8071,-0.8037,-0.8136,-0.8279,-0.8454,-0.857,-0.8764,-0.8382,-0.6903,-0.4723,-0.3037,-0.2267,-0.0892,0.0,0.0,0.0,0.0,0.0,0.0,0.0,0.0,0.0,0.0,0.0,0.0,0.0,0.0,0.0,0.0,0.0,0.0,0.0,0.0,0.0,0.0,0.0,0.0,0.0,0.0,0.0,0.0,0.0333,0.3344,0.4498,0.4888,0.7848,0.8912,0.8912,0.8912,0.8912,0.8912,0.8912,0.8912,0.8912,0.8912,0.8912,0.8912,0.8912,0.8912,0.8912,0.8912,0.8912,0.8912,0.8912,0.8912,0.8912,0.8912,0.8912,0.8885,0.8808,0.9762,0.0,0.0,0.0,0.0,0.0,0.0,1.5462,0.0,0.0,0.0,0.0,0.0,1.5999,1.5815,1.5808,1.5868,1.6039,1.6052,1.6192,1.6473,1.6493,1.6658,1.6939,1.6774,1.7135,1.7995,1.7995,1.8409,1.9158,1.9328,1.9395,1.9395,1.9395,1.9395,1.9395,1.9395,1.9395,1.9678,2.2661,2.3794,2.4156,2.7195,2.8291,2.8291,-0.8342,-0.8218,-0.8118,-0.8152,-0.835,-0.8529,-0.857,-0.873,-0.8455,-0.7313,-0.455,-0.2682,-0.2682,-0.1092,0.0,0.0,0.0,0.0,0.0,0.0,0.0,0.0,0.0,0.0,0.0,0.0,0.0,0.0,0.0,0.0,0.0,0.0,0.0,0.0,0.0,0.0,0.0,0.0,0.0,0.0,0.0,0.0,0.0336,0.3354,0.4498,0.4888,0.7848,0.8912,0.8912,0.8912,0.8912,0.8912,0.8912,0.8912,0.8912,0.8912,0.8912,0.8912,0.8912,0.8912,0.8912,0.8912,0.8912,0.8912,0.8912,0.8912,0.8912,0.8912,0.8912,0.8875,0.8754,0.9585,0.0,0.0,0.0,0.0,0.0,0.0,0.0,0.0,0.0,0.0,1.6317,1.6244,1.6079,1.5821,1.5808,1.5828,1.5895,1.6086,1.623,1.6297,1.6493,1.6647,1.6707,0.0,1.7162,1.8116,1.8022,1.8483,1.9395,1.9395,1.9395,1.9395,1.9395,1.9395,1.9395,1.9395,1.9591,2.0119,2.2766,2.3989,2.4599,2.7313,2.8291,2.8291,-0.8488,-0.8475,-0.8486,-0.8625,-0.8557,-0.8574,-0.8828,-0.8774,-0.8726,-0.8696,-0.6114,-0.4275,-0.4275,-0.1735,0.0,0.0,0.0,0.0,0.0,0.0,0.0,0.0,0.0,0.0,0.0,0.0,0.0,0.0,0.0,0.0,0.0,0.0,0.0,0.0,0.0,0.0,0.0,0.0,0.0,0.0,0.0,0.0,0.0336,0.3354,0.4498,0.4888,0.7848,0.8912,0.8912,0.8912,0.8912,0.8912,0.8912,0.8912,0.8912,0.8912,0.8912,0.8912,0.8912,0.8912,0.8912,0.8912,0.8912,0.8912,0.8912,0.8912,0.8912,0.8912,0.8912,0.8906,0.8892,0.8886,0.8846,0.0,0.0,0.0,0.0,0.0,1.4808,1.6144,0.0,0.0,1.6304,1.6032,1.5835,1.5808,1.5808,1.5921,1.6244,1.5981,1.5999,1.629,1.6324,1.644,1.67,1.6707,1.7295,1.8444,1.8149,1.8483,1.9395,1.9395,1.9395,1.9395,1.9395,1.9395,1.9395,1.9395,2.0206,2.1557,2.3179,2.4654,2.6073,2.7699,2.8291,2.8291,-0.8618,-0.8547,-0.8529,-0.8564,-0.8598,-0.8662,-0.8754,-0.8801,-0.8841,-0.8902,-0.7091,-0.5475,-0.4609,-0.2599,-0.0977,-0.0083,0.0,0.0,0.0,0.0,0.0,0.0,0.0,0.0,0.0,0.0,0.0,0.0,0.0,0.0,0.0,0.0,0.0,0.0,0.0,0.0,0.0,0.0,0.0,0.0,0.0,0.0,0.0336,0.3354,0.4498,0.4888,0.7848,0.8912,0.8912,0.8912,0.8912,0.8912,0.8912,0.8912,0.8912,0.8912,0.8912,0.8912,0.8912,0.8912,0.8912,0.8912,0.8912,0.8912,0.8912,0.8912,0.8912,0.8912,0.8912,0.8912,0.8912,0.8862,0.877,0.8645,0.0,0.0,0.0,0.0,0.0,1.6566,0.0,1.6625,0.0,1.6397,1.6092,1.6092,1.5901,1.5855,1.5999,1.6059,1.6233,1.652,1.6533,1.676,1.7228,1.7235,1.7655,1.849,1.8516,1.8851,1.9395,1.9395,1.9395,1.9395,1.9395,1.9395,1.9395,1.9395,2.0256,2.1749,2.3207,2.4737,2.6264,2.7762,2.8291,2.8291,-0.8842,-0.8791,-0.8774,-0.8774,-0.8835,-0.891,-0.891,-0.8998,-0.8869,-0.8386,-0.7393,-0.6182,-0.467,-0.2739,-0.1145,-0.0084,0.0,0.0,0.0,0.0,0.0,0.0,0.0,0.0,0.0,0.0,0.0,0.0,0.0,0.0,0.0,0.0,0.0,0.0,0.0,0.0,0.0,0.0,0.0,0.0,0.0,0.0,0.0336,0.3354,0.4498,0.4888,0.7848,0.8912,0.8912,0.8912,0.8912,0.8912,0.8912,0.8912,0.8912,0.8912,0.8912,0.8912,0.8912,0.8912,0.8912,0.8912,0.8912,0.8912,0.8912,0.8912,0.8912,0.8912,0.8912,0.8912,0.8912,0.8912,0.8862,0.8733,0.0,0.0,0.0,1.2976,0.0,1.6758,1.676,1.6718,1.7013,1.6591,1.6297,1.6297,1.6079,1.5959,1.5959,1.6079,1.6279,1.6567,1.6493,0.0,1.7321,1.7434,1.7829,1.8497,1.8756,1.9078,1.9395,1.9395,1.9395,1.9395,1.9395,1.9395,1.9395,1.9395,2.0508,2.2343,2.3403,2.5022,2.6852,2.7924,2.8291,2.8291,-0.9204,-0.9294,-0.94,-0.94,-0.94,-0.94,-0.94,-0.9403,-0.8787,-0.7142,-0.6907,-0.6278,-0.4683,-0.1819,-0.0028,0.0,0.0,0.0,0.0,0.0,0.0,0.0,0.0,0.0,0.0,0.0,0.0,0.0,0.0,0.0,0.0,0.0,0.0,0.0,0.0,0.0,0.0,0.0,0.0,0.0,0.0,0.0,0.0336,0.3354,0.4498,0.4888,0.7848,0.8912,0.8912,0.8912,0.8912,0.8912,0.8912,0.8912,0.8912,0.8912,0.8912,0.8912,0.8912,0.8912,0.8912,0.8912,0.8912,0.8912,0.8912,0.8912,0.8912,0.8912,0.8912,0.8912,0.8912,0.8912,0.8862,0.8733,0.0,0.0,0.0,1.3849,0.0,1.6557,1.6478,1.6417,1.6687,1.6471,1.6297,1.6297,1.6297,1.629,1.629,1.5992,1.5972,1.629,1.5992,0.0,1.6707,1.7033,1.7628,1.8497,1.8756,1.9078,1.9395,1.9395,1.9395,1.9395,1.9395,1.9395,1.9395,1.9395,2.1131,2.3766,2.3794,2.5635,2.8291,2.8291,2.8291,2.8291,-0.9339,-0.9376,-0.941,-0.941,-0.941,-0.941,-0.941,-0.941,-0.9204,-0.8674,-0.6737,-0.5195,-0.4683,-0.2745,-0.1093,-0.0085,0.0,0.0,0.0,0.0,0.0,0.0,0.0,0.0,0.0,0.0,0.0,0.0,0.0,0.0,0.0,0.0,0.0,0.0,0.0,0.0,0.0,0.0,0.0,0.0,0.0,0.0,0.0337,0.3452,0.4628,0.5032,0.8134,0.9174,0.9114,0.9114,0.9018,0.8912,0.8912,0.8912,0.8912,0.8912,0.8912,0.8912,0.8912,0.8912,0.8912,0.8912,0.8912,0.8912,0.8912,0.8912,0.8912,0.8912,0.8912,0.8912,0.8912,0.8912,0.8862,0.8733,1.0,0.0,1.2693,0.0,1.5459,1.6873,1.6747,1.6705,1.7006,1.6765,1.6567,1.6567,1.6411,1.6297,1.6297,1.6373,1.656,0.0,1.6805,0.0,1.7301,1.7589,1.7989,1.8497,1.8991,1.9308,1.9395,1.9395,1.9395,1.9395,1.9395,1.9395,1.9482,2.0479,2.204,2.3905,2.4958,2.6581,2.8291,2.8291,2.8291,2.8291,-0.9466,-0.951,-0.9547,-0.9547,-0.9547,-0.9547,-0.9547,-0.9547,-0.9337,-0.8736,-0.6382,-0.4537,-0.3941,-0.2391,-0.1009,-0.0087,0.0,0.0,0.0,0.0,0.0,0.0,0.0,0.0,0.0,0.0,0.0,0.0,0.0,0.0,0.0,0.0,0.0,0.0,0.0,0.0,0.0,0.0,0.0,0.0,0.0,0.0,0.0343,0.351,0.4706,0.5115,0.8261,0.9349,0.9267,0.9267,0.9178,0.9078,0.9078,0.9078,0.9054,0.8943,0.8912,0.8912,0.8912,0.8912,0.8912,0.8912,0.8912,0.8912,0.8912,0.8912,0.8912,0.8912,0.8912,0.8912,0.8912,0.8912,0.8879,0.8784,1.0544,1.2194,1.2993,0.0,1.6168,0.0,0.0,1.682,1.7172,1.7006,1.6899,1.6899,1.6625,1.6511,1.6625,1.6585,1.668,1.6999,1.7006,1.72,1.7608,1.7876,1.8209,1.8657,1.9167,1.9395,1.9395,1.9395,1.9395,1.9395,1.9395,1.9395,1.9504,2.1002,2.2476,2.3961,2.5489,2.6997,2.8291,2.8291,2.8291,2.8291,-0.9625,-0.97,-0.9792,-0.9792,-0.9792,-0.9792,-0.9792,-0.9792,-0.9265,-0.7759,-0.6016,-0.4335,-0.2831,-0.1079,0.0,0.0,0.0,0.0,0.0,0.0,0.0,0.0,0.0,0.0,0.0,0.0,0.0,0.0,0.0,0.0,0.0,0.0,0.0,0.0,0.0,0.0,0.0,0.0,0.0,0.0,0.0,0.0,0.0353,0.3524,0.4728,0.5137,0.8285,0.9434,0.9427,0.9427,0.942,0.941,0.941,0.941,0.9323,0.9011,0.8926,0.8923,0.8916,0.8912,0.8912,0.8912,0.8912,0.8912,0.8912,0.8912,0.8912,0.8912,0.8912,0.8912,0.8912,0.8912,0.8912,0.8912,1.1374,1.3286,1.3271,1.5535,1.7192,1.7172,0.0,1.6872,1.7172,1.7219,1.7226,0.0,1.6919,1.6879,1.7186,1.6683,1.6491,1.6754,1.6787,1.7061,1.7609,1.7916,1.8369,1.893,1.9261,1.9395,1.9395,1.9395,1.9395,1.9395,1.9395,1.9453,1.9678,2.1145,2.2617,2.41,2.5654,2.7078,2.8291,2.8291,2.8291,2.8291,-0.9741,-0.9768,-0.9792,-0.9792,-0.9792,-0.9792,-0.9792,-0.9792,-0.9667,-0.9295,-0.6691,-0.4763,-0.4364,-0.1725,0.0,0.0,0.0,0.0,0.0,0.0,0.0,0.0,0.0,0.0,0.0,0.0,0.0,0.0,0.0,0.0,0.0,0.0,0.0,0.0,0.0,0.0,0.0,0.0,0.0,0.0,0.0,0.0,0.0354,0.3627,0.4866,0.5292,0.8525,0.9646,0.9554,0.9554,0.9479,0.941,0.941,0.941,0.9373,0.9186,0.9131,0.9107,0.894,0.8912,0.8912,0.8912,0.8912,0.8912,0.8912,0.8912,0.8912,0.8912,0.8912,0.8912,0.8912,0.8912,0.8912,0.8912,1.1374,1.3209,1.2957,1.5395,1.7119,0.0,1.6973,1.71,1.7192,1.7381,1.7414,0.0,0.0,1.7125,1.7199,1.7072,1.71,1.7394,1.7582,1.7769,1.7909,1.8429,1.8898,1.9294,1.9361,1.9395,1.9395,1.9395,1.9395,1.9395,1.9395,2.0033,2.1202,2.2681,2.4183,2.5709,2.7195,2.7977,2.8291,2.8291,2.8291,2.8291,-0.9792,-0.9792,-0.9792,-0.9792,-0.9792,-0.9792,-0.9792,-0.9792,-0.9792,-0.9792,-0.6938,-0.4885,-0.4885,-0.1971,0.0,0.0,0.0,0.0,0.0,0.0,0.0,0.0,0.0,0.0,0.0,0.0,0.0,0.0,0.0,0.0,0.0,0.0,0.0,0.0,0.0,0.0,0.0,0.0,0.0,0.0,0.0,0.0,0.0361,0.3663,0.4885,0.5345,0.8627,0.9741,0.9677,0.9677,0.9649,0.9581,0.9581,0.9581,0.9554,0.9434,0.9342,0.9271,0.9161,0.9089,0.9022,0.8926,0.8912,0.8912,0.8912,0.8912,0.8912,0.8912,0.8912,0.8912,0.8912,0.8912,0.8912,0.8912,1.125,1.3019,1.2819,1.5219,1.6966,1.6939,1.7099,1.7253,1.7361,1.7515,1.7541,1.7388,1.728,0.0,1.7367,1.7273,1.7307,1.7595,1.7856,1.8055,1.8223,1.8831,1.9205,1.9395,1.9395,1.9395,1.9395,1.9395,1.9395,1.9395,1.9395,2.0227,2.172,2.3179,2.471,2.6236,2.7726,2.8291,2.8291,2.8291,2.8291,2.8291,-0.9792,-0.9792,-0.9792,-0.9792,-0.9792,-0.9792,-0.9792,-0.9792,-0.9792,-0.9792,-0.6938,-0.4885,-0.4885,-0.1971,0.0,0.0,0.0,0.0,0.0,0.0,0.0,0.0,0.0,0.0,0.0,0.0,0.0,0.0,0.0,0.0,0.0,0.0,0.0,0.0,0.0,0.0,0.0,0.0,0.0,0.0,0.0,0.0,0.037,0.366,0.4885,0.5314,0.8623,0.9792,0.9792,0.9792,0.9792,0.9792,0.9792,0.9792,0.9768,0.9676,0.9551,0.9439,0.9424,0.9315,0.9186,0.9007,0.896,0.8943,0.8943,0.8926,0.8912,0.8912,0.8912,0.8912,0.8912,0.8912,0.8958,0.9154,1.1196,1.2868,1.3043,0.0,1.6892,1.7172,1.7239,1.7341,1.7582,1.7608,1.7608,1.7608,1.7381,1.7367,1.7662,1.7448,1.7448,1.7735,1.7949,1.8249,1.8617,1.9147,1.9395,1.9395,1.9395,1.9395,1.9395,1.9395,1.9395,1.9395,1.9395,2.0371,2.2032,2.3291,2.4856,2.6545,2.7816,2.8291,2.8291,2.8291,2.8291,2.8291,-0.9792,-0.9792,-0.9792,-0.9792,-0.9792,-0.9792,-0.9792,-0.9792,-0.9792,-0.9792,-0.6938,-0.4885,-0.4885,-0.1971,0.0,0.0,0.0,0.0,0.0,0.0,0.0,0.0,0.0,0.0,0.0,0.0,0.0,0.0,0.0,0.0,0.0,0.0,0.0,0.0,0.0,0.0,0.0,0.0,0.0,0.0,0.0,0.0,0.037,0.366,0.4885,0.5314,0.8623,0.9792,0.9792,0.9792,0.9792,0.9792,0.9792,0.9792,0.9788,0.9765,0.9741,0.9696,0.9449,0.9393,0.9369,0.9317,0.9243,0.9148,0.9148,0.9025,0.8912,0.8912,0.8912,0.8912,0.8912,0.8912,0.9223,1.0239,1.177,1.3153,1.418,0.0,1.7146,1.7199,1.7394,1.7555,1.7608,1.7608,1.7608,1.7608,1.7568,1.7649,1.7929,1.7902,1.8016,1.8343,1.8397,1.8684,1.9254,1.9354,1.9395,1.9395,1.9395,1.9395,1.9395,1.9395,1.9395,1.9395,1.9395,2.0931,2.3487,2.371,2.5434,2.7977,2.8211,2.8291,2.8291,2.8291,2.8291,2.8291,-0.9792,-0.9792,-0.9792,-0.9792,-0.9792,-0.9792,-0.9792,-0.9792,-0.9792,-0.9792,-0.6938,-0.4885,-0.4885,-0.1971,0.0,0.0,0.0,0.0,0.0,0.0,0.0,0.0,0.0,0.0,0.0,0.0,0.0,0.0,0.0,0.0,0.0,0.0,0.0,0.0,0.0,0.0,0.0,0.0,0.0,0.0,0.0,0.0,0.037,0.366,0.4885,0.5314,0.8623,0.9792,0.9792,0.9792,0.9792,0.9792,0.9792,0.9792,0.9792,0.9792,0.9792,0.9744,0.9561,0.9503,0.9486,0.943,0.9356,0.9305,0.9305,0.9225,0.9154,0.9069,0.9055,0.9028,0.8926,0.8912,0.935,1.0698,1.1981,1.3263,1.4619,1.6195,1.7199,1.7199,1.7434,1.7608,1.7608,1.7608,1.7649,1.7802,1.7829,1.7936,1.8243,1.8263,1.8424,1.8718,1.8724,1.8931,1.9395,1.9395,1.9395,1.9395,1.9395,1.9395,1.9395,1.9395,1.9395,1.9453,2.0227,2.182,2.385,2.471,2.6327,2.8291,2.8291,2.8291,2.8291,2.8291,2.8291,2.8291,-0.9792,-0.9792,-0.9792,-0.9792,-0.9792,-0.9792,-0.9792,-0.9792,-0.9792,-0.9792,-0.6938,-0.4885,-0.4885,-0.1971,0.0,0.0,0.0,0.0,0.0,0.0,0.0,0.0,0.0,0.0,0.0,0.0,0.0,0.0,0.0,0.0,0.0,0.0,0.0,0.0,0.0,0.0,0.0,0.0,0.0,0.0,0.0,0.0,0.037,0.366,0.4885,0.5314,0.8623,0.9792,0.9792,0.9792,0.9792,0.9792,0.9792,0.9792,0.9792,0.9792,0.9792,0.9768,0.969,0.9659,0.9632,0.9513,0.9459,0.9435,0.9435,0.9408,0.9376,0.9257,0.9233,0.9189,0.9015,0.896,0.9538,1.1218,0.0,1.343,1.5249,1.6484,1.7226,1.7293,1.7535,1.7689,1.7689,1.7749,1.7889,1.811,1.8116,1.8249,1.8577,1.8591,1.8724,1.9018,1.9025,1.9138,1.9395,1.9395,1.9395,1.9395,1.9395,1.9395,1.9395,1.9395,1.9591,1.9982,2.1116,2.2645,2.4433,2.5599,2.697,2.8291,2.8291,2.8291,2.8291,2.8291,2.8291,2.8291,-0.9792,-0.9792,-0.9792,-0.9792,-0.9792,-0.9792,-0.9792,-0.9792,-0.9792,-0.9792,-0.6938,-0.4885,-0.4885,-0.1971,0.0,0.0,0.0,0.0,0.0,0.0,0.0,0.0,0.0,0.0,0.0,0.0,0.0,0.0,0.0,0.0,0.0,0.0,0.0,0.0,0.0,0.0,0.0,0.0,0.0,0.0,0.0,0.0,0.037,0.366,0.4885,0.5314,0.8623,0.9792,0.9792,0.9792,0.9792,0.9792,0.9792,0.9792,0.9792,0.9792,0.9792,0.9788,0.9778,0.9775,0.9771,0.9761,0.969,0.9591,0.9591,0.9483,0.9407,0.9396,0.9393,0.9345,0.9192,0.9165,0.9956,1.2283,0.0,0.0,1.6646,1.7122,1.73,1.7541,1.7796,1.7955,1.7955,1.8263,1.843,1.8457,1.8457,1.8584,1.885,1.8863,1.9025,1.9354,1.9361,1.9374,1.9395,1.9395,1.9395,1.9395,1.9395,1.9395,1.9395,1.9395,2.0148,2.1443,2.1557,2.3255,2.5936,2.6045,2.697,2.8291,2.8291,2.8291,2.8291,2.8291,2.8291,2.8291,-0.9792,-0.9792,-0.9792,-0.9792,-0.9792,-0.9792,-0.9792,-0.9792,-0.9792,-0.9792,-0.6938,-0.4885,-0.4885,-0.1971,0.0,0.0,0.0,0.0,0.0,0.0,0.0,0.0,0.0,0.0,0.0,0.0,0.0,0.0,0.0,0.0,0.0,0.0,0.0,0.0,0.0,0.0,0.0,0.0,0.0,0.0,0.0,0.0,0.037,0.366,0.4885,0.5314,0.8623,0.9792,0.9792,0.9792,0.9792,0.9792,0.9792,0.9792,0.9792,0.9792,0.9792,0.9792,0.9792,0.9792,0.9792,0.9792,0.9751,0.971,0.971,0.9696,0.9629,0.954,0.9523,0.9476,0.9352,0.9243,1.0087,1.2803,0.0,1.4125,1.7043,1.7441,1.7555,1.7809,1.7949,1.8096,1.8276,1.8424,1.8564,1.8744,1.8758,1.8891,1.9185,1.9199,1.9281,1.9395,1.9395,1.9395,1.9395,1.9395,1.9395,1.9395,1.9395,1.9395,1.9424,2.0342,2.1059,2.1692,2.359,2.5041,2.6182,2.7078,2.778,2.8291,2.8291,2.8291,2.8291,2.8291,2.8291,2.8291,-0.9792,-0.9792,-0.9792,-0.9792,-0.9792,-0.9792,-0.9792,-0.9792,-0.9792,-0.9792,-0.6938,-0.4885,-0.4885,-0.1971,0.0,0.0,0.0,0.0,0.0,0.0,0.0,0.0,0.0,0.0,0.0,0.0,0.0,0.0,0.0,0.0,0.0,0.0,0.0,0.0,0.0,0.0,0.0,0.0,0.0,0.0,0.0,0.0,0.037,0.366,0.4885,0.5314,0.8623,0.9792,0.9792,0.9792,0.9792,0.9792,0.9792,0.9792,0.9792,0.9792,0.9792,0.9792,0.9792,0.9792,0.9792,0.9792,0.9792,0.9792,0.9792,0.9792,0.9761,0.9696,0.9676,0.9632,0.9483,0.9795,1.0858,1.3244,1.3959,1.5088,1.7534,1.7869,1.7949,1.8136,1.8236,1.8376,1.8604,1.8711,1.8851,1.9052,1.9065,1.9152,1.9388,1.9395,1.9395,1.9395,1.9395,1.9395,1.9395,1.9395,1.9395,1.9395,1.9395,1.9395,1.9453,2.0923,2.1834,2.242,2.4986,2.6354,2.6852,2.787,2.8291,2.8291,2.8291,2.8291,2.8291,2.8291,2.8291,2.8291,-0.9792,-0.9792,-0.9792,-0.9792,-0.9792,-0.9792,-0.9792,-0.9792,-0.9792,-0.9792,-0.6938,-0.4885,-0.4885,-0.1971,0.0,0.0,0.0,0.0,0.0,0.0,0.0,0.0,0.0,0.0,0.0,0.0,0.0,0.0,0.0,0.0,0.0,0.0,0.0,0.0,0.0,0.0,0.0,0.0,0.0,0.0,0.0,0.0,0.037,0.366,0.4885,0.5314,0.8623,0.9792,0.9792,0.9792,0.9792,0.9792,0.9792,0.9792,0.9792,0.9792,0.9792,0.9792,0.9792,0.9792,0.9792,0.9792,0.9792,0.9792,0.9792,0.9792,0.9792,0.9792,0.9792,0.9748,0.9639,1.0919,1.2391,1.3688,1.5226,1.6785,1.829,1.849,1.849,1.8497,1.8744,1.8896,1.8896,1.9192,1.9395,1.9395,1.9395,1.9395,1.9395,1.9395,1.9395,1.9395,1.9395,1.9395,1.9395,1.9395,1.9395,1.9395,1.9395,1.9395,1.9453,2.0923,2.2392,2.3877,2.5434,2.6943,2.8291,2.8291,2.8291,2.8291,2.8291,2.8291,2.8291,2.8291,2.8291,2.8291,-0.9792,-0.9792,-0.9792,-0.9792,-0.9792,-0.9792,-0.9792,-0.9792,-0.9792,-0.9792,-0.6938,-0.4885,-0.4885,-0.1971,0.0,0.0,0.0,0.0,0.0,0.0,0.0,0.0,0.0,0.0,0.0,0.0,0.0,0.0,0.0,0.0,0.0,0.0,0.0,0.0,0.0,0.0,0.0,0.0,0.0,0.0,0.0,0.0,0.037,0.366,0.4885,0.5314,0.8623,0.9792,0.9792,0.9792,0.9792,0.9792,0.9792,0.9792,0.9792,0.9792,0.9792,0.9792,0.9792,0.9792,0.9792,0.9792,0.9792,0.9792,0.9792,0.9792,0.9792,0.9792,0.9792,0.9778,0.9737,1.0058,1.1165,1.3707,1.4399,1.5519,1.8117,1.849,1.8564,1.8771,1.8843,1.8976,1.9219,1.9348,1.9395,1.9395,1.9395,1.9395,1.9395,1.9395,1.9395,1.9395,1.9395,1.9395,1.9395,1.9395,1.9395,1.9395,1.9395,1.9395,1.9453,2.0923,2.2392,2.3877,2.5434,2.6943,2.8291,2.8291,2.8291,2.8291,2.8291,2.8291,2.8291,2.8291,2.8291,2.8291,-0.9792,-0.9792,-0.9792,-0.9792,-0.9792,-0.9792,-0.9792,-0.9792,-0.9792,-0.9792,-0.6938,-0.4885,-0.4885,-0.1971,0.0,0.0,0.0,0.0,0.0,0.0,0.0,0.0,0.0,0.0,0.0,0.0,0.0,0.0,0.0,0.0,0.0,0.0,0.0,0.0,0.0,0.0,0.0,0.0,0.0,0.0,0.0,0.0,0.037,0.366,0.4885,0.5314,0.8623,0.9792,0.9792,0.9792,0.9792,0.9792,0.9792,0.9792,0.9792,0.9792,0.9792,0.9792,0.9792,0.9792,0.9792,0.9792,0.9792,0.9792,0.9792,0.9792,0.9792,0.9792,0.9792,0.9792,0.9792,1.0256,1.1462,1.3952,1.4803,1.5989,1.8486,1.8866,1.8933,1.9078,1.9098,1.9172,1.9381,1.9395,1.9395,1.9395,1.9395,1.9395,1.9395,1.9395,1.9395,1.9395,1.9395,1.9395,1.9395,1.9395,1.9395,1.9395,1.9395,1.9395,1.9453,2.0923,2.2392,2.3877,2.5434,2.6943,2.8291,2.8291,2.8291,2.8291,2.8291,2.8291,2.8291,2.8291,2.8291,2.8291,-0.9792,-0.9792,-0.9792,-0.9792,-0.9792,-0.9792,-0.9792,-0.9792,-0.9792,-0.9792,-0.6938,-0.4885,-0.4885,-0.1971,0.0,0.0,0.0,0.0,0.0,0.0,0.0,0.0,0.0,0.0,0.0,0.0,0.0,0.0,0.0,0.0,0.0,0.0,0.0,0.0,0.0,0.0,0.0,0.0,0.0,0.0,0.0,0.0,0.037,0.366,0.4885,0.5314,0.8623,0.9792,0.9792,0.9792,0.9792,0.9792,0.9792,0.9792,0.9792,0.9792,0.9792,0.9792,0.9792,0.9792,0.9792,0.9792,0.9792,0.9792,0.9792,0.9792,0.9792,0.9792,0.9792,0.9792,0.9792,1.111,1.2723,1.4336,1.5961,1.7566,1.9156,1.9395,1.9395,1.9395,1.9395,1.9395,1.9395,1.9395,1.9395,1.9395,1.9395,1.9395,1.9395,1.9395,1.9395,1.9395,1.9395,1.9395,1.9395,1.9395,1.9395,1.9395,1.9395,1.9395,1.9453,2.0923,2.2392,2.3877,2.5434,2.6943,2.8291,2.8291,2.8291,2.8291,2.8291,2.8291,2.8291,2.8291,2.8291,2.8291,-0.9792,-0.9792,-0.9792,-0.9792,-0.9792,-0.9792,-0.9792,-0.9792,-0.9792,-0.9792,-0.6938,-0.4885,-0.4885,-0.1971,0.0,0.0,0.0,0.0,0.0,0.0,0.0,0.0,0.0,0.0,0.0,0.0,0.0,0.0,0.0,0.0,0.0,0.0,0.0,0.0,0.0,0.0,0.0,0.0,0.0,0.0,0.0,0.0,0.037,0.366,0.4885,0.5314,0.8623,0.9792,0.9792,0.9792,0.9792,0.9792,0.9792,0.9792,0.9792,0.9792,0.9792,0.9792,0.9792,0.9792,0.9792,0.9792,0.9792,0.9792,0.9792,0.9792,0.9792,0.9792,0.9792,0.9792,0.9792,1.111,1.2723,1.4336,1.5961,1.7566,1.9156,1.9395,1.9395,1.9395,1.9395,1.9395,1.9395,1.9395,1.9395,1.9395,1.9395,1.9395,1.9395,1.9395,1.9395,1.9395,1.9395,1.9395,1.9395,1.9395,1.9395,1.9395,1.9395,1.9395,1.9453,2.0923,2.2392,2.3877,2.5434,2.6943,2.8291,2.8291,2.8291,2.8291,2.8291,2.8291,2.8291,2.8291,2.8291,2.8291,-0.9792,-0.9792,-0.9792,-0.9792,-0.9792,-0.9792,-0.9792,-0.9792,-0.9792,-0.9792,-0.6938,-0.4885,-0.4885,-0.1971,0.0,0.0,0.0,0.0,0.0,0.0,0.0,0.0,0.0,0.0,0.0,0.0,0.0,0.0,0.0,0.0,0.0,0.0,0.0,0.0,0.0,0.0,0.0,0.0,0.0,0.0,0.0,0.0,0.037,0.366,0.4885,0.5314,0.8623,0.9792,0.9792,0.9792,0.9792,0.9792,0.9792,0.9792,0.9792,0.9792,0.9792,0.9792,0.9792,0.9792,0.9792,0.9792,0.9792,0.9792,0.9792,0.9792,0.9792,0.9792,0.9792,0.9792,0.9792,1.111,1.2723,1.4336,1.5961,1.7566,1.9156,1.9395,1.9395,1.9395,1.9395,1.9395,1.9395,1.9395,1.9395,1.9395,1.9395,1.9395,1.9395,1.9395,1.9395,1.9395,1.9395,1.9395,1.9395,1.9395,1.9395,1.9395,1.9395,1.9395,1.9453,2.0923,2.2392,2.3877,2.5434,2.6943,2.8291,2.8291,2.8291,2.8291,2.8291,2.8291,2.8291,2.8291,2.8291,2.8291,-0.9792,-0.9792,-0.9792,-0.9792,-0.9792,-0.9792,-0.9792,-0.9792,-0.9792,-0.9792,-0.6938,-0.4885,-0.4885,-0.1971,0.0,0.0,0.0,0.0,0.0,0.0,0.0,0.0,0.0,0.0,0.0,0.0,0.0,0.0,0.0,0.0,0.0,0.0,0.0,0.0,0.0,0.0,0.0,0.0,0.0,0.0,0.0,0.0,0.037,0.366,0.4885,0.5314,0.8623,0.9792,0.9792,0.9792,0.9792,0.9792,0.9792,0.9792,0.9792,0.9792,0.9792,0.9792,0.9792,0.9792,0.9792,0.9792,0.9792,0.9792,0.9792,0.9792,0.9792,0.9792,0.9792,0.9879,1.0149,1.1529,1.3138,1.4748,1.635,1.7893,1.9214,1.9395,1.9395,1.9395,1.9395,1.9395,1.9395,1.9395,1.9395,1.9395,1.9395,1.9395,1.9395,1.9395,1.9395,1.9395,1.9395,1.9395,1.9395,1.9395,1.9395,1.9395,1.9395,1.9395,1.9453,2.1202,2.2645,2.3905,2.5709,2.7168,2.8291,2.8291,2.8291,2.8291,2.8291,2.8291,2.8291,2.8291,2.8291,2.8291,-0.9792,-0.9792,-0.9792,-0.9792,-0.9792,-0.9792,-0.9792,-0.9792,-0.9792,-0.9792,-0.6938,-0.4885,-0.4885,-0.1971,0.0,0.0,0.0,0.0,0.0,0.0,0.0,0.0,0.0,0.0,0.0,0.0,0.0,0.0,0.0,0.0,0.0,0.0,0.0,0.0,0.0,0.0,0.0,0.0,0.0,0.0,0.0,0.0,0.037,0.366,0.4885,0.5314,0.8623,0.9792,0.9792,0.9792,0.9792,0.9792,0.9792,0.9792,0.9792,0.9792,0.9792,0.9792,0.9792,0.9792,0.9792,0.9792,0.9792,0.9792,0.9792,0.9792,0.9792,0.9792,0.9792,1.024,1.1619,1.3198,1.4807,1.6403,1.8017,1.9156,1.9366,1.9395,1.9395,1.9395,1.9395,1.9395,1.9395,1.9395,1.9395,1.9395,1.9395,1.9395,1.9395,1.9395,1.9395,1.9395,1.9395,1.9395,1.9395,1.9395,1.9395,1.9395,1.9395,1.9395,1.9482,2.2238,2.3599,2.3961,2.678,2.8121,2.8291,2.8291,2.8291,2.8291,2.8291,2.8291,2.8291,2.8291,2.8291,2.8291,-0.9792,-0.9792,-0.9792,-0.9792,-0.9792,-0.9792,-0.9792,-0.9792,-0.9792,-0.9792,-0.6938,-0.4885,-0.4885,-0.1971,0.0,0.0,0.0,0.0,0.0,0.0,0.0,0.0,0.0,0.0,0.0,0.0,0.0,0.0,0.0,0.0,0.0,0.0,0.0,0.0,0.0,0.0,0.0,0.0,0.0,0.0,0.0,0.0555,0.1664,0.3996,0.5468,0.6597,0.8961,0.9792,0.9792,0.9792,0.9792,0.9792,0.9792,0.9792,0.9792,0.9792,0.9792,0.9792,0.9792,0.9792,0.9792,0.9792,0.9792,0.9792,0.9792,0.9792,0.9792,0.9792,0.9792,1.0301,1.1916,1.3526,1.5138,1.6733,1.8344,1.9395,1.9395,1.9395,1.9395,1.9395,1.9395,1.9395,1.9395,1.9395,1.9395,1.9395,1.9395,1.9395,1.9395,1.9395,1.9395,1.9395,1.9395,1.9395,1.9395,1.9395,1.9395,1.9395,1.9395,1.9395,1.9511,2.2464,2.3794,2.3961,2.7006,2.8291,2.8291,2.8291,2.8291,2.8291,2.8291,2.8291,2.8291,2.8291,2.8291,2.8291]},{"header":{"parameterUnit":"m.s-1","parameterCategory":1,"la1":30.6,"la2":28.766,"lo1":-90.7593,"lo2":-88.6598,"dy":0.0162,"dx":0.0183,"nx":116,"ny":114,"refTime":"2024-03-20T00:00:00:Z","depth":0,"parameterNumber":3,"parameterNumberName":"V-component_of_WINDS"},"data":[0.0,0.0,0.0,0.0,0.0,0.0,0.0,0.0,0.0,0.0,0.0,0.0,0.0,0.0,0.0,0.0,0.0,0.0,0.0,0.0,0.0,0.0,0.0,0.0,0.0,0.0,0.0,0.0,0.0,0.0,0.0,0.0,0.0,0.0,0.0,0.0,0.0,0.0,0.0,0.0,0.0,0.0,0.0,0.0,0.0,0.0,0.0,0.0,0.0,0.0,0.0,0.0,0.0,0.0,0.0,0.0,0.0,0.0,0.0,0.0,0.0,0.0,0.0,0.0,0.0,0.0,0.0,0.0,0.0,0.0,0.0,0.0,0.0,0.0,0.0,0.0,0.0,0.0,0.0,0.0,0.0,0.0,0.0,0.0,0.0,0.0,0.0,0.0,0.0,0.0,0.0,0.0,0.0,0.0,0.0,0.0,0.0,0.0,0.0,0.0,0.0,0.0,0.0,0.0,0.0,0.0,0.0,0.0,0.0,0.0,0.0,0.0,0.0,0.0,0.0,0.0,0.0,0.0,0.0,0.0,0.0,0.0,0.0,0.0,0.0,0.0,0.0,0.0,0.0,0.0,0.0,0.0,0.0,0.0,0.0,0.0,0.0,0.0,0.0,0.0,0.0,0.0,0.0,0.0,0.0,0.0,0.0,0.0,0.0,0.0,0.0,0.0,0.0,0.0,0.0,0.0,0.0,0.0,0.0,0.0,0.0,0.0,0.0,0.0,0.0,0.0,0.0,0.0,0.0,0.0,0.0,0.0,0.0,0.0,0.0,0.0,0.0,0.0,0.0,0.0,0.0,0.0,0.0,0.0,0.0,0.0,0.0,0.0,0.0,0.0,0.0,0.0,0.0,0.0,0.0,0.0,0.0,0.0,0.0,0.0,0.0,0.0,0.0,0.0,0.0,0.0,0.0,0.0,0.0,0.0,0.0,0.0,0.0,0.0,0.0,0.0,0.0,0.0,0.0,0.0,0.0,0.0,0.0,0.0,0.0,0.0,0.0,0.0,0.0,0.0,0.0,0.0,0.0,0.0,0.0,0.0,0.0,0.0,0.0,0.0,0.0,0.0,0.0,0.0,0.0,0.0,0.0,0.0,0.0,0.0,0.0,0.0,0.0,0.0,0.0,0.0,0.0,0.0,0.0,0.0,0.0,0.0,0.0,0.0,0.0,0.0,0.0,0.0,0.0,0.0,0.0,0.0,0.0,0.0,0.0,0.0,0.0,0.0,0.0,0.0,0.0,0.0,0.0,0.0,0.0,0.0,0.0,0.0,0.0,0.0,0.0,0.0,0.0,0.0,0.0,0.0,0.0,0.0,0.0,0.0,0.0,0.0,0.0,0.0,0.0,0.0,0.0,0.0,0.0,0.0,0.0,0.0,0.0,0.0,0.0,0.0,0.0,0.0,0.0,0.0,0.0,0.0,0.0,0.0,0.0,0.0,0.0,0.0,0.0,0.0,0.0,0.0,0.0,0.0,0.0,0.0,0.0,0.0,0.0,0.0,0.0,0.0,0.0,0.0,0.0,0.0,0.0,0.0,0.0,0.0,0.0,0.0,0.0,0.0,0.0,0.0,0.0,0.0,0.0,0.0,0.0,0.0,0.0,0.0,0.0,0.0,0.0,0.0,0.0,0.0,0.0,0.0,0.0,0.0,0.0,0.0,0.0,0.0,0.0,0.0,0.0,0.0,0.0,0.0,0.0,0.0,0.0,0.0,0.0,0.0,0.0,0.0,0.0,0.0,0.0,0.0,0.0,0.0,0.0,0.0,0.0,0.0,0.0,0.0,0.0,0.0,0.0,0.0,0.0,0.0,0.0,0.0,0.0,0.0,0.0,0.0,0.0,0.0,0.0,0.0,0.0,0.0,0.0,0.0,0.0,0.0,0.0,0.0,0.0,0.0,0.0,0.0,0.0,0.0,0.0,0.0,0.0,0.0,0.0,0.0,0.0,0.0,0.0,0.0,0.0,0.0,0.0,0.0,0.0,0.0,0.0,0.0,0.0,0.0,0.0,0.0,0.0,0.0,0.0,0.0,0.0,0.0,0.0,0.0,0.0,0.0,0.0,0.0,0.0,0.0,0.0,0.0,0.0,0.0,0.0,0.0,0.0,0.0,0.0,0.0,0.0,0.0,0.0,0.0,0.0,0.0,0.0,0.0,0.0,0.0,0.0,0.0,0.0,0.0,0.0,0.0,0.0,0.0,0.0,0.0,0.0,0.0,0.0,0.0,0.0,0.0,0.0,0.0,0.0,0.0,0.0,0.0,0.0,0.0,0.0,0.0,0.0,0.0,0.0,0.0,0.0,0.0,0.0,0.0,0.0,0.0,0.0,0.0,0.0,0.0,0.0,0.0,0.0,0.0,0.0,0.0,0.0,0.0,0.0,0.0,0.0,0.0,0.0,0.0,0.0,0.0,0.0,0.0,0.0,0.0,0.0,0.0,0.0,0.0,0.0,0.0,0.0,0.0,0.0,0.0,0.0,0.0,0.0,0.0,0.0,0.0,0.0,0.0,0.0,0.0,0.0,0.0,0.0,0.0,0.0,0.0,0.0,0.0,0.0,0.0,0.0,0.0,0.0,0.0,0.0,0.0,0.0,0.0,0.0,0.0,0.0,0.0,0.0,0.0,0.0,0.0,0.0,0.0,0.0,0.0,0.0,0.0,0.0,0.0,0.0,0.0,0.0,0.0,0.0,0.0,0.0,0.0,0.0,0.0,0.0,0.0,0.0,0.0,0.0,0.0,0.0,0.0,0.0,0.0,0.0,0.0,0.0,0.0,0.0,0.0,0.0,0.0,0.0,0.0,0.0,0.0,0.0,0.0,0.0,0.0,0.0,0.0,0.0,0.0,0.0,0.0,0.0,0.0,0.0,0.0,0.0,0.0,0.0,0.0,0.0,0.0,0.0,0.0,0.0,0.0,0.0,0.0,0.0,0.0,0.0,0.0,0.0,0.0,0.0,0.0,0.0,0.0,0.0,0.0,0.0,0.0,0.0,0.0,0.0,0.0,0.0,0.0,0.0,0.0,0.0,0.0,0.0,0.0,0.0,0.0,0.0,0.0,0.0,0.0,0.0,0.0,0.0,0.0,0.0,0.0,0.0,0.0,0.0,0.0,0.0,0.0,0.0,0.0,0.0,0.0,0.0,0.0,0.0,0.0,0.0,0.0,0.0,0.0,0.0,0.0,0.0,0.0,0.0,0.0,0.0,0.0,0.0,0.0,0.0,0.0,0.0,0.0,0.0,0.0,0.0,0.0,0.0,0.0,0.0,0.0,0.0,0.0,0.0,0.0,0.0,0.0,0.0,0.0,0.0,0.0,0.0,0.0,0.0,0.0,0.0,0.0,0.0,0.0,0.0,0.0,0.0,0.0,0.0,0.0,0.0,0.0,0.0,0.0,0.0,0.0,0.0,0.0,0.0,0.0,0.0,0.0,0.0,0.0,0.0,0.0,0.0,0.0,0.0,0.0,0.0,0.0,0.0,0.0,0.0,0.0,0.0,0.0,0.0,0.0,0.0,0.0,0.0,0.0,0.0,0.0,0.0,0.0,0.0,0.0,0.0,0.0,0.0,0.0,0.0,0.0,0.0,0.0,0.0,0.0,0.0,0.0,0.0,0.0,0.0,0.0,0.0,0.0,0.0,0.0,0.0,0.0,0.0,0.0,0.0,0.0,0.0,0.0,0.0,0.0,0.0,0.0,0.0,0.0,0.0,0.0,0.0,0.0,0.0,0.0,0.0,0.0,0.0,0.0,0.0,0.0,0.0,0.0,0.0,0.0,0.0,0.0,0.0,0.0,0.0,0.0,0.0,0.0,0.0,0.0,0.0,0.0,0.0,0.0,0.0,0.0,0.0,0.0,0.0,0.0,0.0,0.0,0.0,0.0,0.0,0.0,0.0,0.0,0.0,0.0,0.0,0.0,0.0,0.0,0.0,0.0,0.0,0.0,0.0,0.0,0.0,0.0,0.0,0.0,0.0,0.0,0.0,0.0,0.0,0.0,0.0,0.0,0.0,0.0,0.0,0.0,0.0,0.0,0.0,0.0,0.0,0.0,0.0,0.0,0.0,0.0,0.0,0.0,0.0,0.0,0.0,0.0,0.0,0.0,0.0,0.0,0.0,0.0,0.0,0.0,0.0,0.0,0.0,0.0,0.0,0.0,0.0,0.0,0.0,0.0,0.0,0.0,0.0,0.0,0.0,0.0,0.0,0.0,0.0,0.0,0.0,0.0,0.0,0.0,0.0,0.0,0.0,0.0,0.0,0.0,0.0,0.0,0.0,0.0,0.0,0.0,0.0,0.0,0.0,0.0,0.0,0.0,0.0,0.0,0.0,0.0,0.0,0.0,0.0,0.0,0.0,0.0,0.0,0.0,0.0,0.0,0.0,0.0,0.0,0.0,0.0,0.0,0.0,0.0,0.0,0.0,0.0,0.0,0.0,0.0,0.0,0.0,0.0,0.0,0.0,0.0,0.0,0.0,0.0,0.0,0.0,0.0,0.0,0.0,0.0,0.0,0.0,0.0,0.0,0.0,0.0,0.0,0.0,0.0,0.0,0.0,0.0,0.0,0.0,0.0,0.0,0.0,0.0,0.0,0.0,0.0,0.0,0.0,0.0,0.0,0.0,0.0,0.0,0.0,0.0,0.0,0.0,0.0,0.0,0.0,0.0,0.0,0.0,0.0,0.0,0.0,0.0,0.0,0.0,0.0,0.0,0.0,0.0,0.0,0.0,0.0,0.0,0.0,0.0,0.0,0.0,0.0,0.0,0.0,0.0,0.0,0.0,0.0,0.0,0.0,0.0,0.0,0.0,0.0,0.0,0.0,0.0,0.0,0.0,0.0,0.0,0.0,0.0,0.0,0.0,0.0,0.0,0.0,0.0,0.0,0.0,0.0,0.0,0.0,0.0,0.0,0.0,0.0,0.0,0.0,0.0,0.0,0.0,0.0,0.0,0.0,0.0,0.0,0.0,0.0,0.0,0.0,0.0,0.0,0.0,0.0,0.0,0.0,0.0,0.0,0.0,0.0,0.0,0.0,0.0,0.0,0.0,0.0,0.0,0.0,0.0,0.0,0.0,0.0,0.0,0.0,0.0,0.0,0.0,0.0,0.0,0.0,0.0,0.0,0.0,0.0,0.0,0.0,0.0,0.0,0.0,0.0,0.0,0.0,0.0,0.0,0.0,0.0,0.0,0.0,0.0,0.0,0.0,0.0,0.0,0.0,0.0,0.0,0.0,0.0,0.0,0.0,0.0,0.0,0.0,0.0,0.0,0.0,0.0,0.0,0.0,0.0,0.0,0.0,0.0,0.0,0.0,0.0,0.0,0.0,0.0,0.0,0.0,0.0,0.0,0.0,0.0,0.0,0.0,0.0,0.0,0.0,0.0,0.0,0.0,0.0,0.0,0.0,0.0,0.0,0.0,0.0,0.0,0.0,0.0,0.0,0.0,0.0,0.0,0.0,0.0,0.0,0.0,0.0,0.0,0.0,0.0,0.0,0.0,0.0,0.0,0.0,0.0,0.0,0.0,0.0,0.0,0.0,0.0,0.0,0.0,0.0,0.0,0.0,0.0,0.0,0.0,0.0,0.0,0.0,0.0,0.0,0.0,0.0,0.0,0.0,0.0,0.0,0.0,0.0,0.0,0.0,0.0,0.0,0.0,0.0,0.0,0.0,0.0,0.0,0.0,0.0,0.0,0.0,0.0,0.0,0.0,0.0,0.0,0.0,0.0,0.0,0.0,0.0,0.0,0.0,0.0,0.0,0.0,0.0,0.0,0.0,0.0,0.0,0.0,0.0,0.0,0.0,0.0,0.0,0.0,0.0,0.0,0.0,0.0,0.0,0.0,0.0,0.0,0.0,0.0,0.0,0.0,0.0,0.0,0.0,0.0,0.0,0.0,0.0,0.0,0.0,0.0,0.0,0.0,0.0,0.0,0.0,0.0,0.0,0.0,0.0,0.0,0.0,0.0,0.0,0.0,0.0,0.0,0.0,0.0,0.0,0.0,0.0,0.0,0.0,0.0,0.0,0.0,0.0,0.0,0.0,0.0,0.0,0.0,0.0,0.0,0.0,0.0,0.0,0.0,0.0,0.0,0.0,0.0,0.0,3.8594,0.0,0.0,0.0,0.0,0.0,0.0,0.0,0.0,0.0,0.0,0.0,0.0,0.0,0.0,0.0,0.0,0.0,0.0,0.0,0.0,0.0,0.0,0.0,0.0,0.0,0.0,0.0,0.0,0.0,0.0,0.0,0.0,0.0,0.0,0.0,0.0,0.0,4.0514,4.1102,4.0741,4.0781,4.1191,4.1191,4.1191,4.1191,0.0,0.0,0.0,0.0,0.0,0.0,0.0,0.0,0.0,0.0,0.0,0.0,0.0,0.0,0.0,0.0,0.0,0.0,0.0,0.0,0.0,0.0,0.0,0.0,0.0,0.0,0.0,0.0,0.0,0.0,0.0,0.0,0.0,0.0,0.0,0.0,0.0,0.0,0.0,0.0,0.0,0.0,0.0,0.0,0.0,0.0,0.0,0.0,0.0,0.0,0.0,0.0,0.0,0.0,0.0,0.0,0.0,0.0,0.0,0.0,0.0,0.0,0.0,0.0,0.0,0.0,0.0,0.0,0.0,0.0,0.0,3.9082,0.0,0.0,0.0,0.0,0.0,0.0,0.0,0.0,0.0,0.0,0.0,0.0,0.0,0.0,0.0,0.0,0.0,0.0,0.0,0.0,0.0,0.0,0.0,4.0496,4.0496,4.0496,4.0496,4.0439,0.0,0.0,0.0,0.0,0.0,4.0153,4.0339,3.9852,4.004,4.0936,4.039,4.0488,4.1191,4.1191,4.1191,4.1191,4.1191,0.0,0.0,0.0,0.0,0.0,0.0,0.0,0.0,0.0,0.0,0.0,0.0,0.0,0.0,0.0,0.0,0.0,0.0,0.0,0.0,0.0,0.0,0.0,0.0,0.0,0.0,0.0,0.0,0.0,0.0,0.0,0.0,0.0,0.0,0.0,0.0,0.0,0.0,0.0,0.0,0.0,0.0,0.0,0.0,0.0,0.0,0.0,0.0,0.0,0.0,0.0,0.0,0.0,0.0,0.0,0.0,0.0,0.0,0.0,0.0,0.0,0.0,0.0,4.0139,4.0532,4.0551,4.1222,4.1525,4.147,4.0671,4.1075,4.2194,4.0881,0.0,0.0,0.0,0.0,0.0,0.0,0.0,0.0,0.0,0.0,0.0,0.0,0.0,0.0,0.0,0.0,0.0,0.0,0.0,0.0,0.0,4.0496,4.0496,4.0496,4.0496,4.0208,3.9492,0.0,3.9127,3.8354,3.8334,3.8375,3.8454,3.9218,3.9705,3.9891,4.0661,4.1094,4.1191,4.1191,4.1191,4.1191,4.1191,4.0781,4.0117,0.0,0.0,0.0,0.0,0.0,0.0,0.0,0.0,0.0,0.0,0.0,0.0,0.0,0.0,0.0,0.0,0.0,0.0,0.0,0.0,0.0,0.0,0.0,0.0,0.0,0.0,0.0,0.0,0.0,0.0,0.0,0.0,0.0,0.0,0.0,0.0,0.0,0.0,0.0,0.0,0.0,3.7119,3.7757,0.0,0.0,0.0,0.0,0.0,0.0,0.0,0.0,0.0,0.0,0.0,0.0,0.0,3.9578,3.9578,4.1075,4.1827,4.1846,4.2643,4.3029,4.3029,4.3139,4.3176,4.3139,4.2323,0.0,4.2286,4.2066,0.0,0.0,0.0,0.0,0.0,0.0,0.0,0.0,0.0,0.0,0.0,0.0,0.0,0.0,0.0,0.0,0.0,0.0,0.0,0.0,0.0,4.0227,4.0496,4.0496,4.0496,4.0169,3.9358,3.93,3.8915,3.8046,3.8044,3.8114,3.8216,3.8689,3.9229,3.9816,4.0741,4.1191,4.1191,4.1191,4.1191,4.1191,4.1191,4.0996,4.0664,4.1035,0.0,0.0,0.0,0.0,0.0,0.0,0.0,0.0,0.0,0.0,0.0,0.0,0.0,0.0,0.0,0.0,0.0,0.0,0.0,0.0,0.0,0.0,0.0,0.0,0.0,0.0,0.0,0.0,0.0,0.0,0.0,0.0,0.0,0.0,0.0,0.0,0.0,0.0,0.0,3.7853,3.8469,3.9319,3.9476,3.9157,0.0,0.0,0.0,0.0,0.0,0.0,0.0,0.0,0.0,4.0021,4.0836,4.124,4.124,4.2396,4.2974,4.2992,4.3322,4.3506,4.3506,4.3506,4.3506,4.3469,4.3139,4.2974,4.2937,4.2488,4.2304,4.2231,0.0,0.0,0.0,0.0,3.9924,3.985,0.0,0.0,0.0,0.0,0.0,0.0,0.0,0.0,0.0,0.0,0.0,0.0,3.9569,4.015,4.0496,4.0496,4.0496,4.0169,3.9358,3.9088,3.8587,3.7766,3.7556,3.7523,3.7681,3.8197,3.9033,4.0234,4.0879,4.1191,4.1191,4.1191,4.1191,4.1191,4.1191,4.1074,4.0879,4.1113,4.0703,3.9922,0.0,0.0,0.0,0.0,0.0,0.0,0.0,0.0,0.0,0.0,0.0,0.0,0.0,0.0,0.0,0.0,0.0,0.0,0.0,0.0,0.0,0.0,0.0,0.0,0.0,0.0,0.0,0.0,0.0,0.0,0.0,0.0,0.0,0.0,0.0,0.0,0.0,3.8996,3.9786,4.0615,4.0939,4.0663,0.0,0.0,0.0,0.0,0.0,0.0,4.0469,4.0514,4.0873,4.169,4.2286,4.2598,4.2598,4.3194,4.3506,4.3506,4.3506,4.3506,4.3506,4.3506,4.3506,4.3506,4.3506,4.3506,4.3451,4.2845,4.2598,4.2598,4.2378,4.1929,4.1379,4.1168,4.0977,4.0879,0.0,0.0,0.0,0.0,0.0,0.0,0.0,0.0,0.0,0.0,0.0,3.9588,4.0362,4.0477,4.0496,4.0496,4.0496,4.0169,3.9358,3.853,3.7738,3.6983,3.6164,3.5818,3.6013,3.7709,3.9433,4.1133,4.1172,4.1191,4.1191,4.1191,4.1191,4.1191,4.1191,4.0742,4.0019,4.0859,4.0703,3.9961,4.0801,0.0,0.0,0.0,0.0,0.0,0.0,0.0,0.0,0.0,0.0,0.0,0.0,0.0,0.0,0.0,0.0,0.0,0.0,0.0,0.0,0.0,0.0,0.0,0.0,0.0,0.0,0.0,0.0,0.0,0.0,0.0,0.0,0.0,0.0,0.0,0.0,0.0,0.0,4.1158,4.2109,0.0,0.0,0.0,0.0,4.0999,4.0965,4.1323,4.2139,4.2176,4.2543,4.3341,4.3414,4.3433,4.3433,4.3469,4.3506,4.3506,4.3506,4.3506,4.3506,4.3506,4.3506,4.3506,4.3506,4.3506,4.3506,4.3451,4.3433,4.3359,4.2598,4.2286,4.2158,4.1379,4.1564,4.2206,0.0,0.0,0.0,0.0,0.0,0.0,0.0,0.0,3.7623,3.7623,3.8123,3.8569,3.8857,3.9858,4.0496,4.0496,4.0496,4.0169,3.9358,3.8473,3.7632,3.6807,3.6602,3.7129,3.8452,3.9667,4.082,4.1973,4.2539,4.2812,4.2812,4.2812,4.2812,4.2812,4.2812,4.2324,4.1504,4.1289,4.0703,3.9922,4.0234,3.9844,0.0,0.0,0.0,0.0,0.0,0.0,0.0,0.0,0.0,0.0,0.0,0.0,0.0,0.0,0.0,0.0,0.0,0.0,0.0,0.0,0.0,0.0,0.0,0.0,0.0,0.0,0.0,0.0,0.0,0.0,0.0,0.0,0.0,0.0,0.0,0.0,0.0,4.2728,4.3019,0.0,4.2425,4.2526,4.2408,4.1917,4.2359,4.2763,4.3065,4.3065,4.3194,4.3488,4.3993,4.4268,4.4268,4.4782,4.5039,4.5039,4.5039,4.5039,4.5039,4.5039,4.5039,4.5039,4.5039,4.5039,4.5039,4.5039,4.4424,4.3469,4.3176,4.3387,4.3801,4.3525,4.3929,4.4617,0.0,0.0,0.0,0.0,0.0,0.0,0.0,0.0,3.7584,3.7584,3.8084,3.8546,3.8819,3.9819,4.0496,4.0496,4.0496,4.0265,3.9746,3.8915,3.8218,3.7699,3.7865,3.8842,4.0703,4.1308,4.2012,4.2832,4.3418,4.3691,4.3691,4.3691,4.3691,4.3691,4.3691,4.3379,4.2793,4.2266,4.1387,4.0332,4.0332,3.9648,3.8652,0.0,0.0,0.0,0.0,0.0,0.0,0.0,0.0,0.0,0.0,0.0,0.0,0.0,0.0,0.0,0.0,0.0,0.0,0.0,0.0,0.0,0.0,0.0,0.0,0.0,0.0,0.0,0.0,0.0,0.0,0.0,0.0,0.0,0.0,0.0,4.2131,4.3474,4.347,4.327,4.3049,4.305,4.2934,4.2715,4.3451,4.3901,4.3901,4.4167,4.4314,4.4314,4.4837,4.5104,4.5104,4.5626,4.5902,4.5902,4.5902,4.5902,4.5902,4.5902,4.5755,4.5516,4.5773,4.5755,4.5516,4.5792,4.5268,4.4314,4.4314,4.4635,4.5104,4.5104,4.5443,4.5902,0.0,0.0,0.0,0.0,0.0,0.0,0.0,3.9281,3.9261,3.93,3.9319,3.9646,4.0458,4.0554,4.0573,4.0573,4.0573,4.0573,4.0535,3.9785,3.9422,3.9634,3.9822,4.0723,4.2402,4.2461,4.2891,4.373,4.3808,4.3828,4.3828,4.3828,4.3828,4.3828,4.3789,4.3769,4.373,4.373,4.2793,4.1289,4.1289,4.0234,3.8867,0.0,0.0,0.0,0.0,0.0,0.0,0.0,0.0,0.0,0.0,0.0,0.0,0.0,0.0,0.0,0.0,0.0,0.0,0.0,0.0,0.0,0.0,0.0,0.0,0.0,0.0,0.0,0.0,0.0,0.0,0.0,0.0,0.0,4.1828,4.2683,4.3296,4.3315,4.344,4.3506,4.3543,4.3543,4.3543,4.3561,4.4305,4.4737,4.4737,4.5461,4.5865,4.5865,4.5883,4.5902,4.5902,4.5957,4.5975,4.5975,4.5975,4.5975,4.5975,4.5975,4.5553,4.4865,4.5645,4.5535,4.4865,4.5645,4.5975,4.5975,4.592,4.592,4.5938,4.5938,4.5957,4.5975,0.0,0.0,0.0,0.0,0.0,0.0,4.0246,3.9146,3.8588,3.9223,3.9804,4.0492,4.1354,4.2008,4.2393,4.2393,4.2393,4.2124,4.1489,4.0646,4.0282,4.0527,4.0636,4.1535,4.3301,4.3965,4.4394,4.4648,4.5918,4.6523,4.6523,4.6523,4.6523,4.6504,4.5879,4.5234,4.4648,4.4648,4.4004,4.3008,4.3008,4.1992,4.0547,0.0,0.0,0.0,0.0,0.0,0.0,0.0,0.0,0.0,0.0,0.0,0.0,0.0,0.0,0.0,0.0,0.0,0.0,0.0,0.0,0.0,0.0,0.0,0.0,0.0,0.0,0.0,0.0,0.0,0.0,0.0,4.2551,4.3148,4.3233,4.3064,4.3158,4.3735,4.3637,4.3726,4.4305,4.4378,4.4617,4.5204,4.5443,4.5571,4.5571,4.5232,4.503,4.503,4.5608,4.5902,4.5902,4.7058,4.7645,4.7645,4.7645,4.7645,4.7645,4.7645,4.7517,4.7324,4.7544,4.7507,4.7324,4.7553,4.7645,4.7517,4.6361,4.6269,4.6773,4.6773,4.714,4.7572,0.0,0.0,0.0,0.0,0.0,0.0,4.1108,3.9915,3.9358,4.0239,4.0758,4.1373,4.2254,4.2797,4.3104,4.3104,4.3104,4.2739,4.1869,4.1401,4.1584,4.2524,4.2646,4.3511,4.5293,4.582,4.6269,4.6621,4.7656,4.8144,4.8144,4.8144,4.8144,4.8125,4.7617,4.6914,4.6094,4.6094,4.5586,4.4785,4.4785,4.3555,4.1738,4.2109,4.1504,4.0488,4.082,4.1367,4.1836,4.1367,0.0,0.0,0.0,0.0,0.0,0.0,0.0,0.0,0.0,0.0,0.0,0.0,0.0,0.0,0.0,0.0,0.0,0.0,0.0,0.0,0.0,0.0,0.0,0.0,4.3271,4.4164,4.4573,4.3873,4.3655,4.4642,4.4307,4.4323,4.5122,4.5195,4.5406,4.5865,4.6214,4.6406,4.6406,4.6278,4.6058,4.5727,4.648,4.6746,4.6406,4.7654,4.8296,4.8296,4.8296,4.8296,4.8296,4.8296,4.8113,4.7819,4.815,4.8113,4.7819,4.815,4.8296,0.0,0.0,0.0,0.0,0.0,4.7911,4.8223,0.0,0.0,0.0,0.0,0.0,0.0,4.1927,4.1143,4.0954,4.1831,4.2023,4.2408,4.3297,4.3374,4.3374,4.3374,4.3297,4.2863,4.2002,4.2069,4.2948,4.4825,4.5054,4.5918,4.7558,4.7695,4.8125,4.8906,4.9004,4.9043,4.9043,4.9043,4.9043,4.9043,4.8945,4.8476,4.7754,4.7754,4.7246,4.6445,4.6445,4.4941,4.2773,4.3555,4.293,4.1719,4.2441,4.2305,4.1758,4.166,0.0,0.0,0.0,0.0,0.0,0.0,0.0,0.0,0.0,0.0,0.0,0.0,0.0,0.0,0.0,0.0,0.0,0.0,0.0,0.0,0.0,0.0,0.0,0.0,4.3968,4.4844,4.5729,4.4955,4.4662,4.5695,4.5232,4.514,4.5957,4.6049,4.6067,4.6159,4.6828,4.7241,4.7241,0.0,0.0,0.0,0.0,4.7819,4.7113,4.7911,4.8296,4.8296,4.8296,4.8296,4.8296,4.8296,4.7911,4.7278,4.7984,4.7893,4.7278,4.8003,4.8296,4.8296,4.8296,4.8296,4.8296,4.8205,4.8223,4.8296,0.0,0.0,0.0,0.0,0.0,0.0,4.1927,4.1658,4.185,4.2739,4.3412,4.4143,4.5013,4.5109,4.5109,4.5109,4.4474,4.374,4.2979,4.2508,4.3057,4.4827,4.564,4.6543,4.7578,4.8281,4.873,4.8906,4.9609,4.9941,4.9941,4.9941,4.9941,4.9922,4.9219,4.8808,4.8652,4.8652,4.8144,4.7344,4.7344,4.6191,4.4512,4.4687,4.4551,4.4297,4.4433,4.4844,4.5215,4.4492,4.4277,4.4257,4.4142,4.3681,0.0,0.0,0.0,0.0,0.0,0.0,0.0,0.0,0.0,0.0,0.0,0.0,0.0,0.0,0.0,0.0,0.0,0.0,0.0,4.4047,4.5112,4.5979,4.6181,4.6095,4.5977,4.5881,4.5752,4.5984,4.6792,4.6865,4.714,4.7783,4.7984,4.8076,4.8076,4.759,4.7259,4.7094,4.7241,4.7259,4.7094,4.7911,4.8296,4.8296,0.0,0.0,4.8296,4.8296,4.8223,4.8076,4.8223,4.8205,4.8076,4.8241,4.8296,4.8296,4.8296,4.8296,4.8223,4.7571,4.7746,4.8205,0.0,0.0,0.0,0.0,0.0,0.0,4.2446,4.172,4.145,4.2331,4.2797,4.3528,4.4801,4.459,4.4513,4.4917,4.4207,4.3811,4.3939,4.3733,4.4193,4.5537,4.6464,4.7363,4.8223,4.9101,4.9746,5.0156,5.0586,5.0801,5.0801,5.0801,5.0801,5.0781,5.0351,4.9922,4.9551,4.9551,4.8808,4.7598,4.7598,4.6816,4.5644,4.5644,4.5644,4.5644,4.5644,4.5937,4.623,4.5801,4.5644,4.5644,4.5579,4.5176,4.4559,0.0,0.0,0.0,0.0,0.0,0.0,0.0,0.0,0.0,0.0,0.0,0.0,0.0,0.0,4.3104,4.3104,0.0,4.397,4.4801,4.5346,4.609,4.7362,4.7285,4.7029,4.6819,4.6626,4.6828,4.7617,4.7709,4.7874,4.826,4.8296,4.8296,4.8296,4.7911,4.7516,4.7113,4.748,4.7498,4.7094,4.7911,4.8296,4.8296,4.8296,4.8296,4.8296,4.8296,4.8296,4.8296,4.8296,4.8296,4.8296,4.8296,4.8296,4.8296,4.8296,4.8296,4.8241,4.7856,4.7948,4.8241,0.0,0.0,0.0,0.0,0.0,0.0,0.0,4.1801,4.1204,4.1735,4.1946,4.2562,4.3912,4.3489,4.3297,4.3778,4.3465,4.3582,4.4385,4.4744,4.5321,4.6269,4.7305,4.8183,4.8887,4.9902,5.0742,5.1406,5.1406,5.1406,5.1406,5.1406,5.1406,5.1406,5.1406,5.1035,5.043,5.043,4.9531,4.8086,4.793,4.7324,4.6523,4.6367,4.6308,4.6308,4.6308,4.6308,4.6308,4.6308,4.6308,4.6308,4.6268,4.6173,4.5747,4.4102,4.4026,0.0,0.0,0.0,0.0,0.0,0.0,0.0,0.0,0.0,4.3547,4.3374,4.347,4.3585,4.3585,4.372,4.4278,4.5629,4.5845,4.6524,4.8414,4.8328,4.799,4.7833,4.7527,4.7599,4.8241,4.8296,4.8296,4.8296,4.8296,4.8296,4.8296,4.8471,4.8241,4.7599,4.8351,4.8462,4.7838,4.8462,4.8802,4.8773,4.8636,4.8545,4.8545,4.8379,4.8296,4.8296,4.8296,4.8296,4.8296,4.8296,4.8296,4.8296,4.8296,4.8296,4.8296,4.8296,4.8296,4.8296,0.0,0.0,0.0,0.0,0.0,0.0,0.0,0.0,4.2566,4.1889,4.2466,4.3028,4.3201,4.3143,4.2816,4.2139,4.2872,4.3439,4.3539,4.4448,4.5371,4.6269,4.7871,4.8808,4.8906,5.0449,5.1308,5.1406,5.1406,5.1406,5.1406,5.1406,5.1406,5.1406,5.1406,5.1348,5.1269,5.1269,5.0742,4.9844,4.9062,4.8223,4.7363,4.6582,4.6308,4.6308,4.6308,4.6308,4.6308,4.6308,4.6308,4.6289,4.615,4.6035,4.5724,4.4677,4.435,4.3946,4.2262,4.1316,4.0973,4.1754,4.2523,4.3104,0.0,0.0,4.509,4.434,4.4782,4.5321,4.5321,4.5951,4.6543,4.6716,4.7967,4.8755,4.834,4.8852,4.9024,4.832,4.8188,4.8205,4.8296,4.8296,4.8296,4.8296,4.8296,4.8296,4.8296,4.9031,4.938,4.9242,5.0068,5.049,5.0398,5.049,5.0527,5.0498,4.9802,4.9454,4.9435,4.8655,4.8296,4.8296,4.8296,4.8296,4.8296,4.8296,4.8296,4.8296,4.8296,4.8296,4.8296,4.8296,4.8296,4.8296,0.0,0.0,0.0,0.0,0.0,0.0,0.0,0.0,0.0,4.1162,4.1358,4.1781,4.2293,4.2331,4.1989,4.1123,4.2493,4.3401,4.3405,4.4882,4.5918,4.6289,4.748,4.8379,4.8887,5.0078,5.0937,5.1406,5.1406,5.1406,5.1406,5.1406,5.1406,5.1406,5.1406,5.1406,5.1406,5.1406,5.0644,4.9414,4.9043,4.8066,4.6797,4.6445,4.6308,4.623,4.5723,4.5547,0.0,4.5547,4.5547,4.5625,4.6069,4.5808,4.5235,4.4759,4.4168,4.3495,4.2756,4.2624,4.2801,4.3162,4.3912,4.4551,4.4551,4.509,4.5648,4.5778,4.6105,4.6509,4.6971,4.6966,4.7216,0.0,4.8354,4.8577,4.9214,4.9219,4.9037,4.8692,4.8034,4.759,4.759,4.8021,4.8113,4.7636,4.8508,4.9068,4.9068,4.9858,5.0288,5.0251,5.0618,5.0802,5.0802,5.0802,5.0802,5.0802,5.0453,5.0298,5.0288,4.9921,4.9499,4.9031,4.8526,4.8296,4.8296,4.8296,4.8296,4.8296,4.8296,4.8296,4.8296,4.8296,4.8296,4.8296,0.0,0.0,0.0,0.0,0.0,0.0,0.0,0.0,0.0,0.0,4.0704,4.1012,4.1393,4.145,4.1181,4.0554,4.2246,4.3352,4.3403,4.5184,4.6268,4.6308,4.7129,4.7891,4.8535,4.9394,5.0234,5.1074,5.1074,5.1172,5.1406,5.1406,5.1406,5.1406,5.1406,5.1289,5.1074,5.1074,5.0234,4.8887,4.8633,4.7793,4.6621,4.6387,4.6152,4.5859,4.5234,4.5,4.4961,4.4726,4.4805,4.5078,4.5469,4.5241,4.4772,4.4431,4.3613,4.2858,4.3053,4.3355,4.372,4.4182,4.4763,4.5379,4.5859,4.5956,4.6201,4.7062,4.7235,4.7408,4.7985,4.7812,4.799,4.9202,4.886,4.8791,4.9784,4.9532,4.9033,4.8481,4.7736,4.7049,4.6489,4.7379,4.7911,4.7801,4.8921,4.9702,4.9913,5.0692,5.1132,5.1132,5.1353,5.1453,5.1453,5.1453,5.1453,5.1453,5.1242,5.1132,5.1114,5.0894,5.0362,4.9555,4.894,4.8526,4.8296,4.8296,4.8296,4.8296,4.8296,4.8296,4.8296,4.8296,4.8296,4.8296,0.0,0.0,0.0,0.0,0.0,0.0,0.0,0.0,0.0,0.0,0.0,0.0,0.0,4.0535,4.0535,4.0496,4.2153,4.3269,4.3399,4.5103,4.6152,4.6289,4.7129,4.7617,4.7637,4.8496,4.9375,5.0234,5.0234,5.0644,5.1406,5.1406,5.1406,5.1406,5.1406,5.0976,5.0234,5.0234,4.9726,4.8828,4.7988,4.7617,4.7461,4.6621,4.5781,4.5039,4.5019,4.5,4.4863,4.4023,4.4297,4.4863,4.4043,4.4205,4.4549,4.3683,4.2677,4.2031,4.2874,4.2504,4.2273,4.3893,4.4316,4.4778,4.6485,4.6851,4.7081,4.7889,4.8062,4.8062,4.8101,4.8779,4.9336,4.9394,5.0087,5.0353,4.9617,4.9827,4.9348,4.7389,4.7481,4.6917,0.0,4.6223,4.7801,4.9399,4.9574,4.9931,5.0729,5.1518,5.1969,5.1969,5.2729,5.3122,5.3122,5.3122,5.3122,5.3122,5.2344,5.1969,5.195,5.1151,5.0362,4.961,4.9574,4.9087,4.8296,4.8296,4.8296,4.8296,4.8296,4.8296,4.8296,4.8296,4.8296,4.8296,0.0,0.0,0.0,0.0,0.0,0.0,0.0,0.0,0.0,0.0,0.0,0.0,0.0,0.0,0.0,0.0,4.1667,4.2684,4.336,4.4597,4.5606,4.6269,4.6582,4.7012,4.7598,4.7891,4.8457,4.9336,4.9336,4.9473,4.9746,4.9746,4.9746,4.9746,4.9746,4.959,4.9336,4.9336,4.8828,4.8008,4.7715,4.7246,4.6641,4.5762,4.5254,4.4844,0.0,4.3262,4.3223,4.2949,4.3027,4.332,4.3564,4.3335,4.2784,4.1765,4.2043,4.2604,4.2312,4.2835,4.372,4.4878,4.5605,4.6312,4.7447,4.7697,4.7947,4.8798,4.8509,4.8274,4.8856,4.874,4.8721,4.9317,4.9163,4.9189,4.9816,4.9016,4.835,4.8311,4.7429,0.0,0.0,0.0,0.0,4.7929,4.9958,5.1308,5.1573,5.2362,5.2803,5.2803,5.3067,5.3196,5.3196,5.3196,5.3196,5.3196,5.292,5.2803,5.2766,5.1958,5.1455,5.1124,5.0069,4.9435,4.9123,4.8545,4.8296,4.8296,4.8296,4.8296,4.8296,4.8296,4.8296,4.823,0.0,0.0,0.0,0.0,0.0,0.0,0.0,0.0,0.0,0.0,0.0,0.0,0.0,0.0,0.0,0.0,0.0,4.2579,4.2909,4.3873,4.4727,4.5332,4.5371,4.5625,4.6191,4.6504,4.7109,4.7969,4.8281,4.8594,4.8906,4.8906,4.8906,4.8906,4.8906,4.873,4.8437,4.8437,4.793,4.7109,4.6797,4.6348,4.5742,4.4863,4.4336,0.0,4.2793,4.2226,4.1973,4.1973,4.2168,4.2421,4.2613,4.2184,4.1577,4.1457,4.1989,4.2639,4.2677,4.3701,4.4975,4.5859,4.6701,4.7543,4.8375,4.8567,4.8817,4.9687,4.9413,4.9106,4.9356,4.8933,4.8759,4.9317,4.8933,4.8917,4.9968,4.9146,4.8434,4.8463,4.752,4.7132,0.0,0.0,0.0,4.8021,5.0215,5.1712,5.1987,5.2491,5.2902,5.3196,5.3196,5.3196,5.3196,5.3196,5.3196,5.3196,5.3196,5.3196,5.3177,5.2656,5.2123,5.1518,5.0775,5.0133,4.9555,4.8995,4.8765,4.8728,4.8406,4.8296,4.8296,4.8296,4.8296,4.8239,0.0,0.0,0.0,0.0,0.0,0.0,0.0,0.0,0.0,0.0,0.0,0.0,0.0,0.0,0.0,0.0,0.0,0.0,4.22,4.3063,4.3627,4.3691,4.3691,4.3691,4.3691,4.4512,4.5332,4.6172,4.6992,4.7812,4.8633,4.8633,4.8633,4.8633,4.8633,4.8164,4.7402,4.7402,4.6914,4.6094,4.5273,4.4922,4.4844,4.3965,4.3125,4.2383,4.2344,4.1855,4.1191,4.1191,4.1738,4.2244,4.1374,4.0974,4.1119,4.2603,4.2504,4.2273,4.3874,4.4975,4.5898,4.6793,4.7601,4.8394,4.926,4.9471,4.9687,5.0476,5.0592,5.0303,0.0,0.0,4.9221,4.9317,4.9298,4.946,4.9986,5.0009,4.9415,0.0,0.0,0.0,0.0,0.0,0.0,4.9656,0.0,5.1261,5.2024,5.206,5.2417,5.3177,5.3196,5.3196,5.3196,5.3196,5.3196,5.3196,5.3196,5.3196,5.3196,5.3196,5.237,5.0967,5.1683,5.1124,4.9721,4.9684,4.9647,4.9519,4.8691,4.8333,4.8296,4.8296,4.8287,4.8239,0.0,0.0,0.0,0.0,0.0,0.0,0.0,0.0,0.0,0.0,0.0,0.0,0.0,0.0,0.0,0.0,0.0,0.0,4.3067,4.3315,4.353,4.3691,4.3691,4.3691,4.3691,4.3926,4.4141,4.4355,4.459,4.4805,4.5039,4.5039,4.5039,4.5039,4.5039,4.4902,4.4687,4.4687,4.457,4.4336,4.4121,4.4023,4.3945,4.3066,4.2598,4.2324,4.1719,4.1367,4.1191,4.1191,4.1641,4.2232,4.2529,4.2573,4.2437,4.2193,4.2854,4.3758,4.4182,4.5413,4.6913,4.8394,4.8913,4.9298,5.0168,5.0361,5.0245,4.9822,4.9202,4.8509,0.0,0.0,0.0,4.824,4.7928,0.0,4.9397,4.8755,0.0,4.8083,0.0,4.8691,4.8951,5.0427,0.0,0.0,5.1783,5.2682,5.2884,5.2884,5.2994,5.3196,5.3196,5.3196,5.3196,5.3196,5.3196,5.3196,5.3196,5.3196,5.3196,5.3196,5.2976,5.2572,5.216,5.1767,5.1344,5.0739,5.0151,4.9574,4.9362,4.8875,4.8296,4.8296,4.8025,4.7625,0.0,0.0,0.0,0.0,0.0,0.0,0.0,0.0,0.0,0.0,0.0,0.0,0.0,0.0,0.0,0.0,0.0,0.0,0.0,4.3468,4.3386,4.3144,4.3125,4.2969,4.2617,4.332,4.3691,4.3691,4.4082,4.4277,4.4258,4.3887,4.3691,4.3691,4.3691,4.3691,4.3691,4.3691,4.3691,0.0,0.0,4.3125,4.3047,4.2187,4.1875,4.1816,4.1367,4.1151,4.128,4.2375,4.2432,4.2254,4.3407,4.3457,4.3143,4.3393,4.4124,4.4955,4.5336,4.6682,4.8221,4.9163,4.9687,4.9995,5.0111,5.013,4.988,4.9009,4.8432,4.7851,4.7043,4.6509,4.6586,0.0,0.0,0.0,4.9015,4.8408,4.7887,0.0,4.8362,0.0,5.0024,5.1253,5.1958,5.1856,5.2362,5.2674,5.2674,5.2674,5.2829,5.3196,5.3196,5.3196,5.3196,5.3196,5.3196,5.3196,5.3196,5.3196,5.3196,5.3196,5.3012,5.2674,5.2564,5.2325,5.1969,5.1499,5.1069,5.061,5.0261,4.9829,4.9323,4.8662,4.8221,4.7789,0.0,0.0,0.0,0.0,0.0,0.0,0.0,0.0,0.0,0.0,0.0,0.0,0.0,0.0,0.0,0.0,0.0,0.0,0.0,0.0,4.3395,4.2617,4.2578,4.2246,4.1543,4.2969,4.3633,4.3535,4.4277,4.4609,4.4473,4.3711,4.3379,4.3379,4.3379,4.3379,4.3379,4.3379,4.3379,4.3301,4.2558,4.2246,4.2168,0.0,4.1191,4.1191,4.1191,4.1182,4.1481,4.3761,4.3473,4.245,4.4127,4.4091,4.372,4.5167,4.5686,4.5956,4.6812,4.8202,4.9433,4.9529,5.0149,5.0495,4.9745,4.9471,4.9144,4.8274,4.8024,4.7735,4.7024,4.6908,4.7158,4.7966,0.0,4.8153,4.8516,4.8363,4.8047,4.7586,4.8088,4.9095,5.0655,5.1518,5.2325,5.3141,5.2546,5.216,5.216,5.216,5.2472,5.3177,5.3196,5.3196,5.3196,5.3196,5.3196,5.3196,5.3196,5.3196,5.3196,5.3196,5.2821,5.2207,5.2913,5.2792,5.216,5.216,5.2097,5.1932,5.1224,5.0894,5.0621,4.9245,4.8694,4.8344,0.0,0.0,0.0,0.0,0.0,0.0,0.0,0.0,0.0,0.0,4.5148,0.0,0.0,0.0,0.0,0.0,0.0,0.0,0.0,0.0,0.0,4.3515,4.3476,4.3418,4.3262,4.3555,4.3359,4.2637,4.2773,4.2519,4.1855,4.1699,4.1621,4.1621,4.1621,4.1621,4.1621,4.1621,4.1621,4.1621,4.1465,4.1406,4.1387,4.125,0.0,0.0,4.1191,4.1516,4.208,4.3244,4.3329,4.3279,4.4905,4.5293,4.5225,4.5518,4.6105,4.6851,4.7678,4.8625,4.9567,5.0284,5.0592,5.0649,5.0515,4.9918,0.0,4.8274,4.7562,4.7062,4.6928,4.6908,4.7158,4.7966,4.7877,4.7469,4.6835,4.7363,4.7514,0.0,4.8255,4.9747,5.071,5.1518,0.0,0.0,5.3067,5.2994,5.2994,5.2994,5.3067,5.3196,5.3196,5.3196,5.3196,5.3196,5.3196,5.3196,5.3196,5.3196,5.3196,5.3196,5.3122,5.2994,5.3141,0.0,5.2994,5.2994,5.2601,5.1987,5.1858,5.1389,5.0694,4.984,4.9201,4.8628,0.0,0.0,0.0,0.0,0.0,0.0,0.0,0.0,0.0,4.3797,4.4051,4.4455,0.0,0.0,0.0,0.0,0.0,0.0,0.0,0.0,0.0,0.0,4.4375,4.416,4.3711,4.4141,4.418,4.375,0.0,4.3555,4.3164,4.2246,4.1816,4.1816,4.1387,4.1191,4.1191,4.1191,4.1191,4.1191,4.1191,4.1191,4.1191,0.0,0.0,0.0,0.0,4.1625,4.1632,4.2952,4.3286,4.3443,4.5086,4.5594,4.5594,4.5594,4.6509,4.7601,4.8005,4.9067,5.0188,5.0592,5.0707,5.0457,4.9548,0.0,0.0,4.7067,4.649,4.622,4.622,4.622,4.6644,4.7889,4.7782,4.7498,4.7365,4.7541,4.7473,4.6848,4.8402,4.9711,5.0133,5.1289,5.216,5.2546,5.2582,5.2755,5.3177,5.3196,5.3196,5.3196,5.3196,5.3196,5.3196,5.3196,5.3196,5.3196,5.3196,5.3196,5.3196,5.3196,5.3196,5.3196,5.3196,5.2957,5.2619,5.3031,5.2729,5.2042,5.2454,5.2154,5.1344,5.0252,4.9431,4.8697,0.0,0.0,0.0,0.0,0.0,0.0,0.0,4.4297,4.3932,4.2951,4.2989,4.3335,4.397,4.4801,4.5398,0.0,0.0,0.0,0.0,0.0,0.0,0.0,0.0,0.0,0.0,0.0,0.0,4.5,4.5,0.0,0.0,0.0,0.0,0.0,4.1816,4.1465,4.1465,4.1465,4.1367,0.0,0.0,4.1191,0.0,0.0,0.0,0.0,0.0,4.1584,4.1299,4.2639,4.3101,4.3335,4.4648,4.5186,4.5436,4.5975,4.6951,4.7966,4.8509,4.9668,5.0707,5.0707,5.0707,5.0284,4.874,4.8235,0.0,4.6186,4.5725,4.5667,4.584,4.5879,4.6379,4.7851,4.7618,4.7432,4.7957,4.7683,4.7343,4.7141,4.8526,0.0,4.9839,5.1161,0.0,5.2234,5.2252,5.2527,5.3177,5.3196,5.3196,5.3196,5.3196,5.3196,5.3196,5.3196,5.3196,5.3196,5.3196,5.3196,5.3196,5.3196,5.3196,5.3196,5.3196,5.2747,5.206,5.2865,5.2729,5.2079,5.2884,5.2842,5.2164,5.0742,4.9873,4.9184,0.0,0.0,0.0,0.0,0.0,0.0,0.0,4.4297,4.372,4.2139,4.2604,4.3124,4.3201,4.3932,4.4744,0.0,0.0,0.0,0.0,0.0,0.0,0.0,0.0,0.0,0.0,0.0,0.0,4.5,4.5,0.0,0.0,0.0,0.0,0.0,0.0,4.2285,4.2285,4.2285,0.0,0.0,0.0,0.0,0.0,0.0,0.0,0.0,0.0,4.1389,4.2002,4.21,4.2567,4.3124,4.3278,4.3835,4.4874,4.7182,0.0,0.0,4.9822,5.0572,5.0707,5.0707,5.0707,5.0457,4.949,0.0,4.7851,4.6966,4.6144,4.584,4.662,4.6774,4.7062,4.7966,4.7141,4.6575,4.7049,4.6772,4.666,4.7058,0.0,0.0,5.0618,5.1491,5.2307,5.3031,5.3086,5.3122,5.3196,5.3196,5.3196,5.3196,5.3196,5.3196,5.3196,5.3196,5.3196,5.3196,5.3196,5.3196,5.3196,5.3196,5.3196,5.3196,5.3196,5.2747,0.0,5.2865,5.2729,5.2079,5.2884,5.3164,5.2926,5.1515,5.0954,5.0704,0.0,0.0,0.0,0.0,0.0,0.0,0.0,4.4297,4.3701,4.2023,4.21,4.2312,4.2312,4.3066,4.4128,0.0,0.0,0.0,0.0,0.0,0.0,0.0,0.0,0.0,0.0,0.0,4.6133,4.5781,4.5781,0.0,0.0,0.0,0.0,0.0,0.0,4.2129,4.168,4.168,0.0,0.0,0.0,0.0,0.0,0.0,0.0,0.0,0.0,0.0,4.1304,4.1233,4.1703,4.2312,4.2312,4.2543,4.3297,4.5855,4.674,4.7331,4.9375,5.0303,5.0707,5.0707,5.0707,5.0322,4.8933,0.0,4.7716,4.6394,4.584,4.5706,4.6052,4.6129,4.6394,4.7235,4.6767,4.6723,4.7928,4.7742,4.7662,4.8135,4.963,5.0481,0.0,0.0,5.2123,5.2454,5.2472,5.2692,5.3177,5.3196,5.3196,5.3196,5.3196,5.3196,5.3196,5.3196,5.3196,5.3196,5.3196,5.3196,5.3196,5.3196,5.3196,5.3196,5.3196,5.2462,0.0,5.2664,5.2443,5.1408,5.27,5.2926,5.2422,5.1462,5.0823,5.0297,0.0,0.0,0.0,0.0,0.0,0.0,4.4436,4.4297,4.3797,4.2369,4.2177,4.2177,4.2177,4.2951,4.3932,4.5109,0.0,0.0,0.0,0.0,0.0,0.0,0.0,0.0,0.0,0.0,0.0,4.5918,4.5918,4.5918,0.0,0.0,4.418,4.4043,0.0,0.0,0.0,0.0,0.0,0.0,0.0,0.0,0.0,0.0,0.0,0.0,0.0,0.0,0.0,0.0,0.0,4.1412,4.1412,4.1412,4.2027,4.509,4.624,4.699,4.9187,5.0226,5.0707,5.0707,5.0515,4.9938,0.0,0.0,4.7336,4.5898,4.5594,4.5594,4.5594,4.5594,4.5898,4.6755,4.6656,4.6929,4.8231,4.8169,4.8164,4.8648,5.002,5.0721,5.0165,5.1462,5.2344,5.2344,5.2344,5.2601,5.3177,5.3196,5.3196,5.3196,5.3196,5.3196,5.3196,5.3196,5.3196,5.3196,5.3196,5.3086,5.2847,5.3086,5.3067,5.2847,5.3104,5.2425,0.0,5.2627,5.2388,5.1298,5.2664,5.2875,5.2347,5.1648,5.0942,5.0227,0.0,0.0,0.0,0.0,0.0,0.0,0.0,4.4297,4.4008,4.3181,4.3085,4.3085,4.3085,4.3816,4.4297,4.4316,0.0,0.0,0.0,0.0,0.0,0.0,0.0,0.0,0.0,0.0,0.0,4.5019,4.5019,4.5019,4.498,4.3242,4.334,4.4902,0.0,0.0,0.0,0.0,0.0,0.0,0.0,0.0,0.0,0.0,0.0,0.0,0.0,0.0,0.0,0.0,0.0,0.0,0.0,4.0516,4.1358,4.562,4.6278,4.6364,4.9764,5.0688,5.0707,5.0707,5.0053,4.9183,0.0,4.7485,4.6658,4.5782,4.5594,4.5594,4.5594,4.5594,4.5898,4.6755,4.6904,4.7041,4.7453,4.7516,4.7681,4.814,4.9337,5.042,5.1218,5.2444,5.3196,5.3196,5.3196,5.3196,5.3196,5.3196,5.3196,5.3196,5.3196,5.3196,5.3196,5.3196,5.3196,5.3196,5.3196,5.2774,5.2042,5.2829,5.2766,5.206,5.2847,5.2747,0.0,5.2847,5.2729,5.2079,5.2884,5.3196,5.3103,5.2358,5.1655,5.0981,0.0,0.0,0.0,0.0,0.0,0.0,0.0,4.5186,4.4878,4.4028,4.3912,4.3701,4.3162,4.3816,4.4297,4.4297,0.0,0.0,0.0,0.0,0.0,0.0,0.0,0.0,0.0,0.0,0.0,4.5,4.4394,4.4101,4.4101,4.3555,4.3262,4.3203,4.2656,4.209,0.0,0.0,0.0,0.0,0.0,0.0,0.0,0.0,0.0,0.0,0.0,0.0,0.0,0.0,0.0,0.0,0.0,0.0,0.0,4.4393,4.4932,4.534,4.8163,4.8913,4.8913,4.8913,4.8721,4.8298,4.7466,4.7081,4.6639,4.5782,4.5594,4.5594,4.5594,4.5594,4.5898,4.6755,4.6908,4.7342,4.8624,4.8567,4.8555,4.9023,4.998,5.1112,5.2468,5.2473,5.2619,5.3159,5.2692,5.2619,5.3177,5.3196,5.3196,5.3196,5.3196,5.3196,5.3196,5.3196,5.3196,5.3196,5.3196,5.2784,5.2024,5.2829,5.2755,5.2042,5.2858,5.2747,5.206,5.2865,5.2729,5.2079,5.2884,5.3196,5.3103,5.237,5.1685,5.0995,0.0,0.0,0.0,0.0,0.0,0.0,0.0,4.5594,4.5417,4.4859,4.4782,4.4474,4.3643,4.4301,4.4667,4.434,0.0,0.0,0.0,0.0,0.0,0.0,0.0,0.0,0.0,0.0,4.4355,4.4023,4.3476,4.3203,4.3203,4.2891,4.2637,4.2383,4.207,0.0,0.0,0.0,0.0,0.0,0.0,0.0,4.0915,0.0,0.0,0.0,0.0,0.0,0.0,0.0,0.0,0.0,0.0,0.0,0.0,0.0,4.4066,4.4855,4.7408,4.8101,4.8101,4.8101,4.787,4.7524,4.7005,4.6639,4.6259,4.5706,4.5859,4.5994,4.5667,4.5879,4.6163,4.6374,4.6947,4.7568,4.8143,4.8305,4.858,4.9213,5.0291,5.1572,5.307,5.2747,5.2656,5.3159,5.2747,5.2674,5.3177,5.3196,5.3196,5.3196,5.3196,5.3196,5.3196,5.3196,5.3196,5.3196,5.3196,5.2784,5.2024,5.2829,5.2755,5.2042,5.2858,5.292,0.0,5.2994,5.2902,5.2509,5.2994,5.3196,5.3135,5.2684,5.191,5.1034,0.0,0.0,0.0,0.0,0.0,0.0,0.0,0.0,0.0,0.0,4.5594,4.5282,4.4474,4.5128,4.5263,0.0,0.0,0.0,0.0,0.0,0.0,0.0,0.0,0.0,0.0,4.4082,4.3203,4.2402,4.2344,4.2305,4.2305,4.1543,4.1601,4.2285,4.1523,0.0,0.0,0.0,0.0,0.0,4.1191,4.1048,0.0,0.0,0.0,0.0,0.0,0.0,0.0,0.0,0.0,0.0,0.0,0.0,0.0,0.0,0.0,0.0,0.0,4.7908,4.7908,4.7908,4.7351,4.6812,4.6812,4.6182,0.0,4.5686,4.6336,4.6639,4.584,4.6394,4.6697,4.5821,4.7048,4.7708,4.6596,4.7175,4.8004,4.8764,5.0336,5.1816,5.2999,5.3177,5.3196,5.3196,5.3196,5.3196,5.3196,5.3196,5.3196,5.3196,5.3196,5.3196,5.3196,5.3196,5.3177,5.3122,5.3177,5.2747,5.195,5.281,5.2755,0.0,5.2858,5.3196,5.3196,5.3196,5.3196,5.3196,5.3196,5.3196,5.3196,5.3196,5.2307,5.1099,0.0,0.0,0.0,0.0,0.0,0.0,0.0,0.0,0.0,0.0,4.5594,4.5518,4.5321,4.5475,4.5518,0.0,0.0,0.0,0.0,0.0,0.0,0.0,0.0,0.0,0.0,4.3496,4.2617,4.2402,4.1777,4.1484,4.1484,4.1289,4.1308,4.1465,4.1289,0.0,0.0,0.0,0.0,0.0,4.1191,4.1048,0.0,0.0,0.0,0.0,4.0696,4.0729,0.0,0.0,0.0,0.0,0.0,0.0,0.0,0.0,4.4147,4.5436,4.6013,0.0,4.6186,4.6186,4.6052,4.5917,0.0,4.5744,4.5782,4.6471,4.6755,4.6831,4.662,4.7255,4.7543,4.6735,4.7447,4.8005,4.7713,4.842,4.8833,4.8486,5.0437,5.1944,5.2244,5.2829,5.3196,5.3196,5.3196,5.3196,5.3196,5.3196,5.3196,5.3196,5.3196,5.3196,5.3196,5.3196,5.2884,5.2289,5.2902,5.2462,5.1132,5.2553,5.2755,5.2042,5.2858,5.3196,5.3196,5.3196,5.3196,5.3196,5.3196,5.3196,5.3196,5.3196,5.2307,5.1099,0.0,0.0,0.0,0.0,0.0,0.0,0.0,0.0,0.0,0.0,0.0,0.0,0.0,0.0,0.0,0.0,0.0,0.0,0.0,0.0,0.0,0.0,0.0,0.0,0.0,4.2519,4.1855,4.1855,4.1406,4.1191,4.1191,4.1191,4.1191,4.1191,4.1191,0.0,0.0,0.0,0.0,0.0,4.1191,0.0,0.0,0.0,0.0,0.0,4.0657,4.0682,0.0,4.0567,4.0496,4.0496,0.0,0.0,0.0,0.0,4.4282,4.5594,4.5594,4.5594,4.5706,4.6109,4.5898,4.5706,4.6109,4.5898,4.584,4.6716,4.6908,4.6908,4.6908,4.7255,4.7408,4.6966,4.7274,4.7621,4.784,4.877,4.9223,4.8639,5.0407,5.176,5.1971,5.2729,5.3196,5.3196,5.3196,5.3196,5.3196,5.3196,5.3196,5.3196,5.3196,5.3196,5.3196,5.3196,5.2803,5.2005,5.2821,5.2553,5.1389,5.2627,5.2957,5.2546,5.2619,5.2847,5.3177,5.2803,5.2865,5.3196,5.3196,5.3196,5.3196,5.3196,5.2307,5.1099,0.0,0.0,0.0,0.0,0.0,0.0,0.0,0.0,0.0,0.0,0.0,0.0,0.0,0.0,0.0,0.0,0.0,0.0,0.0,0.0,0.0,0.0,0.0,4.1699,4.2383,4.1601,4.1191,4.1191,4.1191,4.1191,4.1191,4.1191,4.1191,0.0,0.0,0.0,0.0,0.0,0.0,0.0,4.1191,0.0,0.0,0.0,0.0,0.0,0.0,0.0,0.0,4.0567,4.0496,4.0496,4.0496,0.0,0.0,0.0,0.0,0.0,4.5594,4.5594,4.5802,4.6678,4.624,4.5821,4.6697,4.622,4.5879,4.687,4.7081,4.7081,4.7081,4.7293,4.7351,4.6966,4.7005,4.7232,4.7632,4.8848,4.9506,4.904,5.0543,5.1704,5.1973,5.2729,5.3196,5.3196,5.3196,5.3196,5.3196,5.3196,5.3196,5.3196,5.3196,5.3196,5.3196,5.3196,5.2803,5.2005,5.2821,5.2784,5.2024,5.2829,5.3196,5.3159,5.2472,0.0,5.3159,5.2454,5.2582,5.3196,5.3196,5.3196,5.3196,5.3196,5.2307,5.106,0.0,0.0,0.0,0.0,0.0,0.0,0.0,0.0,0.0,0.0,0.0,0.0,0.0,0.0,0.0,0.0,0.0,0.0,0.0,0.0,0.0,0.0,4.2812,4.2266,4.2402,4.1601,4.1191,4.1191,4.1191,4.1191,4.1191,4.1191,4.1191,4.1191,0.0,0.0,0.0,0.0,0.0,4.1191,4.1191,0.0,0.0,0.0,0.0,0.0,0.0,0.0,0.0,4.0567,4.0496,4.0496,4.0496,0.0,0.0,0.0,0.0,0.0,4.5594,4.5594,4.5802,4.6678,4.624,4.5821,4.6697,4.622,4.6033,4.7605,4.7928,4.7928,4.7928,4.9125,4.9418,4.7255,4.7466,4.7968,4.8083,4.9496,5.0239,4.9509,5.1482,5.2665,5.2071,5.2729,5.3196,5.3196,5.3196,5.3196,5.3196,5.3196,5.3196,5.3196,5.3196,5.3196,5.3196,5.3196,5.2803,5.2005,5.2821,5.2784,5.2024,5.2829,5.3196,5.3196,0.0,5.3086,5.3196,5.3067,5.3086,5.3196,5.3196,5.3196,5.3196,5.3196,5.2307,5.0929,0.0,0.0,0.0,0.0,0.0,0.0,0.0,0.0,0.0,0.0,0.0,0.0,0.0,0.0,0.0,0.0,0.0,0.0,0.0,0.0,0.0,0.0,4.2186,4.1758,4.1758,4.1387,4.1191,4.1191,4.1191,4.1191,4.1191,4.1191,4.1191,4.1191,0.0,4.1191,4.1191,4.1191,4.1191,4.1191,0.0,0.0,0.0,0.0,0.0,0.0,0.0,0.0,0.0,0.0,4.0496,4.0496,4.0496,0.0,0.0,0.0,0.0,0.0,4.5594,4.5594,4.5917,4.7216,4.6567,4.6071,4.7855,4.6879,4.6206,4.8355,4.7702,4.7028,4.7928,4.8394,4.8413,4.7678,4.8644,4.9428,4.9201,5.0235,5.0896,5.0527,5.1859,5.2611,5.2044,5.2729,5.3196,5.3196,5.3196,5.3196,5.3196,5.3196,5.3196,5.3196,5.3196,5.3196,5.3196,5.3196,5.2803,5.2005,5.2821,5.2784,5.2024,5.2829,5.3196,5.3177,0.0,5.2803,5.3177,5.2729,5.281,5.3196,5.3196,5.3196,5.3103,5.236,5.1666,5.0889,0.0,0.0,0.0,0.0,0.0,0.0,0.0,0.0,0.0,0.0,0.0,0.0,0.0,0.0,0.0,0.0,0.0,0.0,0.0,0.0,4.3082,4.2358,4.1598,4.1191,4.1191,4.1191,4.1191,4.1191,4.1191,4.1191,4.1191,4.1191,4.1191,4.1191,0.0,4.1191,4.1191,4.1191,4.1191,4.1191,0.0,0.0,0.0,0.0,0.0,0.0,0.0,0.0,0.0,0.0,0.0,0.0,0.0,0.0,0.0,4.3104,4.4282,4.5594,4.5594,4.5594,4.5956,4.7451,4.6701,4.6263,4.8822,4.7437,4.6321,4.888,4.7687,4.6648,4.8125,4.7735,4.7447,4.8274,4.951,5.0408,5.0444,5.102,5.1527,5.1731,5.2298,5.2563,5.2312,5.2829,5.3196,5.3196,5.3196,5.3196,5.3196,5.3196,5.3196,5.3196,5.3196,5.3196,5.3196,5.3196,5.2884,5.2289,5.2902,5.2884,5.2307,5.292,5.3196,5.3177,5.2546,5.2637,5.3159,5.2546,5.2637,5.3196,5.3196,5.3196,5.3039,5.1611,5.1099,5.0889,0.0,0.0,0.0,0.0,0.0,0.0,0.0,0.0,0.0,0.0,0.0,0.0,0.0,0.0,0.0,0.0,0.0,0.0,0.0,0.0,4.3109,4.2421,4.1621,4.1191,4.1191,4.1191,4.1191,4.1191,4.1191,4.1191,4.1191,4.1191,4.1191,4.1191,0.0,4.1191,4.1191,4.1191,4.1191,4.1191,4.1056,0.0,0.0,0.0,0.0,0.0,0.0,0.0,0.0,0.0,0.0,0.0,0.0,0.0,4.3104,4.3104,4.4282,4.5594,4.5594,4.5594,4.5821,4.6755,4.6297,4.6263,4.8822,4.7437,4.6321,4.888,4.8606,4.8202,4.9144,4.8606,4.8298,4.9163,4.9413,5.0022,5.1543,5.1816,5.2157,5.2968,5.3101,5.3146,5.3133,5.3177,5.3196,5.3196,5.3196,5.3196,5.3196,5.3196,5.3196,5.3196,5.3196,5.3196,5.3196,5.3196,5.3177,5.3104,5.3177,5.3177,5.3122,5.3177,5.3196,5.3196,5.3141,5.3159,5.3196,5.3141,5.3159,5.3196,5.3196,5.3196,5.3039,5.1611,5.1099,5.0889,0.0,0.0,0.0,0.0,0.0,0.0,0.0,0.0,0.0,0.0,0.0,0.0,0.0,0.0,0.0,0.0,0.0,0.0,0.0,0.0,4.2273,4.1565,4.1326,4.1191,4.1191,4.1191,4.1191,4.1191,4.1191,4.1191,4.1191,4.1191,0.0,0.0,0.0,4.1191,4.1191,4.1191,4.1191,4.1191,4.1149,4.1078,0.0,0.0,0.0,0.0,0.0,0.0,0.0,0.0,4.0496,4.0593,4.1143,4.2124,4.3201,4.3701,4.4686,4.5594,4.5594,4.5594,4.5936,4.7298,4.6605,4.6263,4.8822,4.7855,4.7124,4.9687,4.8682,4.7447,4.7774,4.8432,4.9029,4.9356,4.9861,5.0591,5.174,5.191,5.2227,5.3101,5.3196,5.3196,5.3196,5.3196,5.3196,5.3196,5.3196,5.3196,5.3196,5.3196,5.3196,5.3196,5.3196,5.3196,5.3196,5.3196,5.3196,5.3196,5.3196,5.3196,5.3196,5.3196,5.3196,5.3196,5.3196,5.3196,5.3196,5.3196,5.3196,5.3196,5.3196,5.2926,5.2411,5.1462,5.081,5.0283,0.0,0.0,0.0,0.0,0.0,0.0,0.0,0.0,0.0,0.0,0.0,0.0,0.0,0.0,0.0,0.0,0.0,0.0,0.0,4.1913,4.1772,4.1032,4.1128,4.1191,4.1191,4.1191,4.1191,4.1191,4.1191,4.1191,4.1191,0.0,0.0,0.0,4.1191,4.1191,4.1191,4.1191,4.1191,4.1191,4.115,4.1105,0.0,0.0,0.0,0.0,0.0,0.0,0.0,0.0,4.0496,4.0646,4.1523,4.2408,4.3258,4.4066,4.4917,4.5594,4.5594,4.5594,4.5936,4.7375,4.6644,4.6263,4.8822,4.8105,4.7543,4.9822,4.9125,4.8029,4.7735,4.8625,4.9394,4.9394,5.013,5.0979,5.1797,5.2136,5.2527,5.3138,5.3196,5.3196,5.3196,5.3196,5.3196,5.3196,5.3196,5.3196,5.3196,5.3196,5.3196,5.3196,5.3196,5.3196,5.3196,5.3196,5.3196,5.3196,5.3196,5.3196,5.3196,5.3196,5.3196,5.3196,5.3196,5.3196,5.3196,5.3196,5.3196,5.3196,5.3196,5.2747,5.2012,5.1343,5.0622,4.989,0.0,0.0,0.0,0.0,0.0,0.0,0.0,0.0,0.0,0.0,0.0,0.0,0.0,0.0,0.0,0.0,0.0,0.0,0.0,4.1565,4.1753,4.1032,4.1128,4.1191,4.1191,4.1191,4.1191,4.1191,4.1191,4.1191,4.1191,4.1191,0.0,0.0,0.0,4.1211,4.1191,4.1211,4.1211,4.1191,4.1054,4.1099,4.1191,0.0,0.0,0.0,0.0,0.0,0.0,0.0,4.0516,4.0666,4.1542,4.2408,4.3278,4.4085,4.4936,4.5594,4.5614,4.5614,4.5802,4.6678,4.624,4.6263,4.8803,4.8105,4.737,4.9067,5.0091,5.0418,4.9553,4.9394,4.9413,4.9394,5.0149,5.0999,5.1797,5.2653,5.32,5.3193,5.3196,5.3196,5.3196,5.3196,5.3196,5.3196,5.3196,5.3196,5.3196,5.3196,5.3196,5.3196,5.3196,5.3196,5.3196,5.3196,5.3196,5.3196,5.3196,5.3196,5.3196,5.3196,5.3196,5.3196,5.3196,5.3196,5.3196,5.3196,5.3196,5.3196,5.3196,5.2747,5.2,5.1343,5.0622,4.9907,0.0,0.0,0.0,0.0,0.0,0.0,0.0,0.0,0.0,0.0,0.0,0.0,0.0,0.0,0.0,0.0,0.0,0.0,0.0,4.1005,4.1133,4.1013,4.1128,4.1191,4.1191,4.1191,4.1191,4.1191,4.1191,4.1191,0.0,0.0,0.0,4.1211,0.0,4.1738,4.123,4.1797,4.1719,4.125,4.1775,4.201,4.2031,0.0,0.0,0.0,0.0,0.0,0.0,0.0,0.0,0.0,4.245,4.3278,4.422,4.5697,4.5874,4.5725,4.6355,4.6071,4.5802,4.6678,4.6716,4.6721,4.7466,4.7697,4.8062,4.9163,4.961,4.951,4.8644,4.949,5.0111,4.949,5.0606,5.1625,5.1873,5.2653,5.32,5.3193,5.3196,5.3196,5.3196,5.3196,5.3196,5.3196,5.3196,5.3196,5.3196,5.3196,5.3196,5.3196,5.3196,5.3196,5.3196,5.3196,5.3196,5.3196,5.3196,5.3196,5.3196,5.3196,5.3196,5.3196,5.3196,5.3196,5.3196,5.3196,5.3196,5.3196,5.3196,5.2463,5.1368,5.1176,5.0324,4.9271,0.0,0.0,0.0,0.0,0.0,0.0,0.0,0.0,0.0,0.0,4.4551,4.3816,0.0,0.0,0.0,0.0,0.0,0.0,4.0674,4.0713,4.0801,4.0886,4.1023,4.1149,4.1191,4.1191,4.1191,4.1191,4.1191,0.0,0.0,0.0,4.1191,4.1211,0.0,4.1641,4.123,4.1719,4.1641,4.123,4.1738,4.1914,4.1914,0.0,0.0,0.0,0.0,0.0,0.0,0.0,0.0,0.0,4.2835,4.3893,4.5013,4.6086,4.6259,4.622,4.6755,4.6528,4.6394,4.7605,4.7389,4.6985,4.7293,4.7755,4.8452,4.9668,4.9918,4.9764,4.9221,4.9995,5.0534,4.9995,5.1318,5.2296,5.1948,5.2944,5.3583,5.323,5.3196,5.3196,5.3196,5.3196,5.3196,5.3196,5.3196,5.3196,5.3196,5.3196,5.3196,5.3196,5.3196,5.3196,5.3196,5.3196,5.3196,5.3196,5.3196,5.3196,5.3196,5.3196,5.3196,5.3196,5.3196,5.3196,5.3196,5.3196,5.3196,5.3196,5.3196,5.233,5.1099,5.1099,5.0202,4.9001,0.0,0.0,4.5594,4.5594,0.0,0.0,0.0,0.0,0.0,0.0,4.4263,4.3335,0.0,0.0,0.0,4.09,4.147,4.1508,4.0554,4.063,4.0697,4.0697,4.0899,4.1056,4.1191,4.1191,4.1191,0.0,0.0,0.0,0.0,0.0,4.1191,4.1191,0.0,4.1269,4.1191,4.1289,4.1269,4.1211,4.1289,4.1308,4.1308,4.1169,0.0,0.0,0.0,0.0,0.0,0.0,0.0,0.0,4.2931,4.4321,4.5614,4.5706,4.6278,4.6928,4.6985,4.6966,4.7274,4.8798,4.8029,4.7158,4.812,4.8274,4.8682,5.0361,5.063,5.0611,5.0688,5.0707,5.0707,5.0707,5.2106,5.2895,5.2024,5.3404,5.4171,5.3314,5.3196,5.3196,5.3196,5.3196,5.3196,5.3196,5.3196,5.3196,5.3196,5.3196,5.3196,5.3196,5.3196,5.3196,5.3196,5.3196,5.3196,5.3196,5.3196,5.3196,5.3196,5.3196,5.3196,5.3196,5.3196,5.3196,5.3196,5.3196,5.3196,5.3196,5.3196,5.233,5.1099,5.1099,5.0202,4.9001,0.0,0.0,4.5594,4.5594,0.0,0.0,0.0,0.0,0.0,0.0,0.0,0.0,0.0,0.0,0.0,4.2681,4.2701,4.2162,4.0593,4.063,4.0697,4.0697,4.0899,4.1056,4.1191,0.0,0.0,0.0,0.0,0.0,0.0,0.0,0.0,4.123,0.0,4.1797,4.123,4.1875,4.1777,4.1269,4.1894,4.2148,4.2129,4.2049,4.1935,0.0,0.0,0.0,0.0,0.0,0.0,0.0,4.3778,4.4763,4.5725,4.6413,4.6755,4.7043,4.7678,4.7389,4.6985,4.7351,4.7178,4.7466,4.9649,4.961,4.9413,5.0476,5.0168,4.9899,5.0572,5.0707,5.0707,5.0707,5.2106,5.2895,5.2024,5.3404,5.4171,5.3314,5.3196,5.3196,5.3196,5.3196,5.3196,5.3196,5.3196,5.3196,5.3196,5.3196,5.3196,5.3196,5.3196,5.3196,5.3196,5.3196,5.3196,5.3196,5.3196,5.3196,5.3196,5.3196,5.3196,5.3196,5.3196,5.3196,5.3196,5.3196,5.3196,5.3196,5.3196,5.233,5.1099,5.1099,5.0202,4.9001,0.0,0.0,0.0,0.0,0.0,0.0,0.0,0.0,0.0,0.0,0.0,0.0,0.0,4.4744,0.0,0.0,4.272,4.2085,4.1181,4.0798,4.0655,4.0738,4.0902,4.1056,4.1191,0.0,0.0,0.0,0.0,0.0,0.0,0.0,0.0,4.1211,0.0,4.1582,4.123,4.1641,4.1816,4.1777,4.1816,4.2051,4.2343,4.1853,4.1582,4.1412,4.089,0.0,0.0,0.0,0.0,0.0,0.0,0.0,4.622,4.6278,4.6562,4.6985,4.7408,4.7505,4.7562,4.799,4.8413,4.8952,4.988,5.0053,5.0149,5.0611,5.0341,5.0168,5.0611,5.0707,5.0707,5.0707,5.2106,5.2965,5.2339,5.3535,5.4248,5.3574,5.3326,5.3196,5.3196,5.3196,5.3196,5.3196,5.3196,5.3196,5.3196,5.3196,5.3196,5.3196,5.3196,5.3196,5.3196,5.3196,5.3196,5.3196,5.3196,5.3196,5.3196,5.3196,5.3196,5.3196,5.3196,5.3196,5.3196,5.3196,5.3196,5.3196,5.3196,5.233,5.1099,5.1099,5.0202,4.9001,0.0,0.0,0.0,0.0,0.0,0.0,0.0,0.0,0.0,0.0,0.0,0.0,0.0,4.4128,4.4205,0.0,0.0,0.0,4.2023,4.1235,4.0771,4.0809,4.0924,4.1056,0.0,0.0,0.0,0.0,0.0,0.0,0.0,0.0,0.0,4.1406,0.0,4.1328,4.1191,4.1191,4.1582,4.2129,4.1465,4.1601,4.2109,4.1278,0.0,4.1014,4.0917,4.1374,4.2043,4.2177,0.0,0.0,0.0,0.0,4.6528,4.5802,4.622,4.6908,4.6908,4.7485,4.8312,4.9183,4.9822,5.0149,4.9726,5.0072,5.0515,5.0668,5.0707,5.0707,5.0707,5.0707,5.0707,5.0707,5.2106,5.3059,5.2666,5.37,5.434,5.386,5.3434,5.3196,5.3196,5.3196,5.3196,5.3196,5.3196,5.3196,5.3196,5.3196,5.3196,5.3196,5.3196,5.3196,5.3196,5.3196,5.3196,5.3196,5.3196,5.3196,5.3196,5.3196,5.3196,5.3196,5.3196,5.3196,5.3196,5.3196,5.3196,5.3196,5.3196,5.233,5.1099,5.1099,5.0202,4.9001,0.0,0.0,0.0,0.0,0.0,0.0,0.0,0.0,0.0,0.0,4.4878,4.4686,4.5205,4.5359,4.5071,4.422,4.3393,4.2931,4.2931,0.0,0.0,4.0832,4.0924,4.1056,0.0,0.0,0.0,0.0,0.0,0.0,0.0,0.0,0.0,4.2246,0.0,0.0,4.1191,4.1191,4.1269,4.1348,4.123,4.1269,4.1327,0.0,0.0,0.0,4.171,4.2201,4.3028,4.372,4.4105,0.0,0.0,0.0,4.5744,4.5629,4.622,4.6908,4.6908,4.7485,4.8312,4.9183,4.8913,4.8817,5.0207,5.0034,4.9784,5.0534,5.0707,5.0707,5.0707,5.0707,5.0707,5.0707,5.2106,5.3059,5.2666,5.37,5.434,5.386,5.3434,5.3196,5.3196,5.3196,5.3196,5.3196,5.3196,5.3196,5.3196,5.3196,5.3196,5.3196,5.3196,5.3196,5.3196,5.3196,5.3196,5.3196,5.3196,5.3196,5.3196,5.3196,5.3196,5.3196,5.3196,5.3196,5.3196,5.3196,5.3196,5.3196,5.3196,5.233,5.1099,5.1099,5.0202,4.9001,0.0,0.0,0.0,0.0,0.0,0.0,0.0,0.0,0.0,0.0,0.0,4.4994,4.4878,4.5302,4.5244,4.4378,4.397,4.3374,4.2427,4.1685,4.1133,4.0813,4.0924,4.1056,4.1191,0.0,0.0,0.0,0.0,0.0,0.0,4.3125,4.2871,0.0,0.0,0.0,0.0,4.168,4.1875,4.1836,4.1387,4.1758,0.0,0.0,0.0,0.0,0.0,0.0,4.3835,4.4182,4.4628,4.509,4.5475,0.0,0.0,0.0,4.5879,4.6374,4.7312,4.7505,4.7851,4.9687,4.9106,4.8567,5.0303,5.0034,4.9649,5.0515,5.0707,5.0707,5.0707,5.0707,5.0707,5.0707,5.2106,5.3137,5.2962,5.3836,5.4412,5.4213,5.3603,5.3196,5.3196,5.3196,5.3196,5.3196,5.3196,5.3196,5.3196,5.3196,5.3196,5.3196,5.3196,5.3196,5.3196,5.3196,5.3196,5.3196,5.3196,5.3196,5.3196,5.3196,5.3196,5.3196,5.3196,5.3196,5.3196,5.3196,5.3196,5.3196,5.3196,5.233,5.1099,5.1099,5.0202,4.9001,0.0,0.0,0.0,0.0,0.0,0.0,0.0,0.0,0.0,0.0,0.0,4.5109,4.4686,0.0,0.0,0.0,4.4239,4.3278,4.1585,4.1206,4.0975,4.0815,4.0959,4.1103,4.1191,0.0,0.0,0.0,0.0,0.0,4.3379,4.3594,4.3476,0.0,4.3516,4.3008,0.0,0.0,0.0,0.0,4.2324,4.2773,0.0,0.0,0.0,0.0,0.0,0.0,0.0,0.0,4.5051,4.5594,4.5594,4.5594,0.0,0.0,0.0,4.5917,4.7394,4.7351,4.7408,4.9514,4.8913,4.8202,4.9707,4.9534,4.9317,5.0188,5.0553,5.0707,5.0707,5.0707,5.0707,5.0707,5.1914,5.2947,5.3159,5.3749,5.425,5.4465,5.3729,5.3196,5.3196,5.3196,5.3196,5.3196,5.3196,5.3196,5.3196,5.3196,5.3196,5.3196,5.3196,5.3196,5.3196,5.3196,5.3196,5.3196,5.3196,5.3196,5.3196,5.3196,5.3196,5.3196,5.3196,5.3196,5.3196,5.3196,5.3196,5.3196,5.3196,5.233,5.1099,5.1099,5.0202,4.9001,0.0,0.0,0.0,0.0,0.0,0.0,0.0,0.0,0.0,0.0,0.0,4.4667,4.5455,4.5575,4.5575,4.5537,4.409,4.2412,4.0689,4.1485,4.1662,4.0836,4.1052,0.0,4.1191,0.0,0.0,0.0,0.0,0.0,4.248,4.3301,4.4121,4.4824,4.4043,4.3652,4.3574,0.0,0.0,0.0,4.4492,4.4355,0.0,0.0,0.0,0.0,0.0,0.0,0.0,0.0,0.0,0.0,0.0,4.5594,4.5594,0.0,0.0,0.0,4.6716,4.6928,4.712,4.8005,4.7582,4.7197,4.8043,4.8197,4.8413,4.9298,5.013,5.0707,5.0707,5.0707,5.0707,5.0707,5.1414,5.2255,5.3082,5.3248,5.3574,5.4409,5.3729,5.3196,5.3196,5.3196,5.3196,5.3196,5.3196,5.3196,5.3196,5.3196,5.3196,5.3196,5.3196,5.3196,5.3196,5.3196,5.3196,5.3196,5.3196,5.3196,5.3196,5.3196,5.3196,5.3196,5.3196,5.3196,5.3196,5.3196,5.3196,5.3196,5.3196,5.233,5.1099,5.1099,5.0202,4.9001,0.0,0.0,0.0,0.0,0.0,0.0,0.0,0.0,0.0,0.0,0.0,0.0,0.0,4.3993,4.3778,4.322,4.2178,4.1545,4.1532,4.1353,4.1156,4.094,4.1023,0.0,0.0,0.0,0.0,0.0,0.0,4.2402,4.3242,4.4121,4.5,4.5859,4.6094,4.5586,4.4609,4.5723,0.0,0.0,4.5254,4.5312,4.4589,0.0,0.0,0.0,0.0,0.0,0.0,0.0,0.0,0.0,0.0,0.0,0.0,4.5594,4.5594,4.5782,4.6658,4.649,4.6394,4.7759,4.7067,4.6413,4.7798,4.8101,4.8197,4.8509,4.9707,5.0534,4.9976,5.0322,5.0707,5.0707,5.1375,5.1924,5.198,5.2244,5.2647,5.321,5.2777,5.2637,5.3159,5.3196,5.3196,5.3196,5.2729,5.2656,5.3177,5.2711,5.2674,5.3177,5.3196,5.3196,5.3196,5.3196,5.3196,5.3196,5.3196,5.3196,5.3196,5.3196,5.3196,5.3196,5.3196,5.3196,5.3196,5.3196,5.3196,5.3196,5.3196,5.233,5.1099,5.1099,5.0202,4.9001,0.0,0.0,0.0,0.0,0.0,4.5263,0.0,0.0,0.0,0.0,0.0,0.0,0.0,0.0,4.3115,4.1998,4.1448,4.1313,4.1645,4.116,4.0911,4.0994,4.103,0.0,0.0,0.0,0.0,0.0,0.0,0.0,0.0,4.459,4.5469,4.6348,4.7207,4.6953,0.0,0.0,0.0,4.5547,4.6719,4.6836,4.6328,0.0,0.0,0.0,0.0,0.0,0.0,0.0,0.0,0.0,0.0,0.0,0.0,0.0,0.0,4.5725,4.6317,4.6033,4.5859,4.6971,4.6417,4.5898,4.7009,4.7702,4.8101,4.8101,4.949,5.0515,4.9938,5.0303,5.0707,5.0707,5.1144,5.1451,5.1317,5.1447,5.1726,5.2143,5.1838,5.1811,5.2333,5.2388,5.2517,5.2774,5.2307,5.2344,5.3159,5.2692,5.2656,5.3177,5.3196,5.3196,5.3196,5.3196,5.3196,5.3196,5.3196,5.3196,5.3196,5.3196,5.3196,5.3196,5.3196,5.3196,5.3196,5.3196,5.3196,5.3196,5.3196,5.233,5.1099,5.1099,5.0202,4.9001,0.0,4.5594,4.5594,4.5594,4.4878,4.459,4.5436,0.0,0.0,0.0,0.0,0.0,0.0,0.0,0.0,4.2244,4.214,4.1791,4.0943,4.1004,4.1076,4.1076,4.1206,0.0,0.0,0.0,0.0,0.0,0.0,0.0,0.0,0.0,4.5488,4.6348,4.7207,4.7598,4.7656,0.0,4.8887,4.8828,0.0,4.8906,4.873,0.0,0.0,0.0,4.818,4.7831,0.0,4.7832,0.0,0.0,0.0,0.0,0.0,0.0,0.0,0.0,0.0,0.0,0.0,4.5594,4.5594,4.5594,4.5594,4.6874,4.8062,4.8062,4.9452,5.0649,5.0649,5.0668,5.0707,5.0707,5.0683,5.0813,5.1184,5.0889,5.0822,5.1286,5.0997,5.0765,5.0802,5.0802,5.1114,5.1914,5.195,5.227,5.3086,5.3159,5.3177,5.3196,5.3196,5.3196,5.3196,5.3196,5.3196,5.3196,5.3196,5.3196,5.3196,5.3196,5.3196,5.3196,5.3196,5.3196,5.3196,5.3196,5.3196,5.3196,5.3196,5.2342,5.1125,5.1112,5.0216,4.9032,4.5594,4.5594,4.5594,4.5594,4.4878,4.4374,0.0,0.0,0.0,0.0,0.0,0.0,0.0,0.0,0.0,4.2267,4.2825,4.3099,4.2917,4.2924,4.2946,4.2946,4.2988,4.3105,0.0,0.0,0.0,0.0,0.0,0.0,0.0,0.0,0.0,0.0,4.7207,4.7598,4.7695,4.9199,0.0,4.7246,4.9707,4.9238,0.0,0.0,0.0,0.0,0.0,4.818,4.7793,0.0,4.7562,4.6793,0.0,0.0,0.0,0.0,0.0,0.0,4.5594,0.0,0.0,0.0,0.0,0.0,4.5594,4.6451,4.7235,4.7235,4.8586,4.9764,4.9764,5.0265,5.0707,5.0707,5.0462,5.0193,5.0017,4.9645,4.9565,5.0036,5.0011,5.017,5.0747,5.0802,5.0894,5.1114,5.0592,5.0629,5.1426,5.2013,5.2601,5.3177,5.3196,5.3196,5.3196,5.3196,5.3196,5.3196,5.3196,5.3196,5.3196,5.3196,5.3196,5.3196,5.3196,5.3196,5.3196,5.3196,5.3196,5.3196,5.3196,5.264,5.1753,5.1279,5.0531,4.9649,4.6071,4.584,4.5594,4.5594,4.4878,4.4417,0.0,0.0,0.0,0.0,0.0,0.0,0.0,0.0,0.0,4.2824,4.3338,4.3665,4.3691,4.3691,4.3691,4.3691,4.3691,4.3867,4.4238,0.0,0.0,0.0,0.0,0.0,0.0,0.0,0.0,0.0,4.6836,4.7051,0.0,0.0,0.0,0.0,4.9707,0.0,0.0,4.9746,4.9402,0.0,0.0,0.0,4.8702,4.9067,4.8394,0.0,0.0,0.0,0.0,0.0,0.0,0.0,0.0,0.0,0.0,0.0,0.0,0.0,4.5594,4.6528,4.7408,4.7408,4.8759,4.9822,4.9471,4.9822,5.0091,4.9941,4.9564,4.935,4.9487,4.9155,4.893,4.9053,4.9068,4.9242,4.9709,4.9756,4.9903,5.028,4.9858,4.9949,5.0765,5.1242,5.1867,5.2674,5.2711,5.2847,5.3196,5.3196,5.3196,5.3196,5.3196,5.3196,5.3196,5.3196,5.3196,5.3196,5.3196,5.3196,5.3196,5.3196,5.3196,5.3196,5.3196,5.2583,5.163,5.1241,5.0462,4.9536,0.0,4.6336,4.5763,4.5859,4.4994,4.459,0.0,0.0,0.0,0.0,0.0,0.0,0.0,0.0,0.0,0.0,4.3901,4.3984,4.3984,4.3984,0.0,4.3984,4.3984,4.4355,4.5137,4.4394,0.0,0.0,0.0,0.0,0.0,0.0,0.0,0.0,4.6308,4.6308,4.6348,0.0,0.0,4.9863,4.9277,4.9883,0.0,0.0,5.0048,4.9782,5.0744,5.037,4.951,5.0284,4.9534,0.0,0.0,0.0,0.0,0.0,4.6201,0.0,0.0,0.0,0.0,0.0,4.5594,0.0,4.5594,4.674,4.7851,4.7947,4.9202,5.0072,4.9375,4.9221,4.9094,4.8776,4.8325,4.8319,4.9186,4.9027,4.8673,4.8225,4.8241,4.8296,4.8296,4.8296,4.8618,4.9399,4.9454,4.9802,5.0618,5.0674,5.1041,5.184,5.195,5.2344,5.3067,5.3159,5.3196,5.3196,5.3196,5.3196,5.3196,5.3196,5.3196,5.3196,5.3196,5.3196,5.3196,5.3196,5.3196,5.3196,5.3196,5.2394,5.1202,5.1125,5.0258,4.9107,4.7832,4.7216,4.6851,4.7509,4.5778,0.0,0.0,0.0,0.0,0.0,0.0,0.0,0.0,0.0,0.0,0.0,0.0,4.5781,0.0,0.0,4.5781,4.5781,4.5781,4.5879,4.6035,4.5879,4.5957,0.0,0.0,0.0,0.0,0.0,0.0,0.0,4.6308,4.6308,4.6308,4.6484,0.0,4.8203,4.9453,4.9726,4.9512,5.0703,5.0165,4.8958,5.0549,5.037,4.9433,4.961,4.9433,4.8913,0.0,0.0,0.0,4.6013,0.0,0.0,0.0,0.0,0.0,0.0,0.0,0.0,4.5594,4.584,4.6283,4.6985,4.7408,4.7793,4.8279,4.8137,4.8009,4.8211,4.7453,4.711,4.7935,4.8258,4.8153,4.7425,4.7911,4.8296,4.8296,4.8296,4.8379,4.8545,4.8545,4.893,4.9784,4.9821,5.0206,5.1004,5.1665,5.2079,5.2234,5.2884,5.3196,5.3196,5.3196,5.3196,5.3196,5.3196,5.3196,5.3196,5.3196,5.3196,5.3196,5.3196,5.3196,5.3196,5.3196,5.2662,5.1844,5.1305,5.054,4.9737,4.8101,4.7447,4.6889,4.6855,0.0,0.0,0.0,0.0,0.0,0.0,0.0,0.0,0.0,0.0,0.0,0.0,0.0,0.0,0.0,0.0,4.6308,4.6308,4.6308,4.6308,4.6308,4.6308,4.6308,0.0,0.0,0.0,0.0,0.0,0.0,0.0,0.0,4.6308,4.6308,4.6308,4.6797,4.7715,4.9023,0.0,4.9687,5.0937,5.073,4.9907,5.078,5.0657,4.9976,4.9553,4.9394,0.0,4.8413,4.7562,4.6812,0.0,4.5936,4.5594,0.0,0.0,0.0,4.5594,0.0,0.0,0.0,4.5936,4.6374,4.6812,4.7216,4.7505,4.7505,4.7209,4.6944,4.694,4.6329,4.5927,4.6168,4.7058,4.7709,4.7709,4.8058,4.8296,4.8296,4.8296,4.8296,4.8296,4.8296,4.8489,4.894,4.8958,4.9344,5.0188,5.0592,5.1198,5.1987,5.2399,5.2803,5.3196,5.3196,5.3196,5.3196,5.3196,5.3196,5.3196,5.3196,5.3196,5.3196,5.3196,5.3196,5.3196,5.3196,5.2549,5.1556,5.1215,5.0421,4.9447,4.8101,4.7447,4.6735,4.6186,0.0,0.0,0.0,0.0,0.0,0.0,0.0,0.0,0.0,0.0,0.0,0.0,0.0,0.0,0.0,0.0,0.0,4.6308,4.6308,4.6308,4.6308,4.6308,4.6308,4.6308,0.0,0.0,0.0,0.0,0.0,0.0,0.0,0.0,0.0,0.0,0.0,4.793,0.0,4.9473,5.0058,5.1035,5.1183,5.0906,5.1013,5.0921,5.06,4.9702,4.9394,4.9375,4.9202,4.8105,0.0,0.0,0.0,0.0,0.0,0.0,0.0,0.0,0.0,4.5594,0.0,0.0,0.0,4.6639,4.7163,4.7413,4.6774,4.6282,4.5906,4.5691,4.5218,4.4856,4.4801,4.5855,4.6874,4.7526,4.7746,4.7838,4.7838,4.7984,4.8131,4.8296,4.8296,4.8296,4.8296,4.8296,4.8618,4.9325,4.9519,5.0308,5.1738,5.1914,5.2399,5.3196,5.3196,5.3196,5.3196,5.3196,5.3196,5.3196,5.3196,5.3196,5.3196,5.3196,5.3196,5.3196,5.3196,5.233,5.1099,5.1099,5.0202,4.9001,4.8101,4.7447,4.7081,4.7716,0.0,0.0,0.0,0.0,0.0,0.0,0.0,0.0,0.0,0.0,0.0,0.0,0.0,0.0,4.6177,0.0,0.0,0.0,4.6308,4.6308,4.6308,4.6308,4.6308,4.6308,0.0,0.0,0.0,0.0,0.0,0.0,4.6308,0.0,0.0,0.0,4.7969,0.0,4.9707,4.9648,0.0,5.0801,5.0868,5.0194,5.0738,5.0893,5.0732,0.0,4.9394,4.926,0.0,4.762,4.6908,4.6908,0.0,0.0,0.0,0.0,0.0,0.0,4.5594,0.0,4.5594,0.0,4.5744,4.5744,0.0,4.5859,4.5763,0.0,0.0,4.5141,4.434,4.4033,4.5008,4.5044,4.5012,4.5104,4.5736,4.6177,4.6177,4.6828,4.7526,4.8241,4.8296,4.8296,4.8296,4.8296,4.8361,4.8434,4.9197,5.0023,5.093,5.1628,5.2399,5.3196,5.3196,5.3196,5.3196,5.3196,5.3196,5.3196,5.3196,5.3196,5.3196,5.3196,5.3196,5.3196,5.3196,5.233,5.1099,5.1099,5.0202,4.9001,4.7293,4.7139,4.6851,4.6682,0.0,0.0,0.0,0.0,0.0,0.0,0.0,0.0,0.0,0.0,0.0,0.0,0.0,4.8071,0.0,0.0,0.0,0.0,0.0,0.0,4.6308,4.6308,4.6308,4.6308,4.6308,0.0,0.0,0.0,0.0,0.0,4.6308,4.6777,4.7598,0.0,4.8105,0.0,0.0,4.9238,0.0,5.0762,5.1105,5.0657,5.0282,5.0463,5.0666,0.0,4.9317,0.0,0.0,0.0,0.0,0.0,0.0,0.0,0.0,0.0,0.0,0.0,0.0,0.0,4.6355,0.0,4.5594,0.0,0.0,0.0,0.0,0.0,0.0,0.0,4.408,4.3667,4.4147,4.4086,4.4342,4.5296,4.5681,4.6085,4.6553,4.648,4.6737,4.7544,4.759,4.759,4.759,4.8058,4.8296,4.8296,4.8655,4.9252,5.0096,5.0904,5.1701,5.2509,5.2976,5.3196,5.3196,5.3196,5.3196,5.3196,5.3196,5.3196,5.3196,5.3196,5.3196,5.3196,5.3196,5.233,5.1099,5.1099,5.0202,4.9001,4.6413,0.0,4.6336,4.5706,0.0,0.0,0.0,0.0,0.0,0.0,0.0,0.0,4.7456,4.7283,0.0,0.0,4.8766,4.8769,0.0,0.0,4.7969,0.0,0.0,0.0,0.0,4.6426,4.6308,4.6308,4.6308,4.6308,0.0,0.0,0.0,0.0,4.6308,4.6777,4.7617,4.7851,4.8457,4.9277,4.9492,4.959,4.9687,5.0683,5.1148,5.1153,5.0309,5.0423,5.0699,4.9018,4.9298,0.0,4.8856,4.8293,4.8139,0.0,0.0,0.0,4.7062,0.0,0.0,0.0,0.0,0.0,0.0,0.0,0.0,0.0,0.0,0.0,0.0,0.0,0.0,0.0,0.0,4.3587,4.3505,4.3506,4.3928,4.5103,4.5443,4.5801,4.6379,4.6113,4.614,4.6737,4.6984,4.7094,4.7094,4.7856,4.8296,4.8296,4.8296,4.8728,4.9592,5.0188,5.0996,5.2005,5.2601,5.2994,5.3196,5.3196,5.3196,5.3196,5.3196,5.3196,5.3196,5.3196,5.3196,5.3196,5.3196,5.233,5.1099,5.1099,5.0202,4.9001,4.5633,4.5629,0.0,0.0,0.0,0.0,0.0,0.0,0.0,0.0,0.0,0.0,0.0,0.0,0.0,0.0,0.0,4.8576,4.8685,0.0,4.8867,0.0,0.0,4.6699,0.0,0.0,4.6308,4.6308,4.6308,4.6308,4.6308,0.0,0.0,0.0,4.6308,4.6777,4.7656,4.8496,4.9355,5.0234,5.1016,5.1328,5.123,0.0,5.0723,5.1365,5.1131,0.0,0.0,4.9749,4.9394,0.0,0.0,0.0,0.0,0.0,0.0,0.0,0.0,0.0,0.0,4.7081,0.0,0.0,0.0,0.0,4.5594,0.0,0.0,0.0,0.0,0.0,0.0,0.0,0.0,0.0,0.0,4.3506,4.3524,4.3561,4.4268,4.4755,4.4773,4.5461,4.5902,4.5938,4.6663,4.7094,4.7094,4.7856,4.8296,4.8296,4.8296,4.8728,4.9592,4.9629,5.0427,5.2005,5.2024,5.2454,5.3196,5.3196,5.3196,5.3196,5.3196,5.3196,5.3196,5.3196,5.3196,5.3196,5.3196,5.233,5.1099,5.1099,5.0202,4.9001,4.5706,0.0,0.0,0.0,4.5594,4.5594,4.5594,4.584,4.6286,4.6958,4.7263,4.795,0.0,4.9167,4.9126,0.0,0.0,5.017,4.9603,4.9681,0.0,0.0,0.0,4.7891,0.0,0.0,0.0,0.0,0.0,4.6308,4.6308,4.6308,4.6308,0.0,4.6308,4.6777,4.7656,4.8535,0.0,0.0,0.0,5.0605,5.0625,0.0,5.1152,5.1366,5.1175,5.1091,0.0,4.9772,4.9784,5.0168,4.9591,4.9202,4.9125,4.9995,4.9221,4.8235,0.0,0.0,4.8894,4.8625,0.0,0.0,0.0,0.0,0.0,0.0,0.0,0.0,0.0,0.0,0.0,0.0,0.0,0.0,0.0,0.0,4.3506,4.3506,4.3745,4.4121,4.4645,4.4452,4.4525,4.5067,4.536,4.5507,4.5507,4.6782,4.7498,4.7498,4.8021,4.8434,4.8728,4.9307,5.0133,5.1206,5.1738,5.2417,5.3196,5.3196,5.3196,5.3196,5.3196,5.3196,5.3196,5.3196,5.3196,5.3196,5.3196,5.233,5.1099,5.1099,5.0202,4.9001,4.5763,4.5594,4.5594,4.5594,4.5594,4.5721,4.6078,4.6089,4.6536,4.7875,4.7756,4.815,4.9827,0.0,4.9631,0.0,5.0303,5.046,5.0508,4.9724,0.0,5.0586,4.9219,0.0,0.0,0.0,0.0,0.0,0.0,4.6465,4.6758,4.6445,4.6308,4.6308,4.6308,4.6601,4.7226,4.8398,4.9219,0.0,0.0,5.0371,0.0,0.0,5.1112,5.1316,0.0,5.1061,5.092,5.0128,5.0245,5.0592,5.0034,4.9861,4.9976,5.0534,4.9899,4.9144,4.9707,4.9861,0.0,4.9471,4.8971,0.0,4.8178,0.0,4.6494,0.0,0.0,0.0,0.0,0.0,0.0,0.0,0.0,0.0,0.0,4.3506,4.3506,4.3506,4.3763,4.4011,4.425,4.4066,4.4011,4.4268,4.4535,4.47,4.47,4.6232,4.7094,4.7094,4.7874,4.8296,4.8296,4.8857,4.9711,5.082,5.1334,5.2142,5.3196,5.3196,5.3196,5.3196,5.3196,5.3196,5.3196,5.3196,5.3196,5.3196,5.3196,5.233,5.1099,5.1099,5.0202,4.9001,4.5763,4.5594,4.5594,4.5594,4.5633,4.5979,4.6941,4.7024,4.7623,4.9498,4.8946,4.8791,4.9884,4.9198,4.9042,5.0058,4.9303,4.9493,5.1172,4.9043,0.0,0.0,4.9082,4.8535,5.0156,0.0,0.0,0.0,0.0,4.6797,4.7578,4.6719,4.6308,4.6308,4.6308,4.6308,4.6406,4.8164,4.8926,4.9023,4.9824,5.0625,5.1269,5.0488,5.0615,5.1188,5.1116,5.1019,5.0879,5.0753,5.0707,5.0707,5.0707,5.0707,5.0707,5.0707,5.0707,5.0707,5.0707,5.0707,5.0495,4.9668,4.9433,0.0,0.0,0.0,4.8101,0.0,0.0,0.0,0.0,0.0,0.0,0.0,0.0,0.0,0.0,0.0,4.3506,4.3506,4.4176,4.4342,0.0,0.0,4.4323,4.3561,4.4213,4.4663,4.47,4.6149,4.7021,4.7094,4.7801,4.8223,4.8296,4.826,4.9067,5.0747,5.0784,5.1618,5.3141,5.3177,5.3196,5.3196,5.3196,5.3196,5.3196,5.3196,5.3196,5.3196,5.3196,5.233,5.1086,5.1021,5.0146,4.9001,4.5763,4.5594,4.5594,4.5594,4.6144,4.6647,4.69,4.7434,4.8043,4.873,4.9168,4.959,5.0109,5.0442,5.0268,4.9316,4.9589,0.0,0.0,0.0,0.0,5.1348,5.0762,5.0351,5.0195,4.9766,0.0,4.8906,0.0,0.0,4.7578,4.6719,4.6308,4.6308,4.6308,4.6308,4.6406,4.8164,4.9277,4.9824,4.9394,4.9746,5.0469,0.0,5.05,5.1116,5.1103,5.1019,5.0879,5.0753,5.0707,5.0707,5.0707,5.0707,5.0707,5.0707,5.0707,5.0707,5.0707,5.0707,5.0649,5.0418,4.988,4.9336,0.0,0.0,0.0,0.0,0.0,0.0,0.0,0.0,0.0,0.0,0.0,0.0,0.0,0.0,0.0,4.3506,0.0,0.0,0.0,0.0,4.3726,4.3524,4.369,4.4066,4.4663,4.5085,4.5865,4.7058,4.6718,4.7095,4.8296,4.7709,4.8223,4.9829,5.049,5.1334,5.2325,5.292,5.3196,5.3196,5.3196,5.3196,5.3196,5.3196,5.3196,5.3196,5.3196,5.233,5.0968,4.9907,4.9301,4.9001,4.5763,4.5594,4.5594,4.5594,4.6605,4.7445,4.7494,4.7896,4.8548,4.9551,4.9795,5.0098,5.0663,5.1133,5.1016,5.0078,4.9766,0.0,4.998,0.0,0.0,5.1328,5.1055,5.0664,5.0215,5.0195,0.0,4.9473,0.0,0.0,4.8144,4.6894,4.6308,4.6308,4.6308,4.6308,4.6406,4.8164,4.9394,5.0156,4.9668,4.9961,0.0,5.0188,5.0467,5.1084,5.1022,5.0925,5.0793,5.0736,5.0707,5.0707,5.0707,5.0707,5.0707,5.0707,5.0707,5.0707,5.0707,5.0707,5.0707,5.0707,5.0322,4.9976,4.9976,4.9591,4.924,0.0,4.924,4.9125,0.0,0.0,0.0,0.0,0.0,0.0,0.0,0.0,0.0,0.0,4.3818,4.3892,4.3524,4.3506,4.3506,4.3506,4.3506,4.3708,4.4158,4.4837,4.5471,4.603,4.6296,4.6682,4.726,4.6792,4.7572,4.9545,5.0041,5.1059,5.2546,5.2994,5.3196,5.3196,5.3196,5.3196,5.3196,5.3196,5.3196,5.3143,5.2527,5.1789,5.0929,4.9506,4.9001,4.9001,4.5763,4.5594,4.5633,4.5744,4.6971,4.8062,4.8392,4.8533,4.9181,5.0782,5.0504,5.0416,5.1131,5.1328,5.1367,5.125,4.9902,4.9687,5.1152,4.918,4.8984,5.1308,5.0723,5.0351,5.0351,5.0351,5.0351,0.0,0.0,0.0,4.8867,4.7129,4.6308,4.6308,4.6308,4.6426,0.0,4.8144,4.9297,5.0195,5.0195,5.0625,5.1152,5.0414,5.0534,5.1071,5.0928,5.0808,5.0707,5.0707,5.0707,5.0707,5.0707,5.0707,5.0707,5.0707,5.0707,5.0707,5.0707,5.0707,5.0707,5.0707,5.0707,5.0707,5.0707,5.0707,5.0707,5.0707,5.0707,5.0476,4.9707,0.0,0.0,0.0,0.0,0.0,0.0,0.0,0.0,0.0,0.0,0.0,4.3579,4.3506,4.3506,4.3506,4.3506,4.3543,4.3653,4.4883,4.5351,4.4865,4.6104,4.6553,4.6067,4.5957,4.7159,4.961,4.961,5.0812,5.3049,5.3159,5.3196,5.3196,5.3196,5.3196,5.3196,5.3196,5.3196,5.3071,5.1654,5.1099,5.0929,4.9506,4.9001,4.9001,4.5763,4.5594,4.5821,4.6547,4.6928,4.7576,4.8992,4.983,5.0173,4.9918,5.0472,5.0739,5.0293,5.0932,5.1133,5.0469,5.0137,0.0,0.0,0.0,0.0,5.1348,5.1269,5.1191,5.1191,5.1191,5.1191,0.0,0.0,0.0,4.8867,4.7129,4.6308,4.6308,4.6308,4.7109,4.8418,4.8008,0.0,5.0195,5.0195,5.0273,5.0448,5.0787,5.0994,5.1078,5.083,5.0726,5.0707,5.0707,5.0707,5.0707,5.0707,5.0707,5.0707,5.0707,5.0707,5.0707,5.0707,5.0707,5.0707,5.0707,5.0707,5.0707,5.0707,5.0707,5.0707,5.0707,5.0707,5.0649,5.0495,0.0,0.0,0.0,0.0,0.0,0.0,0.0,0.0,0.0,0.0,4.437,0.0,4.3506,4.3506,4.3506,4.3506,4.38,4.4443,4.4121,4.4461,4.5645,4.5324,4.5691,4.6874,4.6232,4.7159,4.961,4.961,5.0518,5.2234,5.2913,5.3196,5.3196,5.3196,5.3196,5.3196,5.3196,5.3196,5.3071,5.1654,5.1099,5.0929,4.9506,4.9001,4.9001,4.6355,4.5917,4.5725,4.6144,4.6951,4.7793,4.8606,4.9861,5.0599,5.031,5.0796,5.1023,5.0652,5.1086,5.123,5.0859,5.0449,5.0371,5.0801,5.043,5.0566,5.1367,5.1406,5.1191,5.0781,5.1191,5.1191,5.0781,0.0,0.0,0.0,0.0,4.6308,4.6328,4.6777,4.7441,0.0,0.0,4.9433,5.0234,5.0644,5.082,5.0839,5.1023,5.1091,5.1055,5.0804,5.0707,5.0707,5.0707,5.0707,5.0707,5.0707,5.0707,5.0707,5.0707,5.0707,5.0707,5.0707,5.0707,5.0707,5.0707,5.0707,5.0707,5.0707,5.0707,5.0707,5.0707,5.0707,5.0553,5.0111,4.9077,0.0,0.0,0.0,0.0,0.0,0.0,4.4747,0.0,0.0,0.0,0.0,0.0,4.3956,4.3524,4.3506,4.3671,4.4066,4.4103,4.4488,4.5259,4.5314,4.5691,4.6461,4.6085,4.7159,4.961,4.961,5.0665,5.2637,5.3012,5.3196,5.3196,5.3196,5.3196,5.3196,5.3196,5.3196,5.3071,5.1654,5.1099,5.0929,4.9506,4.9001,4.9001,4.7158,4.6605,4.6186,4.6379,4.7355,4.8216,4.8606,4.9668,5.0528,5.0824,5.1047,5.118,5.118,5.1316,5.1328,5.1152,5.0723,5.0566,5.0859,5.0605,5.0664,5.1113,5.1308,5.1094,5.0469,5.1074,5.1094,0.0,0.0,0.0,0.0,0.0,0.0,0.0,4.748,4.7988,4.8242,4.9629,5.0293,5.0508,5.1133,5.1406,5.1386,5.1179,5.1091,5.1055,5.0804,5.0707,5.0707,5.0707,5.0707,5.0707,5.0707,5.0707,5.0707,5.0707,5.0707,5.0707,5.0707,5.0707,5.0707,5.0707,5.0707,5.0707,5.0707,5.0707,5.0707,5.0707,5.0707,5.0495,4.9803,4.9311,0.0,0.0,0.0,0.0,0.0,0.0,0.0,0.0,0.0,0.0,4.4755,4.4553,4.4176,4.3543,4.3506,4.3561,4.3745,4.4195,4.4516,4.47,4.5314,4.5736,4.5902,0.0,4.7232,4.9858,4.9684,5.0867,5.3196,5.3196,5.3196,5.3196,5.3196,5.3196,5.3196,5.3196,5.3103,5.2842,5.1586,5.1008,5.0716,4.9464,4.9001,4.9001,4.7985,4.7908,4.8125,4.8913,4.8529,4.8625,5.0226,4.9918,4.9808,5.0606,5.0943,5.111,5.111,5.1279,5.1113,5.0371,5.0918,5.0664,4.9238,5.0488,5.0996,5.0332,5.1016,5.1367,5.1289,5.1367,5.1367,0.0,0.0,4.9668,0.0,0.0,0.0,0.0,4.8398,4.9219,4.9961,5.0137,5.0625,5.1289,5.1367,5.1406,5.1386,5.1179,5.1091,5.1055,5.0804,5.0707,5.0707,5.0707,5.0707,5.0707,5.0707,5.0707,5.0707,5.0707,5.0707,5.0707,5.0707,5.0707,5.0707,5.0707,5.0707,5.0707,5.0707,5.0707,5.0707,5.0707,5.0707,5.0668,5.0592,4.9918,4.9072,0.0,0.0,0.0,0.0,0.0,4.5071,4.4735,0.0,0.0,4.4718,4.4048,4.3579,4.3506,4.3506,4.3818,4.4553,4.3983,4.3956,4.4681,4.4773,4.5168,4.5883,4.5902,4.7517,5.0674,4.9949,5.0867,5.3196,5.3196,5.3196,5.3196,5.3196,5.3196,5.3196,5.3196,5.2809,5.2124,5.1381,5.0689,5.0019,4.9271,4.9001,4.9001,4.8875,4.8471,4.8216,4.8567,4.8759,4.9125,4.9803,5.0072,5.0303,5.0649,5.0856,5.1016,5.1081,5.1203,5.1182,5.0937,5.1211,5.1113,5.0449,5.1035,5.1269,5.0937,5.123,5.1406,5.1406,5.1406,5.1406,0.0,0.0,0.0,0.0,0.0,0.0,0.0,4.9297,4.9863,5.0234,5.0723,5.1113,5.1406,5.1406,5.1406,5.1386,5.1179,5.1091,5.1055,5.0804,5.0707,5.0707,5.0707,5.0707,5.0707,5.0707,5.0707,5.0707,5.0707,5.0707,5.0707,5.0707,5.0707,5.0707,5.0707,5.0707,5.0707,5.0707,5.0707,5.0707,5.0707,5.0707,5.0707,5.0707,5.0418,4.9899,4.9029,0.0,0.0,0.0,0.0,0.0,4.614,0.0,4.5599,0.0,4.4975,4.4213,4.4213,4.3763,4.3635,4.3956,4.4121,4.4599,4.5388,4.5424,4.6049,4.7333,4.7352,4.8508,5.0802,5.0959,5.1793,5.3196,5.3196,5.3196,5.3196,5.3196,5.3196,5.3196,5.3196,5.2769,5.2024,5.1368,5.0649,4.9919,4.9258,4.9001,4.9001,5.0144,4.9856,4.9601,4.9601,5.0106,5.0529,5.0529,5.1029,5.1448,5.1489,5.1582,5.1505,5.1135,5.1196,5.1198,5.1055,5.1269,5.1191,5.0703,5.1133,5.1289,5.1055,5.1269,0.0,5.1406,5.1406,5.1406,5.1406,5.0215,0.0,0.0,0.0,4.8691,4.9316,5.0176,5.0547,5.0586,5.1152,5.1406,5.1406,5.1406,5.1406,5.1386,5.1179,5.1091,5.1055,5.0804,5.0707,5.0707,5.0707,5.0707,5.0707,5.0707,5.0707,5.0707,5.0707,5.0707,5.0707,5.0707,5.0707,5.0707,5.0707,5.0707,5.0707,5.0707,5.0707,5.0707,5.0707,5.0707,5.0707,5.0707,5.0707,5.0418,4.9529,0.0,0.0,0.0,4.689,0.0,4.6755,4.6049,4.5856,4.6663,4.5507,4.47,4.47,4.4176,4.3846,4.3846,4.4176,4.4727,4.5516,4.5314,0.0,4.759,4.7819,4.8902,5.082,5.162,5.2417,5.3196,5.3196,5.3196,5.3196,5.3196,5.3196,5.3196,5.3196,5.2651,5.1771,5.1279,5.0531,4.9649,4.9167,4.9001,4.9001,5.1865,5.2544,5.314,5.314,5.314,5.314,5.314,5.3159,5.3225,5.3352,5.3363,5.2792,5.1271,5.1276,5.1074,5.0273,5.0937,5.0703,4.9043,5.0488,5.1055,0.0,0.0,5.1406,5.1406,5.1406,5.1406,5.1406,0.0,0.0,5.0176,5.0176,5.0176,5.0215,5.1035,5.1387,5.1387,5.1406,5.1406,5.1406,5.1406,5.1406,5.1386,5.1179,5.1091,5.1055,5.0804,5.0707,5.0707,5.0707,5.0707,5.0707,5.0707,5.0707,5.0707,5.0707,5.0707,5.0707,5.0707,5.0707,5.0707,5.0707,5.0707,5.0707,5.0707,5.0707,5.0707,5.0707,5.0707,5.0707,5.0707,5.0707,5.0418,4.9529,0.0,0.0,0.0,4.666,0.0,4.5956,4.5195,4.503,4.5847,4.5177,4.47,4.47,4.47,4.4681,4.4681,4.3938,4.3883,4.4681,4.3938,0.0,4.5902,4.6718,4.8351,5.082,5.162,5.2417,5.3196,5.3196,5.3196,5.3196,5.3196,5.3196,5.3196,5.3196,5.2383,5.1112,5.1099,5.0244,4.9001,4.9001,4.9001,4.9001,5.2794,5.3005,5.3197,5.3197,5.3197,5.3197,5.3197,5.3197,5.3214,5.3263,5.3424,5.3341,5.2859,5.2937,5.2723,5.1972,5.1601,5.1172,5.0644,5.0586,5.0703,5.1016,5.0742,5.0586,5.0586,5.0586,5.0586,5.0586,0.0,5.0449,5.0195,5.0195,5.0488,5.1035,5.1289,5.1406,5.1406,5.1406,5.1406,5.1406,5.1406,5.1406,5.1444,5.1799,5.1923,5.1964,5.2281,5.2029,5.1524,5.1524,5.1144,5.0707,5.0707,5.0707,5.0707,5.0707,5.0707,5.0707,5.0707,5.0707,5.0707,5.0707,5.0707,5.0707,5.0707,5.0707,5.0707,5.0707,5.0707,5.0707,5.0707,5.0707,5.0418,4.9529,4.9568,0.0,4.7998,0.0,4.7139,4.6755,4.6012,4.5819,4.6645,4.5984,4.5516,4.5516,4.5012,4.47,4.47,4.4984,4.5498,0.0,4.6094,0.0,4.7535,4.8324,4.9426,5.082,5.2179,5.2957,5.3196,5.3196,5.3196,5.3196,5.3196,5.3196,5.3164,5.2662,5.1922,5.1047,5.054,4.9795,4.9001,4.9001,4.9001,4.9001,5.3683,5.3933,5.4145,5.4145,5.4145,5.4145,5.4145,5.4145,5.4162,5.4203,5.4432,5.4597,5.4643,5.4772,5.4405,5.3281,5.2695,5.2383,5.2383,5.1914,5.1719,5.1875,5.1406,5.0996,5.0664,5.0644,5.0644,5.0644,5.0644,5.0644,5.0644,5.0644,5.0918,5.1406,5.1406,5.1406,5.1406,5.1406,5.1582,5.1894,5.1894,5.207,5.2401,5.2676,5.2798,5.2819,5.3092,5.2851,5.239,5.239,5.2049,5.165,5.165,5.165,5.1515,5.088,5.0707,5.0707,5.0707,5.0707,5.0707,5.0707,5.0707,5.0707,5.0707,5.0707,5.0707,5.0707,5.0707,5.0707,5.0707,5.0707,5.0515,4.9976,4.9874,4.9597,4.8808,0.0,4.7375,0.0,0.0,4.6214,4.7021,4.6645,4.6351,4.6351,4.5599,4.5287,4.5599,4.5489,4.5828,4.6627,4.6645,4.7177,4.8296,4.9114,5.0115,5.1261,5.2572,5.3196,5.3196,5.3196,5.3196,5.3196,5.3196,5.3196,5.3135,5.2393,5.1692,5.1021,5.0297,4.9593,4.9001,4.9001,4.9001,4.9001,5.4587,5.5189,5.5708,5.5708,5.5708,5.5708,5.5708,5.5708,5.5739,5.587,5.6065,5.6259,5.6374,5.6513,5.5957,5.4316,5.4062,5.4004,5.4004,5.3945,5.3574,5.2812,5.2734,5.2324,5.1504,5.1484,5.1523,5.1582,5.1582,5.1543,5.1484,5.1484,5.1484,5.1484,5.1484,5.1523,5.1582,5.1582,5.2051,5.2793,5.2793,5.3281,5.3983,5.3771,5.3698,5.3661,5.3443,5.3332,5.3294,5.3294,5.3255,5.3197,5.3197,5.3197,5.2876,5.1265,5.0784,5.0765,5.0726,5.0707,5.0707,5.0707,5.0707,5.0707,5.0707,5.0707,5.0707,5.0707,5.0707,5.0707,5.0707,5.0707,5.0707,5.0707,5.0012,4.9477,4.9421,4.808,4.7076,4.7021,0.0,4.6278,4.7021,4.7149,4.7168,0.0,4.6406,4.6296,4.7058,4.5682,4.5232,4.603,4.6122,4.6874,4.8379,4.9307,5.0555,5.2097,5.2829,5.3196,5.3196,5.3196,5.3196,5.3196,5.3196,5.3175,5.3071,5.2335,5.163,5.0955,5.0213,4.9548,4.9001,4.9001,4.9001,4.9001,5.542,5.5574,5.5708,5.5708,5.5708,5.5708,5.5708,5.5708,5.571,5.5734,5.6008,5.6205,5.6237,5.6458,5.6426,5.6015,5.4765,5.4004,5.4004,5.3379,5.3203,5.3672,5.3047,5.2598,5.2402,5.2383,5.2715,5.3379,5.3379,5.3047,5.2383,5.2383,5.2383,5.2383,5.2383,5.2754,5.3379,5.3379,5.3496,5.3691,5.3691,5.3828,5.4042,5.443,5.4588,5.4647,5.4988,5.4703,5.4184,5.4184,5.376,5.3197,5.3197,5.3197,5.2986,5.1928,5.162,5.1486,5.0861,5.0707,5.0707,5.0707,5.0707,5.0707,5.0707,5.0707,5.0707,5.0707,5.0707,5.0707,5.0707,5.0707,5.0707,5.0707,5.0012,4.9296,4.8676,4.7735,4.6874,0.0,4.6553,4.6902,4.7076,4.7672,4.7764,0.0,0.0,4.6892,4.7094,4.6746,4.6902,4.7709,4.8389,4.8903,4.9288,5.072,5.1922,5.292,5.3104,5.3196,5.3196,5.3196,5.3196,5.3196,5.3196,5.2875,5.2312,5.1624,5.0916,5.0185,4.9506,4.9136,4.9001,4.9001,4.9001,4.9001,5.5708,5.5708,5.5708,5.5708,5.5708,5.5708,5.5708,5.5708,5.5708,5.5708,5.5998,5.6194,5.6194,5.643,5.6601,5.6601,5.5723,5.5195,5.5195,5.4746,5.4512,5.459,5.4141,5.3691,5.3301,5.3281,5.3535,5.4004,5.4004,5.3769,5.3281,5.3281,5.3281,5.3281,5.3281,5.3555,5.4004,5.4004,5.4238,5.459,5.459,5.4824,5.5214,5.5426,5.5488,5.5505,5.5644,5.542,5.5054,5.5054,5.4722,5.4337,5.4337,5.4337,5.4184,5.3332,5.2813,5.2409,5.1952,5.1548,5.1164,5.0784,5.0707,5.0707,5.0707,5.0707,5.0707,5.0707,5.0707,5.0707,5.0707,5.0707,5.0707,5.0707,4.9719,4.8801,4.8369,4.7279,4.6535,4.6461,4.6819,4.7241,4.7617,4.8039,4.8113,4.7691,4.7314,0.0,4.7636,4.7296,4.7471,4.826,4.9142,4.9776,5.0151,5.1738,5.2766,5.3196,5.3196,5.3196,5.3196,5.3196,5.3196,5.3196,5.3196,5.278,5.2035,5.1381,5.0662,4.9933,4.9256,4.9001,4.9001,4.9001,4.9001,4.9001,5.5708,5.5708,5.5708,5.5708,5.5708,5.5708,5.5708,5.5708,5.5708,5.5708,5.5998,5.6194,5.6194,5.643,5.6601,5.6601,5.6601,5.6601,5.6601,5.6601,5.6269,5.5527,5.5508,5.5156,5.4414,5.4394,5.4394,5.4394,5.4394,5.4336,5.4199,5.4199,5.4199,5.4199,5.4199,5.4277,5.4394,5.4394,5.4824,5.5508,5.5508,5.5937,5.6561,5.6307,5.6194,5.6155,5.5822,5.5708,5.5708,5.5708,5.5708,5.5708,5.5708,5.5708,5.5574,5.4876,5.4164,5.353,5.3274,5.2659,5.1928,5.1246,5.0976,5.088,5.088,5.0784,5.0707,5.0707,5.0707,5.0707,5.0707,5.0707,5.064,5.0465,4.9231,4.8235,4.8046,0.0,4.6333,4.7021,4.7204,4.7562,4.8223,4.8296,4.8296,4.8296,4.7672,4.7636,4.8443,4.7856,4.7856,4.8645,4.9399,5.0225,5.1151,5.2517,5.3196,5.3196,5.3196,5.3196,5.3196,5.3196,5.3196,5.3196,5.3196,5.2725,5.1904,5.133,5.0612,4.9792,4.9228,4.9001,4.9001,4.9001,4.9001,4.9001,5.5708,5.5708,5.5708,5.5708,5.5708,5.5708,5.5708,5.5708,5.5708,5.5708,5.5998,5.6194,5.6194,5.643,5.6601,5.6601,5.6601,5.6601,5.6601,5.6601,5.6543,5.6406,5.6406,5.6328,5.6191,5.6191,5.6191,5.6191,5.6191,5.582,5.5098,5.5098,5.5098,5.5098,5.5098,5.5508,5.6191,5.6191,5.6269,5.6406,5.6406,5.6484,5.6561,5.6307,5.6194,5.6155,5.5822,5.5708,5.5708,5.5708,5.5708,5.5708,5.5708,5.5708,5.5689,5.5555,5.542,5.4991,5.3587,5.3101,5.2967,5.2837,5.2255,5.1717,5.1717,5.1183,5.0707,5.0707,5.0707,5.0707,5.0707,5.0707,5.0374,4.9359,4.8675,4.7935,4.6928,0.0,4.6947,4.7094,4.7709,4.815,4.8296,4.8296,4.8296,4.8296,4.8186,4.8489,4.9344,4.927,4.9582,5.0398,5.0545,5.1334,5.281,5.3086,5.3196,5.3196,5.3196,5.3196,5.3196,5.3196,5.3196,5.3196,5.3196,5.2463,5.1241,5.1138,5.0324,4.9136,4.9048,4.9001,4.9001,4.9001,4.9001,4.9001,5.5708,5.5708,5.5708,5.5708,5.5708,5.5708,5.5708,5.5708,5.5708,5.5708,5.5998,5.6194,5.6194,5.643,5.6601,5.6601,5.6601,5.6601,5.6601,5.6601,5.6601,5.6601,5.6601,5.6601,5.6601,5.6601,5.6601,5.6601,5.6601,5.6387,5.5996,5.5996,5.5996,5.5996,5.5996,5.6211,5.6601,5.6601,5.6601,5.6601,5.6601,5.6601,5.6561,5.6307,5.6194,5.6155,5.5822,5.5708,5.5708,5.5708,5.5708,5.5708,5.5708,5.5708,5.5708,5.5708,5.5708,5.5439,5.4222,5.3895,5.3799,5.3313,5.289,5.2601,5.2601,5.2318,5.1914,5.1433,5.1356,5.1202,5.0784,5.0707,5.0449,4.9662,4.8845,4.8027,4.7263,4.7118,4.7094,4.7094,4.7819,4.8296,4.8296,4.8296,4.8489,4.8912,4.8985,4.9362,5.0206,5.0261,5.0618,5.1426,5.1444,5.2013,5.3196,5.3196,5.3196,5.3196,5.3196,5.3196,5.3196,5.3196,5.3196,5.3175,5.278,5.2036,5.1073,5.0662,4.9907,4.9001,4.9001,4.9001,4.9001,4.9001,4.9001,4.9001,5.5708,5.5708,5.5708,5.5708,5.5708,5.5708,5.5708,5.5708,5.5708,5.5708,5.5998,5.6194,5.6194,5.643,5.6601,5.6601,5.6601,5.6601,5.6601,5.6601,5.6601,5.6601,5.6601,5.6601,5.6601,5.6601,5.6601,5.6601,5.6601,5.6601,5.6601,5.6601,5.6601,5.6601,5.6601,5.6601,5.6601,5.6601,5.6601,5.6601,5.6601,5.6601,5.6561,5.6307,5.6194,5.6155,5.5822,5.5708,5.5708,5.5708,5.5708,5.5708,5.5708,5.5708,5.5708,5.5708,5.5708,5.5574,5.4953,5.478,5.4626,5.3953,5.3645,5.351,5.351,5.3356,5.3005,5.2332,5.2197,5.1947,5.1125,5.0976,5.0692,4.9827,0.0,4.8122,4.7638,4.7287,4.7168,4.7351,4.8095,4.86,4.86,4.8765,4.915,4.9756,4.9858,5.0225,5.1041,5.1077,5.1444,5.2252,5.227,5.2582,5.3196,5.3196,5.3196,5.3196,5.3196,5.3196,5.3196,5.3196,5.3103,5.2915,5.2347,5.1618,5.0796,5.0241,4.9607,4.9001,4.9001,4.9001,4.9001,4.9001,4.9001,4.9001,5.5708,5.5708,5.5708,5.5708,5.5708,5.5708,5.5708,5.5708,5.5708,5.5708,5.5998,5.6194,5.6194,5.643,5.6601,5.6601,5.6601,5.6601,5.6601,5.6601,5.6601,5.6601,5.6601,5.6601,5.6601,5.6601,5.6601,5.6601,5.6601,5.6601,5.6601,5.6601,5.6601,5.6601,5.6601,5.6601,5.6601,5.6601,5.6601,5.6601,5.6601,5.6601,5.6561,5.6307,5.6194,5.6155,5.5822,5.5708,5.5708,5.5708,5.5708,5.5708,5.5708,5.5708,5.5708,5.5708,5.5708,5.5689,5.5631,5.5612,5.5593,5.5535,5.4953,5.4395,5.4395,5.378,5.3178,5.3121,5.3101,5.2832,5.1967,5.1813,5.107,4.881,0.0,0.0,4.7251,4.7122,4.7369,4.8113,4.8976,4.95,4.95,5.0178,5.0637,5.071,5.071,5.1059,5.1877,5.1914,5.227,5.3086,5.3104,5.3141,5.3196,5.3196,5.3196,5.3196,5.3196,5.3196,5.3196,5.3196,5.2831,5.2171,5.2124,5.1325,5.009,5.0033,4.9607,4.9001,4.9001,4.9001,4.9001,4.9001,4.9001,4.9001,5.5708,5.5708,5.5708,5.5708,5.5708,5.5708,5.5708,5.5708,5.5708,5.5708,5.5998,5.6194,5.6194,5.643,5.6601,5.6601,5.6601,5.6601,5.6601,5.6601,5.6601,5.6601,5.6601,5.6601,5.6601,5.6601,5.6601,5.6601,5.6601,5.6601,5.6601,5.6601,5.6601,5.6601,5.6601,5.6601,5.6601,5.6601,5.6601,5.6601,5.6601,5.6601,5.6561,5.6307,5.6194,5.6155,5.5822,5.5708,5.5708,5.5708,5.5708,5.5708,5.5708,5.5708,5.5708,5.5708,5.5708,5.5708,5.5708,5.5708,5.5708,5.5708,5.5478,5.5247,5.5247,5.4991,5.4607,5.4107,5.401,5.3741,5.287,5.2255,5.1442,5.0069,0.0,4.8757,4.796,4.7838,4.815,4.9013,4.9399,4.9802,5.0298,5.0618,5.1004,5.1499,5.1536,5.1903,5.2711,5.2747,5.2884,5.3196,5.3196,5.3196,5.3196,5.3196,5.3196,5.3196,5.3196,5.3196,5.3185,5.2736,5.237,5.2047,5.1172,5.05,4.9962,4.9548,4.9226,4.9001,4.9001,4.9001,4.9001,4.9001,4.9001,4.9001,5.5708,5.5708,5.5708,5.5708,5.5708,5.5708,5.5708,5.5708,5.5708,5.5708,5.5998,5.6194,5.6194,5.643,5.6601,5.6601,5.6601,5.6601,5.6601,5.6601,5.6601,5.6601,5.6601,5.6601,5.6601,5.6601,5.6601,5.6601,5.6601,5.6601,5.6601,5.6601,5.6601,5.6601,5.6601,5.6601,5.6601,5.6601,5.6601,5.6601,5.6601,5.6601,5.6561,5.6307,5.6194,5.6155,5.5822,5.5708,5.5708,5.5708,5.5708,5.5708,5.5708,5.5708,5.5708,5.5708,5.5708,5.5708,5.5708,5.5708,5.5708,5.5708,5.5708,5.5708,5.5708,5.5708,5.5535,5.4991,5.4876,5.4626,5.378,5.3009,5.2203,5.1327,5.0549,4.9836,4.9174,4.9095,4.9315,4.9913,5.0188,5.0573,5.1114,5.1408,5.1793,5.2344,5.238,5.2619,5.3177,5.3196,5.3196,5.3196,5.3196,5.3196,5.3196,5.3196,5.3196,5.3196,5.3196,5.3196,5.3175,5.2445,5.1988,5.1716,5.0527,4.9893,4.9649,4.9197,4.9001,4.9001,4.9001,4.9001,4.9001,4.9001,4.9001,4.9001,5.5708,5.5708,5.5708,5.5708,5.5708,5.5708,5.5708,5.5708,5.5708,5.5708,5.5998,5.6194,5.6194,5.643,5.6601,5.6601,5.6601,5.6601,5.6601,5.6601,5.6601,5.6601,5.6601,5.6601,5.6601,5.6601,5.6601,5.6601,5.6601,5.6601,5.6601,5.6601,5.6601,5.6601,5.6601,5.6601,5.6601,5.6601,5.6601,5.6601,5.6601,5.6601,5.6561,5.6307,5.6194,5.6155,5.5822,5.5708,5.5708,5.5708,5.5708,5.5708,5.5708,5.5708,5.5708,5.5708,5.5708,5.5708,5.5708,5.5708,5.5708,5.5708,5.5708,5.5708,5.5708,5.5708,5.5708,5.5708,5.5708,5.5458,5.4664,5.4124,5.3405,5.222,5.1609,5.1185,5.0854,5.0802,5.0802,5.082,5.1499,5.2005,5.2005,5.2729,5.3196,5.3196,5.3196,5.3196,5.3196,5.3196,5.3196,5.3196,5.3196,5.3196,5.3196,5.3196,5.3196,5.3196,5.3196,5.3196,5.3175,5.2445,5.1729,5.106,5.0324,4.9622,4.9001,4.9001,4.9001,4.9001,4.9001,4.9001,4.9001,4.9001,4.9001,4.9001,5.5708,5.5708,5.5708,5.5708,5.5708,5.5708,5.5708,5.5708,5.5708,5.5708,5.5998,5.6194,5.6194,5.643,5.6601,5.6601,5.6601,5.6601,5.6601,5.6601,5.6601,5.6601,5.6601,5.6601,5.6601,5.6601,5.6601,5.6601,5.6601,5.6601,5.6601,5.6601,5.6601,5.6601,5.6601,5.6601,5.6601,5.6601,5.6601,5.6601,5.6601,5.6601,5.6561,5.6307,5.6194,5.6155,5.5822,5.5708,5.5708,5.5708,5.5708,5.5708,5.5708,5.5708,5.5708,5.5708,5.5708,5.5708,5.5708,5.5708,5.5708,5.5708,5.5708,5.5708,5.5708,5.5708,5.5708,5.5708,5.5708,5.5631,5.5401,5.4768,5.3974,5.3002,5.2252,5.1563,5.0895,5.0802,5.1004,5.1573,5.1858,5.2226,5.2803,5.3067,5.3196,5.3196,5.3196,5.3196,5.3196,5.3196,5.3196,5.3196,5.3196,5.3196,5.3196,5.3196,5.3196,5.3196,5.3196,5.3196,5.3175,5.2445,5.1729,5.106,5.0324,4.9622,4.9001,4.9001,4.9001,4.9001,4.9001,4.9001,4.9001,4.9001,4.9001,4.9001,5.5708,5.5708,5.5708,5.5708,5.5708,5.5708,5.5708,5.5708,5.5708,5.5708,5.5998,5.6194,5.6194,5.643,5.6601,5.6601,5.6601,5.6601,5.6601,5.6601,5.6601,5.6601,5.6601,5.6601,5.6601,5.6601,5.6601,5.6601,5.6601,5.6601,5.6601,5.6601,5.6601,5.6601,5.6601,5.6601,5.6601,5.6601,5.6601,5.6601,5.6601,5.6601,5.6561,5.6307,5.6194,5.6155,5.5822,5.5708,5.5708,5.5708,5.5708,5.5708,5.5708,5.5708,5.5708,5.5708,5.5708,5.5708,5.5708,5.5708,5.5708,5.5708,5.5708,5.5708,5.5708,5.5708,5.5708,5.5708,5.5708,5.5708,5.5708,5.5168,5.4511,5.3827,5.3153,5.2502,5.1842,5.1746,5.193,5.2417,5.2472,5.2674,5.3159,5.3196,5.3196,5.3196,5.3196,5.3196,5.3196,5.3196,5.3196,5.3196,5.3196,5.3196,5.3196,5.3196,5.3196,5.3196,5.3196,5.3196,5.3175,5.2445,5.1729,5.106,5.0324,4.9622,4.9001,4.9001,4.9001,4.9001,4.9001,4.9001,4.9001,4.9001,4.9001,4.9001,5.5708,5.5708,5.5708,5.5708,5.5708,5.5708,5.5708,5.5708,5.5708,5.5708,5.5998,5.6194,5.6194,5.643,5.6601,5.6601,5.6601,5.6601,5.6601,5.6601,5.6601,5.6601,5.6601,5.6601,5.6601,5.6601,5.6601,5.6601,5.6601,5.6601,5.6601,5.6601,5.6601,5.6601,5.6601,5.6601,5.6601,5.6601,5.6601,5.6601,5.6601,5.6601,5.6561,5.6307,5.6194,5.6155,5.5822,5.5708,5.5708,5.5708,5.5708,5.5708,5.5708,5.5708,5.5708,5.5708,5.5708,5.5708,5.5708,5.5708,5.5708,5.5708,5.5708,5.5708,5.5708,5.5708,5.5708,5.5708,5.5708,5.5708,5.5708,5.5381,5.4973,5.4574,5.4101,5.3663,5.3261,5.3196,5.3196,5.3196,5.3196,5.3196,5.3196,5.3196,5.3196,5.3196,5.3196,5.3196,5.3196,5.3196,5.3196,5.3196,5.3196,5.3196,5.3196,5.3196,5.3196,5.3196,5.3196,5.3196,5.3175,5.2445,5.1729,5.106,5.0324,4.9622,4.9001,4.9001,4.9001,4.9001,4.9001,4.9001,4.9001,4.9001,4.9001,4.9001,5.5708,5.5708,5.5708,5.5708,5.5708,5.5708,5.5708,5.5708,5.5708,5.5708,5.5998,5.6194,5.6194,5.643,5.6601,5.6601,5.6601,5.6601,5.6601,5.6601,5.6601,5.6601,5.6601,5.6601,5.6601,5.6601,5.6601,5.6601,5.6601,5.6601,5.6601,5.6601,5.6601,5.6601,5.6601,5.6601,5.6601,5.6601,5.6601,5.6601,5.6601,5.6601,5.6561,5.6307,5.6194,5.6155,5.5822,5.5708,5.5708,5.5708,5.5708,5.5708,5.5708,5.5708,5.5708,5.5708,5.5708,5.5708,5.5708,5.5708,5.5708,5.5708,5.5708,5.5708,5.5708,5.5708,5.5708,5.5708,5.5708,5.5708,5.5708,5.5381,5.4973,5.4574,5.4101,5.3663,5.3261,5.3196,5.3196,5.3196,5.3196,5.3196,5.3196,5.3196,5.3196,5.3196,5.3196,5.3196,5.3196,5.3196,5.3196,5.3196,5.3196,5.3196,5.3196,5.3196,5.3196,5.3196,5.3196,5.3196,5.3175,5.2445,5.1729,5.106,5.0324,4.9622,4.9001,4.9001,4.9001,4.9001,4.9001,4.9001,4.9001,4.9001,4.9001,4.9001,5.5708,5.5708,5.5708,5.5708,5.5708,5.5708,5.5708,5.5708,5.5708,5.5708,5.5998,5.6194,5.6194,5.643,5.6601,5.6601,5.6601,5.6601,5.6601,5.6601,5.6601,5.6601,5.6601,5.6601,5.6601,5.6601,5.6601,5.6601,5.6601,5.6601,5.6601,5.6601,5.6601,5.6601,5.6601,5.6601,5.6601,5.6601,5.6601,5.6601,5.6601,5.6601,5.6561,5.6307,5.6194,5.6155,5.5822,5.5708,5.5708,5.5708,5.5708,5.5708,5.5708,5.5708,5.5708,5.5708,5.5708,5.5708,5.5708,5.5708,5.5708,5.5708,5.5708,5.5708,5.5708,5.5708,5.5708,5.5708,5.5708,5.5708,5.5708,5.5381,5.4973,5.4574,5.4101,5.3663,5.3261,5.3196,5.3196,5.3196,5.3196,5.3196,5.3196,5.3196,5.3196,5.3196,5.3196,5.3196,5.3196,5.3196,5.3196,5.3196,5.3196,5.3196,5.3196,5.3196,5.3196,5.3196,5.3196,5.3196,5.3175,5.2445,5.1729,5.106,5.0324,4.9622,4.9001,4.9001,4.9001,4.9001,4.9001,4.9001,4.9001,4.9001,4.9001,4.9001,5.5708,5.5708,5.5708,5.5708,5.5708,5.5708,5.5708,5.5708,5.5708,5.5708,5.5998,5.6194,5.6194,5.643,5.6601,5.6601,5.6601,5.6601,5.6601,5.6601,5.6601,5.6601,5.6601,5.6601,5.6601,5.6601,5.6601,5.6601,5.6601,5.6601,5.6601,5.6601,5.6601,5.6601,5.6601,5.6601,5.6601,5.6601,5.6601,5.6601,5.6601,5.6601,5.6561,5.6307,5.6194,5.6155,5.5822,5.5708,5.5708,5.5708,5.5708,5.5708,5.5708,5.5708,5.5708,5.5708,5.5708,5.5708,5.5708,5.5708,5.5708,5.5708,5.5708,5.5708,5.5708,5.5708,5.5708,5.5708,5.5708,5.5673,5.5605,5.5275,5.4855,5.4444,5.4005,5.3575,5.3241,5.3196,5.3196,5.3196,5.3196,5.3196,5.3196,5.3196,5.3196,5.3196,5.3196,5.3196,5.3196,5.3196,5.3196,5.3196,5.3196,5.3196,5.3196,5.3196,5.3196,5.3196,5.3196,5.3196,5.3175,5.2312,5.1618,5.1047,5.0185,4.9521,4.9001,4.9001,4.9001,4.9001,4.9001,4.9001,4.9001,4.9001,4.9001,4.9001,5.5708,5.5708,5.5708,5.5708,5.5708,5.5708,5.5708,5.5708,5.5708,5.5708,5.5998,5.6194,5.6194,5.643,5.6601,5.6601,5.6601,5.6601,5.6601,5.6601,5.6601,5.6601,5.6601,5.6601,5.6601,5.6601,5.6601,5.6601,5.6601,5.6601,5.6601,5.6601,5.6601,5.6601,5.6601,5.6601,5.6601,5.6601,5.6601,5.6601,5.6601,5.6601,5.6561,5.6307,5.6194,5.6155,5.5822,5.5708,5.5708,5.5708,5.5708,5.5708,5.5708,5.5708,5.5708,5.5708,5.5708,5.5708,5.5708,5.5708,5.5708,5.5708,5.5708,5.5708,5.5708,5.5708,5.5708,5.5708,5.5708,5.5588,5.5256,5.484,5.4428,5.3968,5.3554,5.3261,5.3206,5.3196,5.3196,5.3196,5.3196,5.3196,5.3196,5.3196,5.3196,5.3196,5.3196,5.3196,5.3196,5.3196,5.3196,5.3196,5.3196,5.3196,5.3196,5.3196,5.3196,5.3196,5.3196,5.3196,5.3164,5.1838,5.1189,5.1021,4.971,4.9077,4.9001,4.9001,4.9001,4.9001,4.9001,4.9001,4.9001,4.9001,4.9001,4.9001,5.5708,5.5708,5.5708,5.5708,5.5708,5.5708,5.5708,5.5708,5.5708,5.5708,5.5998,5.6194,5.6194,5.643,5.6601,5.6601,5.7051,5.7324,5.7324,5.7773,5.8047,5.8047,5.8047,5.8047,5.8047,5.8047,5.8047,5.8047,5.707,5.6601,5.6601,5.6601,5.6601,5.6601,5.6601,5.6601,5.6601,5.6601,5.6601,5.6601,5.6601,5.656,5.6479,5.6264,5.6141,5.5999,5.5789,5.5708,5.5708,5.5708,5.5708,5.5708,5.5708,5.5708,5.5708,5.5708,5.5708,5.5708,5.5708,5.5708,5.5708,5.5708,5.5708,5.5708,5.5708,5.5708,5.5708,5.5708,5.5708,5.5577,5.5173,5.476,5.4357,5.3888,5.3464,5.3196,5.3196,5.3196,5.3196,5.3196,5.3196,5.3196,5.3196,5.3196,5.3196,5.3196,5.3196,5.3196,5.3196,5.3196,5.3196,5.3196,5.3196,5.3196,5.3196,5.3196,5.3196,5.3196,5.3196,5.3196,5.3153,5.174,5.1099,5.1021,4.961,4.9001,4.9001,4.9001,4.9001,4.9001,4.9001,4.9001,4.9001,4.9001,4.9001,4.9001]}]]